[[{"header":{"parameterUnit":"m.s-1","parameterCategory":1,"la1":30.6,"la2":29.2853,"lo1":-89.7004,"lo2":-87.6739,"dy":0.0162,"dx":0.0183,"nx":112,"ny":82,"refTime":"2025-05-20T18:00:00:Z","depth":0,"parameterNumber":2,"parameterNumberName":"U-component_of_WINDS"},"data":[0.0,0.0,0.0,0.0,0.0,0.0,0.0,0.0,0.0,0.0,0.0,0.0,0.0,0.0,0.0,0.0,0.0,0.0,0.0,0.0,0.0,0.0,0.0,0.0,0.0,0.0,0.0,0.0,0.0,0.0,0.0,0.0,0.0,0.0,0.0,0.0,0.0,0.0,0.0,0.0,0.0,0.0,0.0,0.0,0.0,0.0,0.0,0.0,0.0,0.0,0.0,0.0,0.0,0.0,0.0,0.0,0.0,0.0,0.0,0.0,0.0,0.0,0.0,0.0,0.0,0.0,0.0,0.0,0.0,0.0,0.0,0.0,0.0,0.0,0.0,0.0,0.0,0.0,0.0,0.0,0.0,0.0,0.0,0.0,0.0,0.0,0.0,0.0,0.0,0.0,2.0441,2.191,2.4039,2.5374,2.5374,2.5374,2.4306,2.1831,0.0,0.0,0.0,0.0,0.0,0.0,0.0,0.0,0.0,0.0,0.0,0.0,0.0,0.0,0.0,0.0,0.0,0.0,0.0,0.0,0.0,0.0,0.0,0.0,0.0,0.0,0.0,0.0,0.0,0.0,0.0,0.0,0.0,0.0,0.0,0.0,0.0,0.0,0.0,0.0,0.0,0.0,0.0,0.0,0.0,0.0,0.0,0.0,0.0,0.0,0.0,0.0,0.0,0.0,0.0,0.0,0.0,0.0,0.0,0.0,0.0,0.0,0.0,0.0,0.0,0.0,0.0,0.0,0.0,0.0,0.0,0.0,0.0,0.0,0.0,0.0,0.0,0.0,0.0,0.0,0.0,0.0,0.0,0.0,0.0,0.0,0.0,0.0,0.0,0.0,0.0,0.0,0.0,0.0,0.0,0.0,0.0,0.0,0.0,0.0,0.0,0.0,0.0,0.0,2.0383,2.4227,2.4988,2.5228,2.5228,2.5228,2.4432,2.2555,0.0,0.0,0.0,0.0,0.0,0.0,0.0,0.0,0.0,0.0,0.0,0.0,0.0,0.0,0.0,0.0,0.0,0.0,0.0,0.0,0.0,0.0,0.0,0.0,0.0,0.0,0.0,0.0,0.0,0.0,0.0,0.0,0.0,0.0,0.0,0.0,0.0,0.0,0.0,0.0,0.0,0.0,0.0,0.0,0.0,0.0,0.0,0.0,0.0,0.0,0.0,0.0,0.0,0.0,0.0,0.0,0.0,0.0,0.0,0.0,0.0,0.0,0.0,0.0,0.0,0.0,0.0,0.0,0.0,0.0,0.0,0.0,0.0,0.0,0.0,0.0,0.0,0.0,0.0,0.0,0.0,0.0,0.0,0.0,0.0,0.0,0.0,0.0,0.0,0.0,0.0,0.0,0.0,0.0,0.0,0.0,0.0,0.0,0.0,0.0,0.0,0.0,0.0,1.9954,2.1462,2.4847,2.5191,2.5191,2.5191,2.5191,2.4465,2.2715,1.9865,0.0,0.0,0.0,0.0,0.0,0.0,0.0,0.0,0.0,0.0,0.0,0.0,0.0,0.0,0.0,0.0,0.0,0.0,0.0,0.0,0.0,0.0,0.0,0.0,0.0,0.0,0.0,0.0,0.0,0.0,0.0,0.0,0.0,0.0,0.0,0.0,0.0,0.0,0.0,0.0,0.0,0.0,0.0,0.0,0.0,0.0,0.0,0.0,0.0,0.0,0.0,0.0,0.0,0.0,0.0,0.0,0.0,0.0,0.0,0.0,0.0,0.0,0.0,0.0,0.0,0.0,0.0,0.0,0.0,0.0,0.0,0.0,0.0,0.0,0.0,0.0,0.0,0.0,0.0,0.0,0.0,0.0,0.0,0.0,0.0,0.0,0.0,0.0,0.0,0.0,0.0,0.0,0.0,0.0,0.0,0.0,0.0,0.0,0.0,0.0,0.0,0.0,2.2064,2.2969,2.4915,2.5168,2.5191,2.5191,2.4828,2.3995,2.2645,1.9048,0.0,0.0,0.0,0.0,0.0,0.0,0.0,0.0,0.0,0.0,0.0,0.0,0.0,0.0,0.0,0.0,0.0,0.0,0.0,0.0,0.0,0.0,0.0,0.0,0.0,0.0,0.0,0.0,0.0,0.0,0.0,0.0,0.0,0.0,0.0,0.0,0.0,0.0,0.0,0.0,0.0,0.0,0.0,0.0,0.0,0.0,0.0,0.0,0.0,0.0,0.0,0.0,0.0,0.0,0.0,0.0,0.0,0.0,0.0,0.0,0.0,0.0,0.0,0.0,0.0,0.0,0.0,0.0,0.0,0.0,0.0,0.0,0.0,0.0,0.0,0.0,0.0,0.0,0.0,0.0,0.0,0.0,0.0,0.0,0.0,0.0,0.0,0.0,0.0,0.0,0.0,0.0,0.0,0.0,0.0,0.0,0.0,0.0,0.0,0.0,0.0,0.0,2.2644,2.4726,2.4896,2.5101,2.5191,2.5191,2.3709,2.2672,2.2436,1.7852,0.0,0.0,0.0,0.0,0.0,0.0,0.0,0.0,0.0,0.0,0.0,0.0,0.0,0.0,0.0,0.0,0.0,0.0,0.0,0.0,0.0,0.0,0.0,0.0,0.0,0.0,0.0,0.0,0.0,0.0,0.0,0.0,0.0,0.0,0.0,0.0,0.0,0.0,0.0,0.0,0.0,0.0,0.0,0.0,0.0,0.0,0.0,0.0,0.0,0.0,0.0,0.0,0.0,0.0,0.0,0.0,0.0,0.0,0.0,0.0,0.0,0.0,0.0,0.0,0.0,0.0,0.0,0.0,0.0,0.0,0.0,0.0,0.0,0.0,0.0,0.0,0.0,0.0,0.0,0.0,0.0,0.0,0.0,0.0,0.0,0.0,0.0,0.0,0.0,0.0,0.0,0.0,0.0,0.0,0.0,0.0,0.0,0.0,0.0,0.0,0.0,0.0,2.1714,2.3804,0.0,2.5144,2.5092,2.5588,2.4568,2.3232,2.1633,0.0,0.0,0.0,0.0,0.0,0.0,0.0,0.0,0.0,0.0,0.0,0.0,0.0,0.0,0.0,0.0,0.0,0.0,0.0,0.0,0.0,0.0,0.0,0.0,0.0,0.0,0.0,0.0,0.0,0.0,0.0,0.0,0.0,0.0,0.0,0.0,0.0,0.0,0.0,0.0,0.0,0.0,0.0,0.0,0.0,0.0,0.0,0.0,0.0,0.0,0.0,0.0,0.0,0.0,0.0,0.0,0.0,0.0,0.0,0.0,0.0,0.0,0.0,0.0,0.0,0.0,0.0,0.0,0.0,0.0,0.0,0.0,0.0,0.0,0.0,0.0,0.0,0.0,0.0,0.0,0.0,0.0,0.0,0.0,0.0,0.0,0.0,0.0,0.0,0.0,0.0,0.0,0.0,0.0,0.0,0.0,0.0,0.0,0.0,0.0,0.0,0.0,1.9147,2.1701,2.3942,0.0,2.5373,2.5292,2.5855,2.4654,2.3041,2.1057,0.0,0.0,0.0,0.0,0.0,0.0,0.0,0.0,0.0,0.0,0.0,0.0,0.0,0.0,0.0,0.0,0.0,0.0,0.0,0.0,0.0,0.0,0.0,0.0,0.0,0.0,0.0,0.0,0.0,0.0,0.0,0.0,0.0,0.0,0.0,0.0,0.0,0.0,0.0,0.0,0.0,0.0,0.0,0.0,0.0,0.0,0.0,0.0,0.0,0.0,0.0,0.0,0.0,0.0,0.0,0.0,0.0,0.0,0.0,0.0,0.0,0.0,0.0,0.0,0.0,0.0,0.0,0.0,0.0,0.0,0.0,0.0,0.0,0.0,0.0,0.0,0.0,0.0,0.0,0.0,0.0,0.0,0.0,0.0,0.0,0.0,0.0,0.0,0.0,0.0,0.0,0.0,0.0,0.0,0.0,0.0,0.0,0.0,0.0,0.0,0.0,0.0,1.9072,2.2972,2.5579,2.5597,2.5775,2.5876,2.5895,2.3574,2.1732,0.0,0.0,0.0,0.0,0.0,0.0,0.0,0.0,0.0,0.0,0.0,0.0,0.0,0.0,0.0,0.0,0.0,0.0,0.0,0.0,0.0,0.0,0.0,0.0,0.0,0.0,0.0,0.0,0.0,0.0,0.0,0.0,0.0,0.0,0.0,0.0,0.0,0.0,0.0,0.0,0.0,0.0,0.0,0.0,0.0,0.0,0.0,0.0,0.0,0.0,0.0,0.0,0.0,0.0,0.0,0.0,0.0,0.0,0.0,0.0,0.0,0.0,0.0,0.0,0.0,0.0,0.0,0.0,0.0,0.0,0.0,0.0,0.0,0.0,0.0,0.0,0.0,0.0,0.0,0.0,0.0,0.0,0.0,0.0,0.0,0.0,0.0,0.0,0.0,0.0,0.0,0.0,0.0,0.0,0.0,0.0,0.0,0.0,0.0,0.0,0.0,0.0,0.0,1.9435,2.2751,2.5194,2.595,2.5518,2.5529,2.6334,2.4654,2.2493,1.9896,0.0,0.0,0.0,0.0,0.0,0.0,0.0,0.0,0.0,0.0,0.0,0.0,0.0,0.0,0.0,0.0,0.0,0.0,0.0,0.0,0.0,0.0,0.0,0.0,0.0,0.0,0.0,0.0,0.0,0.0,0.0,0.0,0.0,0.0,0.0,0.0,0.0,0.0,0.0,0.0,0.0,0.0,0.0,0.0,0.0,0.0,0.0,0.0,0.0,0.0,0.0,0.0,0.0,0.0,0.0,0.0,0.0,0.0,0.0,0.0,0.0,0.0,0.0,0.0,0.0,0.0,0.0,0.0,0.0,0.0,0.0,0.0,0.0,0.0,0.0,0.0,0.0,0.0,0.0,0.0,0.0,0.0,0.0,0.0,0.0,0.0,0.0,0.0,0.0,0.0,0.0,0.0,0.0,0.0,0.0,0.0,0.0,0.0,0.0,0.0,0.0,0.0,1.9976,2.3097,2.5439,2.6381,2.6015,2.587,2.625,2.511,2.2966,1.9737,0.0,0.0,0.0,0.0,0.0,0.0,0.0,0.0,0.0,0.0,0.0,0.0,0.0,0.0,0.0,0.0,0.0,0.0,0.0,0.0,0.0,0.0,0.0,0.0,0.0,0.0,0.0,0.0,0.0,0.0,0.0,0.0,0.0,0.0,0.0,0.0,0.0,0.0,0.0,0.0,0.0,0.0,0.0,0.0,0.0,0.0,0.0,0.0,0.0,0.0,0.0,0.0,0.0,0.0,0.0,0.0,0.0,0.0,0.0,0.0,0.0,0.0,0.0,0.0,0.0,0.0,0.0,0.0,0.0,0.0,0.0,0.0,0.0,0.0,0.0,0.0,0.0,0.0,0.0,0.0,0.0,0.0,0.0,0.0,0.0,0.0,0.0,0.0,0.0,0.0,0.0,0.0,0.0,0.0,0.0,0.0,0.0,0.0,0.0,0.0,0.0,0.0,2.064,2.3774,2.6027,2.6792,2.6881,2.6587,2.5872,2.5069,2.328,2.0192,0.0,0.0,0.0,0.0,0.0,0.0,0.0,0.0,0.0,0.0,0.0,0.0,0.0,0.0,0.0,0.0,0.0,0.0,0.0,0.0,0.0,0.0,0.0,0.0,0.0,0.0,0.0,0.0,0.0,0.0,0.0,0.0,0.0,0.0,0.0,0.0,0.0,0.0,0.0,0.0,0.0,0.0,0.0,0.0,0.0,0.0,0.0,0.0,0.0,0.0,0.0,0.0,0.0,0.0,0.0,0.0,0.0,0.0,0.0,0.0,1.7151,0.0,0.0,0.0,0.0,0.0,0.0,0.0,0.0,0.0,0.0,0.0,0.0,0.0,0.0,0.0,0.0,0.0,0.0,0.0,0.0,0.0,0.0,0.0,0.0,0.0,0.0,0.0,0.0,0.0,0.0,0.0,0.0,0.0,0.0,0.0,0.0,0.0,0.0,0.0,0.0,0.0,2.1073,2.3632,2.5551,2.6556,2.6616,2.6364,2.5847,2.5069,2.3489,2.0936,1.9357,0.0,0.0,0.0,0.0,0.0,0.0,0.0,0.0,0.0,0.0,0.0,0.0,0.0,0.0,0.0,0.0,0.0,0.0,0.0,0.0,0.0,0.0,0.0,0.0,0.0,0.0,0.0,0.0,0.0,0.0,0.0,0.0,0.0,0.0,0.0,0.0,0.0,0.0,0.0,0.0,0.0,0.0,0.0,0.0,0.0,0.0,0.0,0.0,0.0,0.0,0.0,0.0,0.0,0.0,0.0,0.0,0.0,0.0,0.0,0.0,1.8748,0.0,0.0,0.0,0.0,0.0,0.0,0.0,0.0,0.0,0.0,0.0,0.0,0.0,0.0,0.0,0.0,0.0,0.0,0.0,0.0,0.0,0.0,0.0,0.0,0.0,0.0,0.0,0.0,0.0,0.0,0.0,0.0,0.0,0.0,0.0,0.0,0.0,0.0,0.0,0.0,2.2151,2.404,2.5495,2.68,2.6922,2.662,2.5988,2.5243,2.3936,2.1925,2.0455,0.0,0.0,0.0,0.0,0.0,0.0,0.0,0.0,0.0,0.0,0.0,0.0,0.0,0.0,0.0,0.0,0.0,0.0,0.0,0.0,0.0,0.0,0.0,0.0,0.0,0.0,0.0,0.0,0.0,0.0,0.0,0.0,0.0,0.0,0.0,0.0,0.0,0.0,0.0,0.0,0.0,0.0,0.0,0.0,0.0,0.0,0.0,0.0,0.0,0.0,0.0,0.0,0.0,2.1188,2.2033,2.4049,2.3353,2.376,2.4837,2.2235,2.1291,2.1483,2.0045,0.0,0.0,0.0,0.0,0.0,0.0,0.0,0.0,0.0,0.0,0.0,0.0,0.0,0.0,0.0,0.0,0.0,0.0,0.0,0.0,0.0,0.0,0.0,0.0,2.2087,2.2167,1.9065,0.0,0.0,0.0,0.0,0.0,0.0,0.0,0.0,0.0,0.0,0.0,2.3199,2.4597,2.573,2.7144,2.7299,2.6971,2.6178,2.5419,2.4402,2.2988,2.1611,2.0256,0.0,0.0,0.0,0.0,0.0,0.0,0.0,0.0,0.0,0.0,0.0,0.0,0.0,0.0,0.0,0.0,0.0,0.0,0.0,0.0,0.0,0.0,0.0,0.0,0.0,0.0,0.0,0.0,0.0,0.0,0.0,0.0,1.3591,1.4408,0.0,0.0,0.0,0.0,0.0,0.0,0.0,0.0,0.0,0.0,0.0,0.0,0.0,2.1153,2.2567,2.3371,2.4189,2.4992,2.5585,2.6277,2.7029,2.6924,2.6894,2.6891,2.6493,0.0,2.3951,2.3122,0.0,0.0,0.0,0.0,0.0,0.0,0.0,0.0,0.0,0.0,0.0,0.0,0.0,0.0,0.0,0.0,0.0,0.0,0.0,0.0,0.0,0.0,2.3391,2.3391,2.3391,2.3305,0.0,2.079,1.8456,1.6303,1.5834,0.0,0.0,0.0,0.0,0.0,0.0,0.0,2.3227,2.4957,2.6299,2.7195,2.7299,2.6971,2.6178,2.5419,2.4626,2.3702,2.2306,2.1391,2.1167,1.913,0.0,0.0,0.0,0.0,0.0,0.0,0.0,0.0,0.0,0.0,0.0,0.0,0.0,0.0,0.0,0.0,0.0,0.0,0.0,0.0,0.0,0.0,0.0,0.0,0.0,0.0,0.0,0.0,0.0,1.3868,1.5224,1.6007,1.618,1.5897,0.0,0.0,0.0,0.0,0.0,0.0,0.0,0.0,0.0,2.384,2.3708,2.4261,2.5702,2.6053,2.656,2.7185,2.7517,2.8032,2.8652,2.8652,2.8605,2.8541,2.8541,2.8066,2.7138,2.5135,2.3868,2.3127,0.0,0.0,0.0,0.0,2.1456,2.1803,2.2552,2.2474,2.2012,2.1815,0.0,0.0,0.0,0.0,0.0,0.0,0.0,2.1567,0.0,0.0,2.4938,2.5346,2.5642,2.5745,2.5373,2.4035,2.228,0.0,1.9,1.8176,1.7183,0.0,0.0,0.0,0.0,2.1424,2.4166,2.5171,2.6009,2.6937,2.7023,2.695,2.6799,2.5678,2.4821,2.4448,2.302,2.2151,2.2151,2.0685,1.9566,0.0,0.0,0.0,0.0,0.0,0.0,0.0,0.0,0.0,0.0,0.0,0.0,0.0,0.0,0.0,0.0,0.0,0.0,0.0,0.0,0.0,0.0,0.0,0.0,0.0,0.0,0.0,0.0,1.544,1.6954,1.8093,1.8582,1.8333,0.0,0.0,0.0,0.0,0.0,0.0,2.2419,2.2456,2.3732,2.6551,2.6436,2.6911,2.8066,2.8084,2.8357,2.887,2.887,2.9282,3.0118,3.0191,3.0293,3.0409,3.0482,3.0482,3.017,2.7132,2.5807,2.5609,2.427,2.3699,2.371,2.4257,2.4652,2.5056,2.5814,2.5816,2.5346,2.4614,2.3817,2.2895,2.1469,0.0,0.0,0.0,0.0,2.3203,2.3734,2.484,2.5871,2.6438,2.6949,2.7173,2.6677,2.615,2.5198,0.0,2.194,2.0902,2.0274,0.0,0.0,0.0,0.0,2.2363,2.488,2.543,2.5849,2.6623,2.6691,2.6808,2.704,2.5685,2.4782,2.4799,2.3363,2.2552,2.2605,2.1968,2.1293,2.0592,0.0,0.0,0.0,0.0,0.0,0.0,0.0,0.0,0.0,0.0,0.0,0.0,0.0,0.0,0.0,0.0,0.0,0.0,0.0,0.0,0.0,0.0,0.0,0.0,0.0,0.0,0.0,0.0,0.0,2.1024,2.0643,0.0,0.0,0.0,0.0,2.088,2.307,2.473,2.5454,2.6065,2.7095,2.8596,2.8389,2.8625,2.9386,2.9386,2.9626,3.0088,3.0088,3.07,3.1783,3.211,3.2476,3.2847,3.3152,3.3111,3.2579,2.9484,2.8048,2.7674,2.6893,2.6387,2.6114,2.6147,2.618,2.6314,2.7031,2.6831,2.648,2.7868,2.7653,2.6742,2.6202,2.558,0.0,0.0,2.5227,2.5493,2.5696,2.5991,2.6166,2.6212,2.6243,2.6258,2.6227,2.6197,2.5812,0.0,2.3802,2.3124,2.2394,0.0,2.2167,2.2297,2.3113,2.4034,2.4809,2.5744,2.6368,2.6418,2.6418,2.6418,2.6453,2.5095,2.4337,2.4526,2.3134,2.2415,2.2579,2.2508,2.2088,2.1362,1.8754,0.0,0.0,0.0,0.0,0.0,0.0,0.0,0.0,0.0,0.0,0.0,0.0,0.0,0.0,0.0,0.0,0.0,0.0,0.0,0.0,0.0,0.0,0.0,0.0,0.0,0.0,0.0,0.0,2.2111,2.2872,0.0,2.2357,2.2932,2.3454,2.3724,2.5094,2.6272,2.713,2.7476,2.8228,2.947,2.9797,3.0289,3.1055,3.1523,3.183,3.2017,3.2017,3.2203,3.262,3.2731,3.2856,3.2994,3.3151,3.3108,3.2921,3.1806,3.0735,2.9664,2.8437,2.7894,2.7835,2.8248,2.8301,2.8279,2.9006,2.8672,2.7921,2.801,2.7767,2.7396,2.6876,2.6535,2.6287,2.5951,2.5923,2.6114,2.6592,2.6795,2.6949,2.7441,2.7533,2.7533,2.7533,2.7195,2.6703,2.633,2.5589,2.508,2.5158,2.4774,2.4628,2.5098,2.5484,2.5929,2.6613,2.6662,2.666,2.6829,2.6435,2.6208,2.6383,2.4963,2.4048,2.4031,2.2576,2.1751,2.184,2.1764,2.1619,2.1383,1.946,1.7541,0.0,0.0,0.0,0.0,0.0,0.0,0.0,0.0,0.0,0.0,0.0,0.0,0.0,0.0,0.0,0.0,0.0,0.0,0.0,0.0,0.0,0.0,0.0,0.0,0.0,0.0,2.2593,2.3548,2.4623,2.502,2.4456,2.5129,2.5756,2.604,2.6874,2.7732,2.8574,2.8951,2.9576,3.0527,3.1213,3.1784,3.2269,3.277,3.2934,3.2802,3.2802,3.289,3.3048,3.3122,3.3255,3.3396,3.3487,3.3487,3.3333,3.3148,3.247,3.1477,3.0336,2.9855,2.9799,3.0261,3.03,3.0168,3.0449,3.0125,2.9451,2.8777,2.8529,2.8484,2.8136,2.7999,2.7968,2.7657,2.742,2.7367,2.7841,2.7648,2.7504,2.7991,2.7931,2.7765,2.7765,2.7433,2.7101,2.7294,2.6594,2.6114,2.6481,2.6141,2.6022,2.6663,2.6768,2.6969,2.7599,2.7316,2.712,2.7283,2.6683,2.6278,2.6339,2.4773,2.3686,2.3586,2.2118,2.1324,2.1386,2.1339,2.1339,2.1386,1.975,1.7955,1.5987,0.0,0.0,0.0,0.0,0.0,0.0,0.0,0.0,0.0,0.0,0.0,0.0,0.0,0.0,0.0,0.0,0.0,0.0,0.0,0.0,0.0,0.0,0.0,2.08,2.1522,2.2988,2.5511,2.5901,2.5979,2.6178,2.708,2.7702,2.7875,2.8499,2.9201,2.9911,3.0639,3.1288,3.1842,3.2567,3.2967,3.2967,3.3,3.2824,3.257,3.257,3.2747,3.3161,3.3465,3.3777,3.4101,3.4497,3.4448,3.4002,3.3339,3.3064,3.3048,3.2662,3.2275,3.2012,3.1981,3.1981,3.1886,3.1274,3.1045,3.0995,3.0408,3.0201,3.0201,3.0201,3.0201,3.0149,3.0149,2.9781,2.9366,2.9366,2.8557,2.7752,2.7752,2.7287,2.6837,2.6823,2.6823,2.6951,2.7378,2.6786,2.6244,2.6244,2.629,2.6409,2.6863,2.695,0.0,2.7646,2.7712,2.7696,2.7696,2.7082,2.6566,2.6302,2.4415,2.3215,2.3083,2.1773,2.1135,2.1355,2.1308,2.1308,2.1355,1.9585,1.7869,1.6256,0.0,0.0,0.0,0.0,0.0,0.0,0.0,0.0,0.0,0.0,0.0,0.0,0.0,0.0,0.0,0.0,0.0,0.0,0.0,0.0,0.0,2.0988,2.2124,2.1962,2.4007,2.5773,2.6515,2.7681,2.8339,2.822,2.849,2.8989,2.9777,3.0263,3.0834,3.1534,3.1609,3.1531,3.1325,3.1623,3.2003,3.2416,3.2882,3.3321,3.3665,3.3665,3.373,3.3825,3.3908,3.3774,3.3475,3.3563,3.3319,3.2857,3.2685,3.2607,3.2535,3.2273,3.2089,3.2013,3.2109,3.1868,3.1379,3.0696,3.0459,3.0408,3.0237,3.0201,3.0149,2.9728,2.9621,2.9582,2.9233,2.9042,2.8876,2.8876,2.8647,2.8419,2.8419,2.8289,2.8028,2.7578,2.7461,2.7384,2.7062,2.6784,2.6872,2.7607,2.7702,2.775,2.7875,2.7922,0.0,2.8,2.7519,2.7254,2.7449,2.6898,2.6345,2.6122,2.4918,2.3786,2.2818,2.178,2.1042,2.061,2.0579,2.0579,2.0595,1.9107,1.8007,0.0,0.0,0.0,0.0,0.0,0.0,0.0,0.0,0.0,0.0,0.0,0.0,0.0,0.0,0.0,0.0,0.0,0.0,0.0,0.0,0.0,0.0,2.2573,2.3604,2.3786,2.538,2.6689,2.7244,2.8313,2.8937,2.8727,2.9234,2.9716,3.015,3.0559,3.0975,3.1406,3.1579,3.1523,3.1181,3.1535,3.1905,3.2279,3.2654,3.3071,3.3403,3.3403,3.3403,3.3403,3.3403,3.3177,3.2841,3.2841,3.2695,3.2398,3.2398,3.2398,0.0,0.0,0.0,0.0,0.0,3.2066,3.1682,3.0997,3.0737,3.0682,3.0463,3.0353,3.0298,2.9977,2.9921,2.9822,2.958,2.9479,2.9479,2.9479,2.9276,2.9073,2.9073,2.8869,2.8579,2.8091,2.7801,2.7512,2.7083,2.6794,0.0,2.7363,2.758,2.773,2.7963,2.7898,2.7932,2.8079,2.7695,2.745,2.7593,2.7134,2.6605,2.6084,2.515,0.0,0.0,0.0,2.143,2.0767,2.0458,0.0,0.0,0.0,0.0,0.0,0.0,0.0,0.0,1.7405,1.7386,0.0,0.0,0.0,0.0,0.0,0.0,0.0,0.0,0.0,0.0,0.0,0.0,0.0,0.0,0.0,0.0,2.3967,2.5161,2.5837,2.599,2.6472,2.7702,2.8317,2.8574,2.8451,2.9529,3.0131,2.9819,3.0125,3.0406,3.0603,0.0,0.0,0.0,0.0,3.2231,3.2272,3.2364,3.245,3.2505,3.2582,3.2613,3.2613,3.2613,3.2573,3.2502,3.2502,3.2446,3.239,3.239,3.2344,3.2338,3.2358,3.2342,3.2272,3.2272,3.2287,3.2104,3.1595,0.0,0.0,3.0747,3.0568,3.0568,3.0568,3.0568,3.0568,3.0568,3.0568,3.0568,3.0568,3.0161,2.974,2.9667,2.9247,2.8813,2.8569,2.7982,2.751,2.7453,2.6814,2.6332,2.6386,2.6611,2.6855,2.7327,2.7246,2.7348,2.7834,2.775,2.77,2.775,0.0,0.0,2.6199,2.5275,2.4369,2.3335,2.2585,2.1896,2.1299,2.0737,2.0656,2.1268,2.1283,2.1409,2.1689,2.1764,2.1624,2.1243,1.8848,1.8673,0.0,0.0,0.0,0.0,0.0,0.0,0.0,0.0,0.0,0.0,0.0,0.0,0.0,0.0,0.0,2.3998,2.5017,2.5904,2.6795,2.6841,2.6991,2.7598,2.8669,2.9326,2.9199,3.0027,3.0709,3.1114,3.118,3.1451,3.1967,3.1678,3.1456,3.1456,3.113,3.1204,3.1652,3.2178,3.2667,3.3111,0.0,0.0,3.3956,3.3956,3.3663,3.3186,3.3186,3.2959,3.2496,3.2496,3.2173,3.1751,3.2205,3.2104,3.1652,3.1652,3.1379,3.0911,3.0807,3.0747,3.0747,3.0628,3.0568,3.0568,3.0568,3.0568,0.0,3.0568,3.0568,3.0568,3.0568,3.048,3.0393,3.0199,3.0113,2.9808,2.9127,2.844,2.8022,2.7997,2.7031,2.6427,2.7028,2.6723,2.6447,2.6539,2.6525,2.6472,2.651,2.6457,2.651,2.6759,2.6695,2.6513,2.6115,2.5931,2.5055,2.3318,2.2073,2.1346,2.1228,2.1094,2.1094,2.1228,2.1228,2.1127,2.0988,2.1496,2.1801,2.2005,2.0944,2.0793,0.0,0.0,0.0,0.0,0.0,0.0,0.0,0.0,0.0,0.0,0.0,1.9863,2.0141,0.0,2.3764,2.5002,2.55,2.6083,2.7104,2.6975,2.7027,2.7849,2.8706,2.9139,2.88,2.9559,2.9958,2.968,2.9886,3.0148,3.0422,3.0495,3.0534,3.0378,3.0435,3.0606,3.0877,3.1126,3.1651,3.2323,3.2676,3.2978,3.3393,3.2978,3.265,3.2347,3.2347,3.2169,3.1889,3.1889,3.1689,3.1425,3.1305,3.1183,3.1029,3.1029,3.0851,3.0568,3.019,3.0129,3.0129,3.0129,2.987,2.9594,2.9993,2.9856,2.9532,2.9532,2.9532,2.9532,2.9532,2.9532,2.9532,2.9282,2.9282,2.9059,2.8491,2.789,2.7417,2.7353,2.6553,2.5934,2.6004,2.5761,2.5701,2.6207,2.6233,2.6179,2.6111,2.6056,2.6056,2.6204,2.6351,2.6303,2.5821,2.5672,2.5217,2.42,2.3216,2.2673,2.2673,2.2321,2.2292,2.2615,2.2673,2.2659,2.2678,2.2994,2.3136,2.316,2.2794,2.2758,0.0,0.0,0.0,0.0,0.0,0.0,0.0,0.0,1.8322,1.8028,2.0084,2.1813,2.1436,2.3169,2.4905,2.5582,2.5819,2.6242,2.7211,2.6919,2.7032,2.8108,2.8503,2.8477,2.8052,2.8767,2.893,2.8023,2.8284,2.8492,2.8492,2.914,2.9495,2.9307,2.9973,3.029,3.0173,3.0294,3.0692,3.1235,3.1414,3.1819,3.2405,3.1752,3.1469,3.1469,3.1469,3.1469,3.1469,3.1469,3.14,3.1221,3.0624,3.0422,3.0487,3.0487,3.061,3.061,2.9912,2.9644,2.9567,2.9567,2.91,2.8668,2.9273,2.8986,2.8427,2.8427,2.8427,2.8427,2.8427,2.8427,2.8363,2.8168,2.8103,2.8038,2.7696,2.7157,2.6713,2.67,2.6103,2.5508,2.5166,2.4966,2.5044,2.5744,2.5879,2.5893,2.5893,2.5893,2.5893,2.5893,2.6204,2.615,2.5635,2.5257,2.5092,2.5092,2.4447,2.4098,2.4098,2.3589,2.3574,2.4083,2.4098,2.425,2.449,2.4604,2.4526,2.4301,2.4413,2.4413,1.6774,1.5876,1.5799,1.7924,1.7692,1.7687,0.0,0.0,2.0132,2.1164,2.2105,2.2754,2.2679,2.3884,2.5043,2.5626,2.6188,2.6807,2.7451,2.7228,2.729,2.795,2.7944,2.7864,2.7666,2.8247,2.8575,2.8461,2.8451,2.8492,2.8492,2.9059,2.9319,2.9307,2.9916,3.0242,3.0173,3.0769,3.1026,3.1097,3.1697,3.2027,3.2171,3.2027,3.2027,3.2027,3.2027,3.2027,3.2027,3.2027,3.1643,3.1097,3.1026,3.0564,2.9984,3.0188,3.0565,3.087,3.0106,2.9738,2.9491,2.9491,2.9158,2.8758,2.8893,2.8531,2.8051,2.8051,2.8051,2.8051,2.8051,2.8051,2.7986,2.7828,2.7762,2.7696,2.7537,2.6963,2.6655,2.7246,2.6396,2.5671,2.622,2.5488,2.4687,2.4287,2.4751,2.5118,2.5118,2.5564,2.5893,2.5893,2.5948,2.592,2.5849,2.5325,2.5024,2.5024,2.4445,2.4105,2.4105,2.4035,2.4035,2.4105,2.4105,2.4134,2.4154,2.4704,2.4934,2.4882,2.543,2.5402,1.8214,1.7769,1.7865,0.0,1.9461,1.9767,2.1459,2.1801,2.1805,2.1986,2.3114,2.3844,2.3177,2.4627,2.5911,0.0,2.6274,2.6685,2.6587,2.6041,2.56,2.5423,2.5419,2.5968,2.7405,2.7787,2.7736,2.7351,2.7351,2.7494,2.7764,2.8394,2.8842,2.9028,2.9731,3.0033,2.9947,3.0255,3.0568,3.0983,3.1296,3.1636,3.2074,3.1636,3.1415,3.1415,3.1415,3.1636,3.1869,3.1415,3.0987,3.0555,3.0108,3.0041,3.0124,3.0081,3.0077,3.0036,2.9311,2.9028,2.8931,2.8931,2.8518,2.8074,2.8148,2.7752,2.7163,2.6845,2.6756,2.6756,2.6756,2.6756,2.6756,2.6526,2.6445,2.6458,2.6252,2.6,2.5861,2.6195,2.5746,2.535,2.5344,2.4921,2.4325,2.3542,2.3961,2.4394,2.4394,2.4978,2.5508,2.5839,2.5893,2.5893,2.5893,2.5655,2.5514,2.5514,2.5275,2.5135,2.5135,2.5135,2.5135,2.5135,2.5135,2.4961,2.464,2.4901,2.4778,2.4417,2.4673,2.4646,1.9142,0.0,0.0,2.048,2.0986,2.1498,2.2283,2.2656,2.2717,2.2512,2.3541,2.4203,2.3192,2.4549,2.5697,2.5415,2.5717,2.5918,2.5665,2.5008,2.4311,2.3804,2.3665,2.4386,2.637,2.6786,2.6676,2.6233,2.6313,2.6503,2.69,2.7435,2.7875,2.8194,2.8862,2.9149,2.904,2.93,2.9741,3.0215,3.0456,3.0921,3.1429,3.0758,3.0532,3.0443,3.0456,3.0683,3.0983,3.0469,3.0088,2.9871,2.9353,2.9431,2.9846,2.9688,2.964,2.9542,2.8842,2.8573,2.8499,2.8499,2.8052,2.7581,2.7663,2.7123,2.6479,2.6088,2.5868,2.5758,2.5758,2.5758,2.5688,2.5535,2.5535,2.5465,2.5312,2.5312,2.5312,2.5312,2.5312,2.5192,2.4807,2.4614,2.4266,2.352,2.3742,2.3923,2.3767,2.4337,2.4865,2.5314,2.537,2.537,2.537,2.537,2.537,2.537,2.537,2.537,2.537,2.537,2.537,2.537,2.537,2.5147,2.4694,2.4694,2.4452,2.4021,2.4021,2.4112,0.0,0.0,1.998,2.1546,2.2007,2.242,2.3662,2.3188,2.2687,2.3259,2.3412,2.3292,2.2701,2.3125,2.3636,2.4147,2.4255,2.4516,2.5223,2.4725,2.4317,2.4399,2.3791,2.3616,0.0,2.4933,2.5382,2.5312,2.5793,2.602,2.6032,2.6217,2.6358,2.6393,2.6944,2.7209,2.7151,2.8051,2.8542,2.8621,2.9443,2.9869,2.9869,2.9586,2.9419,2.9419,2.9275,2.9209,2.9209,2.9131,2.9131,2.9131,2.9131,2.8973,2.887,2.8834,2.9344,2.9859,2.9045,2.8676,2.8542,2.8542,2.8114,2.7693,2.7681,2.6935,2.6093,2.6081,2.5709,2.5312,2.5312,2.5312,2.5312,2.5312,2.5312,2.5312,2.5312,2.5312,2.5312,2.5312,2.5312,2.53,2.5288,2.4855,2.4506,2.4482,2.4104,2.3652,2.3165,2.3669,2.4021,2.4079,2.4079,2.4079,2.4079,2.4079,2.4079,2.4079,2.4079,2.4079,2.4079,2.4079,2.4079,2.4079,2.4079,2.4021,2.4021,2.4021,2.4021,2.4021,2.4021,2.4262,1.8946,0.0,2.1007,2.159,2.2057,2.2472,2.2974,2.2799,2.2635,2.2822,2.2586,2.235,2.2147,2.2575,2.312,2.3651,2.43,2.481,2.4744,2.4038,2.3301,2.2694,2.2201,0.0,0.0,0.0,0.0,2.448,2.497,2.5338,2.5751,2.6104,2.6462,2.6806,2.6977,2.7069,2.7069,2.7395,2.7557,2.7557,2.7718,2.7799,2.7799,2.7545,2.7452,2.7464,2.7383,2.729,2.7116,2.7116,2.7046,2.6987,2.758,2.7834,2.7753,2.7753,2.7891,2.8199,2.8486,2.8578,2.851,2.851,2.839,2.8174,2.7825,2.7224,2.6574,2.6202,2.5721,2.5312,2.5312,2.5312,2.5312,2.5312,2.5312,2.5312,2.5312,2.5312,2.5312,2.5312,2.5312,2.5312,2.5312,2.5155,2.4927,2.4578,2.4097,2.3758,2.3642,2.3788,2.394,2.4015,2.4021,2.4021,2.4021,2.4021,2.4021,2.4021,2.4021,2.4021,2.4021,2.4021,2.4021,2.4021,2.4021,2.3787,2.3374,2.3768,2.3727,2.3368,2.3677,2.386,1.9206,2.0527,2.1809,2.1895,2.2401,2.2855,2.2887,2.2629,2.2311,2.2116,2.1595,2.1185,2.1138,2.116,2.1535,2.2524,2.3144,2.3553,2.3693,2.3133,2.2457,2.1776,2.1365,2.1176,0.0,0.0,0.0,2.3694,2.4239,2.4745,2.5149,2.5505,2.5842,2.6163,2.6174,2.6174,2.6174,2.6494,2.6741,2.6976,2.6812,2.673,2.6648,2.6472,2.6378,2.6389,2.6307,2.6141,2.5964,2.5964,2.5891,2.5819,2.6494,2.667,2.667,2.667,2.667,2.6753,2.7336,2.7499,2.7499,2.7499,2.7499,2.7522,2.7537,2.7025,2.6387,2.6428,2.5865,2.5312,2.5312,2.5312,2.5312,2.5312,2.5312,2.5312,2.5312,2.5312,2.5312,2.5312,2.5312,2.5312,2.5312,2.5312,2.5192,2.4855,2.453,2.4195,2.3909,2.3875,2.3865,2.3912,2.3758,2.3631,2.3631,2.3454,2.3339,2.3339,2.3339,2.3339,2.3339,2.3339,2.3339,2.3339,2.353,2.345,2.3047,2.3603,2.3631,2.3268,2.3616,2.3802,1.9788,2.1159,2.2439,2.2493,2.291,2.3313,2.3289,2.2537,2.1687,2.1104,2.0382,1.9773,0.0,0.0,1.9056,2.0915,2.0906,2.1118,2.2211,2.2009,2.1755,0.0,0.0,0.0,0.0,0.0,0.0,2.2842,0.0,2.423,2.4263,2.4451,2.454,2.454,2.454,2.454,2.454,2.5348,2.6069,2.6648,2.6472,2.6318,2.6318,2.6047,2.5953,2.5953,2.5724,2.5652,2.5652,2.5652,2.5652,2.5652,2.5735,2.5746,2.5746,2.5746,2.5746,2.5746,2.5652,2.5735,2.5819,2.5819,2.5819,2.5997,2.6846,2.6394,2.5681,2.6546,2.5995,2.5158,2.5158,2.5229,2.5241,2.5158,2.5229,2.5241,2.5158,2.5158,2.5158,2.5158,2.5158,2.5158,2.5158,2.5158,2.5158,2.5158,2.5158,2.4869,2.3941,2.3809,2.3797,2.3773,2.3316,2.3015,2.3015,2.2558,2.227,2.227,2.227,2.227,2.227,2.227,2.227,2.227,2.2763,2.3015,2.3015,2.3556,2.3809,2.3809,2.3833,2.4042,2.0568,2.1839,2.2973,2.2259,2.2483,2.2655,2.1945,2.1265,2.0507,1.9607,1.863,1.7689,0.0,0.0,0.0,1.9739,2.1171,0.0,2.2583,2.2264,0.0,2.1362,0.0,2.0806,2.124,2.1279,0.0,0.0,2.2787,2.3643,2.399,2.4314,2.454,2.454,2.454,2.454,2.454,2.4529,2.4594,2.4584,2.4327,2.4241,2.4251,2.3973,2.3877,2.3887,2.381,2.381,2.381,2.381,2.381,2.3897,2.4573,2.4829,2.4829,2.4829,2.4829,2.4744,2.4069,2.4648,2.5819,2.5819,2.5819,2.5819,2.608,2.5488,2.4725,2.496,2.4321,2.3621,2.3621,2.3975,2.4264,2.3694,2.3986,2.4276,2.3694,2.3621,2.3621,2.3621,2.3621,2.3621,2.3621,2.3621,2.3621,2.3621,2.3621,2.3758,2.4273,2.4326,2.4181,2.3809,2.3652,2.3568,2.3568,2.3448,2.3364,2.3364,2.3364,2.3364,2.3364,2.3364,2.3364,2.3364,2.3508,2.3568,2.3568,2.4085,2.427,2.4145,2.4608,2.4661,2.1207,2.2296,2.3207,2.2456,2.2491,2.2337,2.0853,2.0127,1.9313,1.7901,1.677,0.0,1.5423,1.5685,0.0,0.0,0.0,0.0,2.1195,2.1349,2.1292,0.0,2.079,0.0,2.1099,2.1117,2.1183,0.0,2.2119,2.2645,2.2894,2.3322,2.3744,2.4024,2.4024,2.4196,2.4378,2.4024,2.3851,2.3667,2.3406,2.3319,2.3319,2.3144,2.3135,2.3135,2.3135,2.3135,2.3135,2.3135,2.3135,2.3135,2.3647,2.3897,2.3897,2.3897,2.3897,2.382,2.3309,2.3724,2.4648,2.4648,2.4648,2.4648,2.5073,2.474,2.4121,2.4317,2.3853,2.3209,2.3086,2.3316,2.3537,2.3106,2.3316,2.3537,2.3106,2.3032,2.3032,2.3032,2.3032,2.3032,2.3032,2.3032,2.3032,2.3032,2.3032,2.3227,2.3752,2.3849,2.3756,2.3479,2.3248,2.3121,2.3121,2.2913,2.2718,2.2718,2.2718,2.2718,2.2718,2.2718,2.2718,2.2718,2.3006,2.3121,2.3121,2.3454,2.3624,2.3575,2.3777,2.3925,2.1649,2.2515,2.3179,2.2728,2.2502,2.1968,2.0028,1.9066,1.8017,1.61,0.0,1.4373,1.4449,1.4011,1.4306,1.6311,0.0,1.7939,1.9145,1.9923,2.0282,2.0289,2.0643,2.0904,2.1015,2.1025,2.1155,2.1481,2.1509,2.1596,2.1759,2.2195,2.2668,2.3232,2.3232,2.3309,2.3754,2.3309,2.3135,2.3047,2.296,2.2872,2.296,2.3047,2.3135,2.3135,2.3135,2.3135,2.3135,2.3135,2.3135,2.3135,2.3135,2.3135,2.3135,2.3135,2.3135,2.3135,2.3135,2.3135,2.3135,2.3135,2.3135,2.3222,2.4069,2.3924,2.3639,2.3993,2.3659,2.3165,2.2778,2.2734,2.2798,2.2734,2.2734,2.2809,2.2734,2.266,2.266,2.266,2.266,2.266,2.266,2.266,2.266,2.266,2.266,2.266,2.266,2.2883,2.3032,2.3032,2.2586,2.2335,2.2335,2.1882,2.1572,2.1572,2.1572,2.1572,2.1572,2.1572,2.1572,2.1572,2.2056,2.2263,2.2263,2.2507,2.2553,2.2553,2.2328,2.2563,2.1707,2.2359,2.2705,2.2157,2.1632,2.0886,1.936,1.7932,0.0,0.0,1.4034,1.3323,1.2425,1.3152,1.4279,1.5597,0.0,0.0,0.0,0.0,1.9335,0.0,0.0,0.0,0.0,2.0454,0.0,0.0,2.0541,2.1069,2.2202,2.2356,2.2306,2.2059,2.1587,2.1302,2.1221,2.1132,2.0953,2.0773,2.1596,2.1961,2.1971,2.2784,2.3135,2.3135,2.3135,0.0,2.3135,2.3135,2.3135,2.3135,2.3135,2.3135,2.3135,2.3135,2.3135,2.3135,2.3135,2.3135,2.3135,2.3135,2.3135,2.3135,2.3309,2.3014,2.2676,2.2396,2.1959,2.1501,2.1131,2.1538,2.1832,2.1165,2.1538,2.1832,2.1165,2.1011,2.1011,2.1011,2.1011,2.1011,2.1011,2.1011,2.1011,2.1011,2.1011,2.1011,2.1011,2.2209,2.3032,2.3032,2.2955,2.2826,2.2826,2.2761,2.2622,2.239,2.2622,2.2622,2.239,2.2622,2.2706,2.2706,2.2783,2.2742,2.2509,2.2584,2.2403,2.2103,2.2103,2.2038,2.1717,2.1822,2.1733,2.1431,2.0698,1.9543,1.7638,0.0,0.0,0.0,1.2735,1.2236,1.1704,1.2346,0.0,0.0,0.0,0.0,0.0,0.0,0.0,0.0,0.0,0.0,0.0,2.018,2.0292,2.0292,2.0292,2.0555,2.1257,2.1427,2.1248,2.0791,2.0773,2.0674,2.0593,2.0503,2.0322,2.0232,2.0692,2.0962,2.0962,2.1418,2.1596,2.1596,2.1596,2.1596,2.1596,2.2138,2.2413,2.2413,2.2872,2.3135,2.3057,2.2969,2.2969,2.2882,2.2784,2.2706,2.2706,2.2706,2.2794,2.2969,2.2969,2.2679,2.2262,2.1649,2.1308,2.0953,2.037,2.0557,2.0702,2.0333,2.0557,2.0702,2.0323,2.0255,2.0255,2.0255,2.0255,2.0255,2.0255,2.0255,2.0255,2.0255,2.0255,2.0255,2.0255,2.0924,2.1451,2.168,2.169,2.1614,2.1614,2.1451,2.1298,2.1211,2.1298,2.1375,2.1375,2.1375,2.1451,2.1614,2.1451,2.1288,2.1211,2.1058,2.0914,2.076,2.0672,2.075,2.1243,2.1086,2.0671,2.0671,1.9705,1.826,1.6078,1.4963,0.0,0.0,1.1678,1.1519,1.1528,0.0,1.2087,0.0,0.0,0.0,0.0,0.0,0.0,0.0,0.0,0.0,1.9638,2.0001,0.0,2.0283,2.0201,2.0102,2.0102,2.0093,1.9903,1.953,1.9786,1.9869,1.9869,1.9687,1.9596,1.9596,1.9778,1.9869,1.9877,2.0141,2.0232,2.0232,2.0232,2.0232,2.0232,2.1051,2.1418,2.1427,2.2148,2.2413,2.2422,2.2422,2.2432,2.2432,2.2432,2.2441,2.2441,2.2441,2.253,2.2706,2.2706,2.2418,2.2006,2.1389,2.1043,2.0713,2.0046,1.9863,1.9863,1.9863,1.9863,1.9863,1.9863,1.9863,1.9863,1.9863,1.9863,1.9863,1.9863,1.9863,1.9863,1.9863,1.9863,1.9863,1.9863,1.9863,2.002,2.0411,2.0333,2.0186,2.0186,2.002,1.9863,1.9863,1.9863,1.9951,2.0108,2.0029,2.002,2.0186,2.0029,1.9863,1.9863,1.9715,1.9566,1.9557,1.939,1.9608,2.0095,2.0079,1.9923,1.9923,1.8787,1.7288,1.5772,0.0,0.0,1.1948,1.1728,1.1628,1.1528,1.1554,0.0,0.0,0.0,0.0,0.0,0.0,0.0,0.0,0.0,0.0,1.9675,1.9769,0.0,2.0266,1.992,1.9637,1.9637,1.8819,1.8265,1.8265,1.7792,1.7598,1.7598,1.7606,1.7598,1.7606,1.8519,1.8972,1.8972,1.9778,2.0232,2.0232,2.0232,2.0232,0.0,2.0322,2.0331,2.0322,2.0249,2.0158,2.0249,2.0962,2.1141,2.132,2.2069,2.2441,2.2441,2.2441,2.2441,2.2441,2.2441,2.2157,2.1741,2.1305,2.0888,2.0552,2.0055,1.9863,1.9863,1.9863,1.9863,1.9863,1.9863,1.9863,1.9863,1.9863,1.9863,1.9863,1.9863,1.9863,1.9863,1.9863,1.9863,1.9863,1.9863,1.9863,1.9942,1.9942,1.9942,1.9942,1.9942,1.9942,1.9784,1.9636,1.9794,1.9872,1.9645,1.9794,1.9942,1.9942,1.9942,1.9794,1.9645,1.9636,1.9478,1.9301,1.9301,1.9301,1.8797,1.8689,1.8378,1.8378,1.7132,1.5679,1.4625,0.0,1.1794,1.1166,1.0702,1.0438,1.0387,1.0336,1.0534,0.0,0.0,0.0,0.0,0.0,0.0,0.0,0.0,0.0,0.0,0.0,1.9354,1.9347,1.8803,1.8411,1.8411,1.8249,1.7994,1.7613,1.7426,1.7326,1.7326,1.7326,1.7326,1.7326,1.7692,1.7878,1.7878,1.8234,1.8419,1.8419,1.8419,1.8419,0.0,1.8964,1.9155,1.9147,1.9505,1.9687,1.9687,1.977,1.9861,1.9827,1.9894,2.0061,2.0305,2.0704,2.081,2.0907,2.1618,2.1588,2.11,2.0523,2.0195,1.9921,1.9585,1.9539,1.9539,1.9539,1.9539,1.9539,1.9539,1.9539,1.9539,1.9539,1.9539,1.9539,1.9539,1.9539,1.9539,1.9539,1.9539,1.9539,1.9539,1.9539,1.9539,1.9539,1.9627,1.9715,1.9715,1.9627,1.946,1.939,1.946,1.9548,1.9566,1.9548,1.9627,1.9715,1.9627,1.9469,1.939,1.939,1.9381,1.9301,1.9301,1.9301,1.7165,1.7189,1.6889,1.6889,1.5823,1.4493,0.0,1.2253,1.1019,1.0407,0.9925,0.9666,0.9821,0.9821,1.0035,0.0,0.0,0.0,0.0,0.0,0.0,0.0,0.0,0.0,0.0,1.7997,1.8329,1.8312,1.7748,1.743,1.7251,1.747,1.7415,1.7047,1.704,1.704,1.704,1.704,1.704,1.704,1.704,1.704,1.704,1.704,1.704,1.704,1.6955,1.6955,0.0,1.7408,1.7583,1.7675,1.8099,1.8273,1.8281,1.8391,1.8367,1.8257,1.8303,1.8359,1.8619,1.9071,1.9171,1.9338,2.0084,2.0201,2.0014,1.9321,1.9129,1.9063,1.8975,1.9134,1.9301,1.9301,1.9301,1.9301,1.9301,1.9301,1.9301,1.9301,1.9301,1.9301,1.9301,1.9301,1.9301,1.9301,1.9301,1.9301,1.9301,1.9301,1.9301,1.9301,1.939,1.9478,1.9478,1.9381,1.9301,1.9301,1.9301,1.9381,1.9478,1.9381,1.939,1.9478,1.939,1.9301,1.9301,1.9301,1.9301,1.9301,1.9301,1.9301,1.5245,1.5444,1.5698,1.5698,1.504,1.4049,1.2932,1.1919,1.0913,0.9836,0.9614,0.9769,1.0293,1.0403,1.0608,1.1167,0.0,0.0,0.0,0.0,0.0,0.0,0.0,0.0,1.4517,1.5937,1.6866,1.7079,1.7079,0.0,1.6463,1.6374,1.6374,1.6374,1.6374,1.6374,1.6374,1.6374,1.6374,1.6374,1.6374,1.6374,1.6374,1.6374,1.6374,1.6374,1.6123,1.6034,0.0,1.5768,1.5768,1.5672,1.5397,1.5301,1.5425,1.653,1.6713,1.6654,1.7869,1.8129,1.7937,1.7929,1.7929,1.7865,1.7496,1.7903,1.8413,1.7552,1.7623,1.7997,1.7997,1.8647,1.9301,1.9301,1.9301,1.9301,1.9301,1.9301,1.9301,1.9301,1.9301,1.9301,1.9301,1.9301,1.9301,1.9301,1.9301,1.9301,1.9301,1.9301,1.9301,1.9301,1.9301,1.9301,1.9301,1.9301,1.9301,1.9301,1.9301,1.9301,1.9301,1.9301,1.9301,1.9301,1.9301,1.9301,1.9301,1.9301,1.9301,1.9301,1.9301,1.9301,1.277,1.2965,1.3028,1.3028,1.2562,1.1898,1.1249,1.0158,0.9263,0.9065,0.8617,0.8339,0.8646,0.8685,0.8957,0.976,0.9821,0.0,0.0,0.0,0.0,0.0,0.0,0.0,0.0,0.0,1.5223,1.5171,1.5014,1.4818,1.473,1.4881,1.5476,1.6352,1.6367,1.6367,1.6367,1.6367,1.6367,1.6367,1.6367,1.6286,1.6116,1.6116,1.602,1.5931,1.5842,1.5761,1.5754,1.5569,1.539,1.539,1.5218,1.5136,1.5143,1.55,1.5569,1.5466,1.5613,1.5825,1.597,1.6436,1.6533,1.6425,1.6397,1.7038,1.7587,1.7004,1.7024,1.7107,1.7107,1.735,1.7513,1.7513,1.7513,1.7513,1.7513,1.7513,1.7513,1.7513,1.7513,1.7513,1.7513,1.7513,1.7513,1.7513,1.7513,1.7513,1.7513,1.7513,1.7513,1.7513,1.7513,1.7997,1.9222,1.9301,1.9301,1.9301,1.9301,1.9301,1.9301,1.9301,1.9301,1.9301,1.9301,1.9301,1.9301,1.9301,1.9301,1.9301,1.9301,1.9301,0.0,1.1262,1.1451,1.1526,1.1094,1.0476,1.005,0.9052,0.823,0.8208,0.781,0.7578,0.8003,0.8111,0.8357,0.9234,0.9173,0.0,0.0,0.0,0.0,0.0,0.0,0.0,0.0,1.3662,1.379,1.3969,1.3835,1.3745,1.3745,1.3907,1.4399,1.5207,1.5749,1.6016,1.6016,1.6016,1.6009,1.5922,1.5922,1.5756,1.5489,1.5489,1.5409,1.5315,1.5228,1.5228,0.0,1.4966,1.4878,1.4791,1.4717,1.4629,1.4643,1.4756,1.473,1.4623,1.4549,1.4569,1.4771,1.5169,1.5191,1.5191,1.5269,1.5687,1.6057,1.5778,1.5966,1.6214,1.6214,1.6453,1.6698,1.6698,1.6698,1.6698,1.6698,1.6698,1.6698,1.6698,1.6698,1.6698,1.6698,1.6698,1.6698,1.6698,1.6698,1.6698,1.6698,1.6698,1.6698,1.6698,1.6698,1.7107,1.8247,1.8318,1.8318,1.8318,1.8318,1.8318,1.8318,1.8318,1.8318,1.8318,1.8647,1.8647,1.8318,1.8647,1.8975,1.9301,1.9301,1.9301,0.0,1.0127,1.0578,1.0854,1.0356,0.9688,0.9165,0.8475,0.0,0.729,0.7188,0.74,0.8191,0.8343,0.8595,0.9384,0.9088,0.0,0.0,0.0,0.0,0.0,0.0,0.0,1.1904,1.2143,1.2619,1.3222,1.3222,1.3222,1.3222,1.3307,1.3307,1.3307,1.4489,1.5257,1.5347,1.5347,1.5257,1.509,1.509,1.4915,1.465,1.465,1.465,0.0,1.4482,1.4398,1.4398,1.4166,1.4088,1.4088,1.4088,1.4088,1.4122,1.4389,1.4315,1.4128,1.4396,1.4315,1.4088,1.4088,1.4088,1.4088,1.4088,1.4088,1.4088,1.4088,1.4657,1.5311,1.5311,1.5884,1.6535,1.6535,1.6535,1.6535,1.6535,1.6535,1.6535,1.6535,1.6535,1.6535,1.6535,1.6535,1.6535,1.6535,1.6535,1.6535,1.6535,1.6535,1.6535,1.6535,1.6535,1.6535,1.6535,1.6617,1.6698,1.6698,1.6698,1.6698,1.6698,1.6698,1.6698,1.6698,1.7513,1.7513,1.6698,1.7504,1.8327,1.9222,1.9222,1.9222,0.6787,0.0,0.7933,0.8104,0.8013,0.7817,0.0,0.7364,0.7096,0.0,0.0,0.0,0.766,0.7797,0.7953,0.8391,0.8532,0.8609,0.0,0.0,0.0,0.0,0.0,1.1203,1.1428,1.1488,1.1607,1.1774,1.178,1.178,1.178,1.2369,1.2448,1.2106,1.2857,1.3704,1.4398,1.4398,1.4566,1.4824,1.4824,1.465,1.4482,1.4482,1.4405,1.425,1.4166,1.4166,1.4166,1.4088,1.4088,1.4088,1.4088,1.4088,1.4095,1.4162,1.4142,1.4095,1.4168,1.4142,1.4088,1.4088,1.4088,1.4088,1.4088,1.4088,1.4088,1.4088,1.425,1.4419,1.4419,1.458,1.4741,1.4741,1.4741,1.4741,1.4741,1.4741,1.4741,1.4741,1.4741,1.4741,1.4741,1.4741,1.4741,1.4741,1.4741,1.4741,1.4741,1.4741,1.4741,1.4741,1.4741,1.4741,1.4741,1.5966,1.6698,1.6698,1.6698,1.6698,1.6698,1.6698,1.6698,1.6698,1.6862,1.6862,1.6698,1.6944,1.7423,1.8327,1.8327,1.8647,0.5568,0.6177,0.6801,0.7132,0.7097,0.7008,0.7008,0.0,0.0,0.0,0.0,0.0,0.0,0.0,0.0,0.0,0.8126,0.0,0.0,0.0,0.0,0.0,0.0,1.1262,0.0,1.1084,1.0992,1.0992,1.0824,1.0738,1.0738,1.1073,1.1154,1.0901,1.1235,1.1997,1.3105,1.3105,1.319,1.336,1.336,1.319,1.2948,1.2948,1.3124,1.3483,1.3483,1.3737,1.4088,1.4088,1.4088,1.4088,1.4088,1.4088,1.4088,1.4088,1.4088,1.4088,1.4088,1.4088,1.4088,1.3997,1.3913,1.3913,1.3828,1.3743,1.3828,1.4004,1.4088,1.4088,1.4088,1.4088,1.4088,1.4088,1.4088,1.4088,1.4088,1.4088,1.4088,1.4088,1.4088,1.4088,1.4088,1.4088,1.4088,1.4088,1.4088,1.4088,1.4088,1.4088,1.4088,1.4088,1.4088,1.4088,1.4088,1.4985,1.5477,1.5477,1.5477,1.5477,1.5477,1.5477,1.5718,1.6131,1.5718,1.5884,1.6698,1.6288,1.6535,1.7432,1.7432,1.7674,0.5104,0.5694,0.6384,0.6873,0.689,0.6798,0.6758,0.0,0.0,0.0,0.0,0.0,0.0,0.0,0.0,0.0,0.0,0.0,0.0,0.0,0.0,0.0,0.0,0.0,1.1089,1.0733,1.0549,1.0549,1.0207,1.0038,1.0038,1.0038,0.9951,0.9864,0.9864,1.0376,1.1477,1.1649,1.1735,1.1649,1.1649,1.1483,1.1327,1.1327,1.1757,1.2534,1.2534,0.0,1.3652,1.3828,1.3913,1.3913,1.4004,1.4088,1.4088,1.4082,1.4004,1.4004,1.4004,1.3997,1.3997,1.3737,1.3652,1.3652,1.3476,1.3398,1.3483,1.3913,1.3997,1.3997,1.3997,1.3997,1.4004,1.4004,1.4004,1.4082,1.4088,1.4088,1.4082,1.4088,1.4088,1.4088,1.4088,1.4088,1.4088,1.4082,1.4004,1.4004,1.4004,1.3997,1.4004,1.4004,1.4088,1.4088,1.4088,1.4088,1.4088,1.4088,1.4088,1.4088,1.4088,1.4088,1.4412,1.5151,1.4496,1.4824,1.6288,1.556,1.5636,1.6453,1.6453,1.6527,0.5132,0.5528,0.5831,0.5899,0.6316,0.665,0.6493,0.0,0.0,0.0,0.0,0.0,0.0,0.0,0.0,0.0,0.0,0.0,0.0,0.0,0.0,0.0,0.0,1.0554,1.0212,1.0125,1.0125,1.0125,1.0038,1.0038,1.0038,1.0038,0.9777,0.9437,0.9432,0.9345,0.9082,1.0289,1.0977,1.1322,1.1322,1.1322,1.1327,1.1327,1.1413,1.1499,0.0,1.1585,1.1757,1.2619,1.2875,1.2966,1.3828,1.4088,1.4088,1.3822,1.3737,1.3737,1.3568,1.3483,1.3483,1.3483,1.3476,1.3483,1.3398,1.3398,1.3398,1.3483,1.3483,1.3483,1.3483,1.3652,1.3737,1.3737,1.3737,1.3822,1.4082,1.3913,1.3828,1.4088,1.4088,1.4088,1.4088,1.4088,1.3997,1.3828,1.3737,1.3737,1.3568,1.3652,1.3737,1.3737,1.3997,1.4088,1.4088,1.4088,1.4088,1.4088,1.4088,1.4088,1.4088,1.4088,1.4166,1.4334,1.4173,1.425,1.4496,1.4334,1.465,1.5289,1.5289,1.5613,0.4368,0.4792,0.5162,0.5132,0.5898,0.6685,0.658,0.0,0.0,0.0,0.0,0.0,0.0,0.0,0.0,0.0,0.0,0.0,0.0,0.0,0.0,0.0,0.0,0.9863,0.97,0.9447,0.9283,0.9283,0.9127,0.9051,0.8941,0.9143,0.9126,0.8763,0.886,0.8828,0.8568,0.9078,0.9506,0.9864,0.9864,0.9864,0.9864,0.9864,1.012,1.0549,0.0,1.0804,1.1322,1.166,1.1746,1.1832,1.2083,1.2522,1.3045,1.3398,1.3561,1.3483,1.3398,1.3398,1.3398,1.3307,1.3222,1.3222,1.3052,1.3052,1.3052,1.3052,1.3222,1.3398,1.3398,1.3483,1.3561,1.3561,1.3561,1.3568,1.3737,1.3652,1.3561,1.3737,1.3743,1.3743,1.3743,1.3743,1.3652,1.3568,1.3561,1.3483,1.3398,1.3476,1.3561,1.3561,1.3652,1.3743,1.3743,1.3743,1.3828,1.4088,1.4088,1.4088,1.4088,1.4088,1.4088,1.4088,1.4088,1.4004,1.3906,1.3906,1.3984,1.4139,1.4139,1.43,0.3822,0.4262,0.4728,0.4782,0.0,0.6477,0.6535,0.0,0.0,0.0,0.0,0.0,0.0,0.0,0.0,0.0,0.0,0.0,0.0,0.0,0.903,0.8946,0.9128,0.9164,0.9082,0.8759,0.8513,0.8513,0.8313,0.8162,0.802,0.8284,0.8287,0.8147,0.8279,0.8356,0.8356,0.8088,0.8214,0.8476,0.8476,0.8476,0.8476,0.8476,0.8819,0.9423,0.9423,0.9854,1.0544,1.0529,1.0616,1.0616,1.0611,1.1047,1.1752,1.2619,1.2966,1.296,1.3137,1.3222,1.3222,1.3052,1.3052,1.2966,1.279,1.2705,1.2705,1.2705,1.2966,1.3222,1.3222,1.3307,1.3307,1.3307,1.3307,1.3313,1.3392,1.3392,1.3313,1.3392,1.3398,1.3398,1.3398,1.3398,1.3398,1.3313,1.3307,1.3307,1.3222,1.3307,1.3307,1.3307,1.3398,1.3398,1.3398,1.3398,1.3568,1.3913,1.3913,1.3913,1.3913,1.3913,1.3913,1.3913,1.3913,1.3828,1.3652,1.3652,1.3568,1.3307,1.3307,1.3307,0.4233,0.4519,0.48,0.524,0.0,0.0,0.6114,0.0,0.0,0.0,0.0,0.0,0.0,0.0,0.0,0.0,0.0,0.0,0.0,0.0,0.8946,0.8462,0.864,0.8595,0.8176,0.8094,0.8012,0.8012,0.8028,0.8028,0.8012,0.7879,0.7722,0.771,0.756,0.7488,0.7488,0.7484,0.772,0.8201,0.8028,0.7944,0.7944,0.7944,0.794,0.8028,0.8028,0.8116,0.8204,0.8978,0.9318,0.9405,1.0269,1.0524,1.0534,1.1494,1.1671,1.1585,1.2443,1.279,1.279,1.2705,1.2705,1.2705,1.2705,1.2705,1.2705,1.2705,1.2705,1.279,1.279,1.2966,1.3137,1.3137,1.3137,1.3143,1.3392,1.3222,1.3137,1.3392,1.3398,1.3398,1.3398,1.3398,1.3313,1.3137,1.3137,1.3052,1.279,1.2966,1.3137,1.3137,1.3313,1.3398,1.3398,1.3398,1.3398,1.3483,1.3483,1.3483,1.3483,1.3483,1.3483,1.3483,1.3483,1.3483,1.3392,1.3392,1.3313,1.3137,1.3137,1.2966,0.3612,0.3969,0.4323,0.4626,0.0,0.0,0.0,0.0,0.0,0.0,0.0,0.0,0.0,0.0,0.0,0.0,0.0,0.0,0.7766,0.7854,0.7823,0.7504,0.7564,0.7525,0.7367,0.7284,0.7284,0.7284,0.7385,0.74,0.7292,0.7411,0.748,0.7292,0.7394,0.7368,0.7368,0.7281,0.734,0.7543,0.7547,0.7554,0.7554,0.7554,0.7554,0.7558,0.7655,0.7696,0.7703,0.8066,0.8113,0.8197,0.8973,0.9235,0.9323,1.0188,1.0534,1.0448,1.088,1.1316,1.1843,1.1843,1.2186,1.2705,1.2705,1.2705,1.2705,1.2705,1.2705,1.2705,1.2705,1.279,1.2875,1.2875,1.2875,1.2881,1.296,1.2875,1.2875,1.296,1.296,1.296,1.296,1.296,1.296,1.2875,1.2875,1.279,1.2705,1.279,1.2875,1.2875,1.2875,1.296,1.296,1.296,1.296,1.296,1.3222,1.3398,1.3398,1.3398,1.3398,1.3398,1.3398,1.3313,1.3222,1.3222,1.3052,1.2875,1.2875,1.279,0.3086,0.3493,0.4015,0.0,0.0,0.0,0.0,0.0,0.0,0.0,0.0,0.0,0.0,0.0,0.0,0.0,0.0,0.0,0.7145,0.7103,0.7022,0.6942,0.6865,0.6865,0.6865,0.6865,0.6865,0.6865,0.6969,0.6984,0.6868,0.7085,0.7079,0.6961,0.6991,0.7053,0.7053,0.6799,0.6715,0.6715,0.6803,0.6941,0.7199,0.7199,0.7199,0.7206,0.7312,0.7355,0.7282,0.7225,0.7299,0.7348,0.7826,0.8017,0.8189,0.9144,0.9492,0.9488,0.9836,1.0361,1.0885,1.0885,1.1316,1.1832,1.2186,1.2272,1.2357,1.2619,1.2705,1.2705,1.2705,1.2705,1.2705,1.2705,1.2705,1.2705,1.2705,1.2705,1.2705,1.2705,1.2705,1.2705,1.2705,1.2705,1.2705,1.2705,1.2705,1.2705,1.2705,1.2705,1.2705,1.2705,1.2705,1.2705,1.2705,1.2705,1.2705,1.2705,1.296,1.3222,1.3222,1.3222,1.3222,1.3222,1.3222,1.3137,1.2966,1.2966,1.2881,1.2705,1.2705,1.2705,0.2893,0.3267,0.0,0.0,0.0,0.0,0.0,0.0,0.0,0.0,0.0,0.0,0.0,0.0,0.0,0.0,0.6376,0.6488,0.6812,0.6861,0.6861,0.6861,0.6861,0.6861,0.6861,0.6861,0.6861,0.6861,0.6861,0.6861,0.6861,0.6714,0.6563,0.6563,0.6412,0.6261,0.6261,0.6022,0.5864,0.586,0.5712,0.6013,0.6698,0.6698,0.6698,0.6698,0.6698,0.6698,0.6698,0.6702,0.679,0.6943,0.7082,0.7139,0.7228,0.8105,0.8456,0.8627,0.9579,0.9836,0.9923,0.9923,0.9923,1.0096,1.0971,1.1327,1.1494,1.2448,1.2705,1.2705,1.2705,1.2705,1.2705,1.2705,1.2705,1.2705,1.2705,1.2705,1.2705,1.2705,1.2705,1.2705,1.2705,1.2705,1.2705,1.2705,1.2705,1.2705,1.2705,1.2705,1.2705,1.2705,1.2705,1.2705,1.2705,1.2705,1.2705,1.2705,1.2705,1.2705,1.2705,1.2705,1.2705,1.2705,1.2705,1.2705,1.2705,1.2705,1.2705,1.2705,1.2705,1.2705,0.2205,0.0,0.0,0.0,0.0,0.0,0.0,0.0,0.0,0.0,0.0,0.0,0.0,0.0,0.0,0.6248,0.6282,0.6324,0.6421,0.6464,0.6432,0.6234,0.617,0.6173,0.6022,0.6022,0.6022,0.6022,0.6022,0.6022,0.6022,0.5944,0.587,0.587,0.587,0.5792,0.5792,0.5715,0.5712,0.5712,0.5637,0.568,0.5915,0.6067,0.6146,0.6152,0.6414,0.6539,0.6549,0.6658,0.6725,0.6783,0.6932,0.6993,0.7004,0.7365,0.7489,0.7492,0.7665,0.8185,0.8703,0.8444,0.8965,0.9836,1.0616,1.1058,1.1413,1.2032,1.2369,1.2448,1.2448,1.2369,1.2289,1.2619,1.2705,1.2705,1.2705,1.2705,1.2705,1.2705,1.2705,1.2705,1.2705,1.2705,1.2705,1.2705,1.2705,1.2705,1.2705,1.2705,1.2705,1.2705,1.2705,1.2705,1.2705,1.2705,1.2705,1.2705,1.2705,1.2705,1.2705,1.2705,1.2705,1.2705,1.2705,1.2705,1.2705,1.2705,1.2705,1.2705,1.2705,1.2619,0.2142,0.0,0.0,0.0,0.0,0.0,0.0,0.0,0.0,0.0,0.0,0.0,0.0,0.0,0.0,0.591,0.5724,0.5667,0.6131,0.5865,0.56,0.577,0.5698,0.5623,0.5475,0.5524,0.5533,0.5478,0.5576,0.5613,0.5561,0.5607,0.5637,0.5637,0.5637,0.5637,0.5637,0.5559,0.5479,0.5479,0.5404,0.5326,0.5404,0.5634,0.5789,0.5792,0.6031,0.6149,0.6162,0.6303,0.6365,0.6378,0.6525,0.6583,0.66,0.6743,0.6792,0.6802,0.6684,0.7048,0.7482,0.7305,0.7746,0.844,0.9222,0.9662,1.0101,1.1149,1.158,1.1752,1.2106,1.2123,1.2123,1.2448,1.254,1.2454,1.2454,1.2454,1.2454,1.2534,1.2448,1.2454,1.2705,1.2619,1.2619,1.2705,1.2705,1.2705,1.2705,1.2705,1.2705,1.2705,1.2705,1.2705,1.2705,1.2705,1.2705,1.2705,1.2705,1.2705,1.2705,1.2705,1.2705,1.2705,1.2705,1.2705,1.2705,1.2619,1.2619,1.2619,1.2454,1.2369,0.0,0.0,0.0,0.0,0.0,0.0,0.0,0.0,0.0,0.0,0.0,0.0,0.0,0.0,0.5406,0.5477,0.4942,0.485,0.5779,0.5069,0.464,0.5463,0.5381,0.5228,0.5228,0.5344,0.5362,0.5237,0.5385,0.5469,0.542,0.5457,0.5523,0.5523,0.5523,0.5523,0.5523,0.5289,0.5214,0.5226,0.4999,0.4929,0.4937,0.5404,0.5559,0.5637,0.5637,0.5637,0.5646,0.5765,0.5891,0.5907,0.6046,0.6099,0.6117,0.6257,0.6309,0.6325,0.6355,0.6313,0.6322,0.631,0.6322,0.6517,0.7464,0.7735,0.8181,0.9918,1.0438,1.0702,1.1596,1.1866,1.1866,1.2283,1.2118,1.2043,1.2043,1.2043,1.2037,1.2283,1.2203,1.2123,1.254,1.2448,1.2448,1.2619,1.2705,1.2705,1.2705,1.2705,1.2705,1.2705,1.2705,1.2705,1.2705,1.2705,1.2705,1.2705,1.2705,1.2619,1.2619,1.2619,1.2705,1.2705,1.2619,1.2619,1.2619,1.2448,1.2363,1.2363,1.2118,1.1957,0.0,0.0,0.0,0.0,0.0,0.0,0.0,0.0,0.0,0.0,0.0,0.0,0.0,0.4897,0.4906,0.4937,0.495,0.5002,0.5418,0.4294,0.3897,0.4934,0.5093,0.5017,0.487,0.482,0.4826,0.4798,0.4848,0.4865,0.484,0.4862,0.4876,0.4876,0.4727,0.4654,0.4654,0.4436,0.4407,0.4498,0.4498,0.4464,0.4543,0.5087,0.5479,0.5637,0.5637,0.5637,0.564,0.5668,0.568,0.5692,0.5904,0.5956,0.5972,0.6111,0.6164,0.6083,0.5945,0.5934,0.5999,0.5729,0.5832,0.6325,0.6997,0.7472,0.7921,0.8711,0.9061,0.9497,1.0376,1.0467,1.0641,1.1602,1.1957,1.2043,1.2043,1.2043,1.2043,1.2037,1.2037,1.2043,1.2123,1.2123,1.2203,1.2454,1.2448,1.2534,1.2705,1.2705,1.2705,1.2705,1.2705,1.2705,1.2705,1.2705,1.2619,1.2448,1.2448,1.2369,1.2123,1.2369,1.2448,1.2448,1.2289,1.2123,1.2123,1.2123,1.2123,1.2037,1.2043,1.1957,0.0,0.0,0.0,0.0,0.0,0.0,0.0,0.0,0.0,0.0,0.0,0.0,0.0,0.4831,0.4831,0.4906,0.4573,0.4602,0.5222,0.3701,0.3027,0.4413,0.463,0.4624,0.4555,0.4466,0.4331,0.392,0.4229,0.4267,0.3852,0.4188,0.4437,0.4437,0.4292,0.429,0.429,0.4147,0.4106,0.4235,0.4235,0.4187,0.4239,0.4647,0.501,0.5168,0.5168,0.5249,0.5326,0.5326,0.5326,0.5335,0.5398,0.5501,0.5518,0.5644,0.5691,0.5618,0.5601,0.5577,0.5619,0.5474,0.5537,0.5803,0.6157,0.6484,0.6853,0.7548,0.7869,0.8281,0.9152,0.9331,0.9419,1.0033,1.0906,1.1699,1.1699,1.1699,1.1699,1.1871,1.1785,1.1699,1.1957,1.2043,1.2043,1.2203,1.2203,1.2289,1.2375,1.2369,1.2369,1.2369,1.2369,1.2369,1.2369,1.2369,1.2289,1.2203,1.2203,1.2123,1.2043,1.2032,1.2118,1.2203,1.2037,1.2043,1.2043,1.1871,1.1871,1.1871,1.1699,1.1607,0.0,0.0,0.0,0.0,0.0,0.0,0.0,0.0,0.0,0.0,0.0,0.0,0.4665,0.4683,0.4767,0.4849,0.3969,0.3636,0.459,0.2958,0.2149,0.35,0.3899,0.3964,0.3828,0.4046,0.3783,0.3021,0.3639,0.3768,0.3122,0.3688,0.4023,0.4023,0.4023,0.4023,0.4023,0.3951,0.396,0.3977,0.3998,0.4005,0.401,0.4178,0.4419,0.4595,0.4613,0.4779,0.4859,0.4859,0.4859,0.4859,0.4859,0.4859,0.4948,0.5042,0.5074,0.509,0.5189,0.524,0.5336,0.5314,0.5336,0.5366,0.5344,0.5423,0.5692,0.6484,0.6747,0.7021,0.8009,0.8281,0.8281,0.8456,0.9685,1.0824,1.1003,1.1089,1.1176,1.1527,1.144,1.1435,1.178,1.1866,1.1871,1.1957,1.1957,1.1957,1.2043,1.2043,1.2043,1.2043,1.2043,1.2043,1.2043,1.2043,1.1957,1.1957,1.1957,1.1957,1.1866,1.1699,1.1699,1.1871,1.1866,1.1866,1.1866,1.1699,1.1613,1.1613,1.1435,1.1262,0.0,0.0,0.0,0.0,0.0,0.0,0.0,0.0,0.0,0.0,0.0,0.0,0.4282,0.4301,0.437,0.4381,0.296,0.1951,0.2085,0.1412,0.0941,0.1143,0.2216,0.2684,0.2012,0.3096,0.3572,0.282,0.3446,0.3794,0.371,0.3792,0.3869,0.3869,0.3668,0.3603,0.3603,0.3398,0.337,0.3523,0.3534,0.3572,0.3572,0.3597,0.3874,0.4339,0.4426,0.4462,0.4462,0.4462,0.4462,0.4462,0.4462,0.4462,0.4465,0.4477,0.4482,0.4487,0.4499,0.4728,0.4958,0.4857,0.5038,0.5349,0.5243,0.5295,0.5415,0.5604,0.5731,0.5941,0.7017,0.7316,0.7492,0.8281,0.8719,0.9069,0.9946,1.012,1.0299,1.1176,1.1348,1.1348,1.1354,1.1348,1.1435,1.1699,1.1699,1.1785,1.1957,1.2043,1.2043,1.2043,1.2043,1.2043,1.2043,1.2043,1.1957,1.1785,1.1699,1.1613,1.1435,1.1348,1.1348,1.1348,1.1348,1.1348,1.1348,1.1348,1.1354,1.1354,1.1354,1.1262,0.0,0.0,0.0,0.0,0.0,0.0,0.0,0.0,0.0,0.0,0.0,0.2582,0.2752,0.2789,0.2764,0.2553,0.1837,0.1057,0.0201,0.0471,0.0672,0.0672,0.1544,0.1945,0.1609,0.248,0.2683,0.1945,0.2885,0.3291,0.2952,0.3291,0.3493,0.3493,0.336,0.3362,0.3362,0.3228,0.3111,0.3012,0.3048,0.2927,0.2792,0.2834,0.3254,0.4004,0.4102,0.4222,0.4382,0.4361,0.4384,0.4384,0.4384,0.4384,0.4384,0.4384,0.4384,0.4384,0.4384,0.4494,0.4607,0.4557,0.4686,0.4836,0.4785,0.4849,0.4951,0.5002,0.506,0.5122,0.5595,0.5781,0.5866,0.6291,0.6373,0.6649,0.7677,0.8558,0.9419,1.0299,1.0911,1.1262,1.1262,1.1262,1.1354,1.144,1.144,1.1527,1.1613,1.1607,1.1607,1.1607,1.1607,1.1607,1.1607,1.1607,1.1607,1.144,1.144,1.144,1.1262,1.1262,1.1262,1.1262,1.1262,1.1262,1.1262,1.1262,1.1262,1.1262,1.1262,1.117,0.0,0.0,0.0,0.0,0.0,0.0,0.0,0.0,0.0,0.0,0.0,0.0526,0.0956,0.1276,0.1301,0.0698,0.0573,0.0193,-0.0921,-0.0329,0.0263,0.0263,0.0854,0.1119,0.0929,0.1594,0.1732,0.1005,0.2214,0.2753,0.2214,0.2753,0.3092,0.3092,0.2958,0.296,0.296,0.296,0.2824,0.2554,0.2554,0.242,0.2223,0.2269,0.2665,0.3432,0.3645,0.3856,0.4166,0.419,0.4229,0.4229,0.4229,0.4229,0.4229,0.4229,0.4229,0.4229,0.4229,0.4307,0.4309,0.4309,0.4384,0.4384,0.4384,0.4439,0.4588,0.4617,0.4601,0.4668,0.4696,0.4703,0.4703,0.4703,0.4703,0.4982,0.6111,0.7458,0.8627,0.9419,1.012,1.0559,1.0559,1.0824,1.0911,1.0911,1.1176,1.1262,1.1262,1.1262,1.1262,1.117,1.1084,1.1084,1.0997,1.1003,1.1003,1.1003,1.1003,1.1003,1.1003,1.1003,1.1003,1.0911,1.1003,1.1089,1.1262,1.1176,1.1084,1.1084,1.1003,1.0819,0.0,0.0,0.0,0.0,0.0,0.0,0.0,0.0,0.0,0.0,-0.0842,-0.0788,-0.0789,0.0118,0.0493,-0.0618,-0.0867,-0.0929,-0.0993,-0.093,-0.093,-0.093,-0.0248,-0.0125,-0.0775,0.0388,0.0849,0.0134,0.141,0.2214,0.2214,0.2551,0.2753,0.2753,0.2421,0.2221,0.2221,0.2221,0.2221,0.2221,0.2221,0.2221,0.2221,0.2225,0.2228,0.2309,0.286,0.3328,0.3634,0.3803,0.3841,0.3841,0.3841,0.3841,0.3841,0.3841,0.3841,0.3841,0.3841,0.3921,0.4079,0.4079,0.4231,0.4384,0.4384,0.4387,0.4413,0.4596,0.4629,0.4656,0.4677,0.4703,0.4703,0.4703,0.4703,0.5066,0.6275,0.7454,0.8273,0.8544,0.8632,0.8632,0.8632,0.9419,0.9946,0.9946,1.0738,1.1262,1.1262,1.1262,1.117,1.0636,1.0636,1.0467,1.0125,1.0038,1.0038,1.0038,1.0038,1.0038,1.0038,1.0038,1.0038,0.9946,1.0038,1.0477,1.1262,1.0814,1.0636,1.0636,1.0212,1.0038,0.0,0.0,0.0,0.0,0.0,0.0,0.0,0.0,0.0,0.0,-0.0884,-0.0954,-0.101,-0.0628,-0.0409,-0.0836,-0.0899,-0.0966,-0.0986,-0.0988,-0.0988,-0.0988,-0.0864,-0.0868,-0.1129,-0.0376,0.0063,-0.0063,0.0762,0.127,0.1335,0.1652,0.1844,0.1844,0.2009,0.218,0.222,0.2221,0.2087,0.1817,0.1817,0.1681,0.148,0.148,0.1614,0.1821,0.212,0.24,0.2808,0.288,0.3093,0.3374,0.3374,0.353,0.3763,0.3763,0.3763,0.3763,0.3763,0.3843,0.3921,0.3921,0.3919,0.3995,0.3995,0.3995,0.4003,0.4038,0.4049,0.4055,0.409,0.4101,0.4101,0.4101,0.4146,0.4365,0.4971,0.6068,0.6841,0.6929,0.7521,0.8021,0.8021,0.8281,0.8703,0.9152,0.9506,0.9946,1.0386,1.0477,1.0386,1.0207,1.0207,1.0125,1.0038,1.0038,1.0038,1.0038,1.0038,1.0038,1.0038,1.0038,0.9951,0.9951,0.9951,1.0125,1.0477,1.0299,1.0207,1.0207,1.0038,0.9868,-0.0391,0.0,0.0,0.0,0.0,0.0,0.0,0.0,0.0,0.0,-0.0931,-0.101,-0.1066,-0.1066,-0.1018,-0.0982,-0.0986,-0.0994,-0.0955,-0.1018,-0.1018,-0.1018,-0.1138,-0.1262,-0.1276,-0.0971,-0.067,-0.0554,-0.0,0.0,0.0431,0.08,0.0985,0.1047,0.132,0.1612,0.1793,0.1793,0.1666,0.1412,0.1412,0.1344,0.1076,0.1076,0.121,0.1413,0.1509,0.1825,0.2305,0.2439,0.2654,0.2869,0.2869,0.3117,0.3372,0.3372,0.3372,0.3372,0.3372,0.3372,0.3372,0.3372,0.3372,0.3372,0.3372,0.3372,0.3372,0.3372,0.3372,0.3372,0.3372,0.345,0.353,0.353,0.373,0.3932,0.409,0.4841,0.5524,0.561,0.6179,0.6678,0.6728,0.707,0.7498,0.7994,0.8356,0.8794,0.9506,0.9598,0.9685,0.9781,0.9781,0.9694,0.9519,0.9519,0.9519,0.9519,0.9519,0.9519,0.9519,0.9519,0.9519,0.9519,0.9519,0.9519,0.9519,0.9694,0.9781,0.9781,0.9607,0.9345,0.0,0.0,0.0,0.0,0.0,0.0,0.0,0.0,0.0,-0.0894,-0.1037,-0.1119,-0.112,-0.1233,-0.129,-0.1122,-0.1122,-0.1066,-0.0954,-0.101,-0.1122,-0.1122,-0.1234,-0.1307,-0.1409,-0.1413,-0.1431,-0.1415,-0.0799,-0.0429,-0.0429,-0.0061,0.0184,0.0247,0.0308,0.0501,0.0968,0.0968,0.0981,0.1074,0.1074,0.1075,0.1076,0.1076,0.1076,0.1076,0.1076,0.157,0.2247,0.2303,0.2436,0.2492,0.2492,0.2455,0.2507,0.2507,0.251,0.2511,0.2511,0.2511,0.2511,0.2511,0.2511,0.2511,0.2511,0.2511,0.2511,0.2511,0.2511,0.2511,0.2511,0.2826,0.3062,0.3062,0.3452,0.3763,0.3763,0.4061,0.4439,0.461,0.4696,0.473,0.4834,0.5623,0.6263,0.6386,0.7102,0.7983,0.8703,0.8882,0.8978,0.9257,0.9262,0.9087,0.8656,0.8568,0.8568,0.8568,0.8568,0.8568,0.8568,0.8568,0.8568,0.8568,0.8568,0.8568,0.8568,0.9087,0.9262,0.9262,0.8828,0.8568,-0.055,0.0,0.0,0.0,0.0,0.0,0.0,0.0,0.0,-0.0976,-0.1094,-0.1206,-0.1345,-0.1435,-0.1515,-0.1459,-0.1347,-0.1234,-0.1178,-0.1234,-0.1234,-0.1234,-0.1403,-0.1521,-0.1536,-0.1651,-0.1657,0.0,-0.1442,-0.1383,-0.1268,-0.0922,-0.0582,-0.0239,-0.0179,-0.0121,-0.0,0.0313,0.0508,0.0588,0.0914,0.1056,0.1076,0.1076,0.1076,0.1076,0.1076,0.1215,0.1432,0.1471,0.1655,0.1989,0.1989,0.2168,0.2522,0.2522,0.2473,0.2511,0.2511,0.2511,0.2511,0.2511,0.2511,0.2511,0.2511,0.2511,0.2511,0.2511,0.2511,0.2511,0.2511,0.2589,0.2668,0.2668,0.2746,0.2823,0.2823,0.2932,0.3199,0.3918,0.4053,0.4108,0.4136,0.4446,0.4835,0.5371,0.5709,0.6166,0.6956,0.7486,0.788,0.8006,0.8468,0.874,0.8568,0.8568,0.8568,0.8568,0.8568,0.8568,0.8568,0.8568,0.8568,0.8568,0.8568,0.8568,0.8568,0.874,0.8828,0.8828,0.8652,0.8568,0.0,0.0,0.0,0.0,0.0,0.0,-0.0881,-0.0905,0.0,0.0,-0.1038,-0.1246,-0.1345,-0.1484,-0.1621,-0.1645,-0.1539,-0.1435,-0.1288,-0.1347,-0.1403,-0.1403,-0.1572,-0.1685,-0.1685,-0.1741,-0.1741,-0.1685,-0.1741,-0.1741,-0.1685,-0.1515,-0.1189,-0.0692,-0.0808,-0.082,-0.0544,-0.0302,-0.0123,-0.0063,0.0449,0.0782,0.0793,0.1003,0.1076,0.1076,0.1077,0.1077,0.1077,0.1096,0.1261,0.1506,0.1506,0.1676,0.1939,0.196,0.1985,0.1936,0.1956,0.1962,0.1962,0.1962,0.1962,0.1962,0.1962,0.1962,0.1962,0.1962,0.1962,0.1962,0.1962,0.2118,0.2275,0.2275,0.2353,0.2511,0.2511,0.2511,0.2668,0.3374,0.341,0.3454,0.3812,0.3779,0.3904,0.4527,0.4615,0.4888,0.5453,0.5966,0.6336,0.6592,0.7297,0.7815,0.7994,0.8166,0.8369,0.8446,0.845,0.8483,0.8468,0.8472,0.8384,0.83,0.83,0.83,0.83,0.8384,0.8384,0.83,0.83,0.83,0.0,0.0,0.0,0.0,0.0,0.0,-0.0934,-0.0967,-0.0959,0.0,0.0,-0.1275,-0.1229,-0.1396,-0.1623,-0.1677,-0.1698,-0.1618,-0.1397,-0.1515,-0.1628,-0.1628,-0.1741,-0.1797,-0.1797,-0.1797,-0.1797,-0.1797,-0.1797,-0.1797,-0.1797,-0.1797,-0.1628,-0.1234,-0.1512,-0.1475,-0.0993,-0.0935,-0.095,-0.0919,-0.0126,0.0257,0.0323,0.0728,0.1005,0.1076,0.1078,0.1078,0.1009,0.1078,0.1094,0.1117,0.1117,0.1135,0.1165,0.1192,0.1204,0.1211,0.1241,0.1252,0.1253,0.1335,0.1335,0.1335,0.1335,0.1335,0.1335,0.1335,0.1335,0.1335,0.1335,0.157,0.1803,0.1803,0.2118,0.2354,0.2354,0.2354,0.2511,0.2904,0.2746,0.2764,0.3628,0.3478,0.3339,0.3745,0.3839,0.3922,0.4255,0.4338,0.4675,0.5272,0.5933,0.6516,0.694,0.7518,0.7915,0.8167,0.8195,0.8185,0.8162,0.8189,0.8113,0.7944,0.7944,0.7856,0.7856,0.8025,0.8113,0.7944,0.7944,0.7944,0.0,0.0,0.0,0.0,0.0,0.0,-0.1031,-0.1287,-0.1449,0.0,-0.1425,-0.1615,-0.1341,-0.1429,-0.1546,-0.1557,-0.1642,-0.1728,-0.1677,-0.1741,-0.1741,-0.1741,-0.1797,-0.1797,-0.1797,-0.1797,-0.1797,-0.1797,-0.1797,-0.1797,-0.1797,-0.1797,-0.1852,-0.1961,-0.2071,-0.2133,-0.2319,-0.1977,-0.1781,-0.1781,-0.1253,-0.0737,-0.0322,-0.0259,0.0263,0.1078,0.1079,0.0944,0.0674,0.0944,0.1082,0.1087,0.1087,0.1104,0.113,0.1136,0.1154,0.118,0.121,0.1221,0.1225,0.1249,0.1335,0.1335,0.1335,0.1335,0.1335,0.1335,0.1335,0.1335,0.1335,0.1335,0.1414,0.1414,0.1492,0.1571,0.1571,0.1571,0.1649,0.204,0.2353,0.2592,0.2762,0.2685,0.2689,0.2782,0.2785,0.2803,0.2936,0.3509,0.394,0.4099,0.4768,0.5515,0.6274,0.6523,0.6867,0.7496,0.7701,0.7703,0.7733,0.7869,0.7944,0.7944,0.7944,0.7768,0.7595,0.7856,0.7944,0.7944,0.7944,0.7944,0.0,0.0,0.0,-0.1255,0.0,0.0,0.0,-0.131,-0.1451,-0.1837,-0.1796,-0.1789,-0.2044,0.0,-0.1716,-0.1752,-0.1653,-0.1627,-0.1657,-0.174,-0.1797,-0.1797,-0.1797,-0.1797,-0.1797,-0.1797,-0.1853,-0.1962,-0.2132,-0.2244,-0.2244,-0.2244,-0.23,-0.2465,-0.2575,-0.2742,-0.2912,-0.2685,-0.2538,-0.2523,-0.1925,-0.1494,-0.1232,-0.075,-0.0192,0.0329,0.0858,0.0865,0.0539,0.0944,0.1079,0.1079,0.0877,0.0952,0.1102,0.1116,0.1131,0.1148,0.1179,0.1199,0.129,0.1306,0.1322,0.1335,0.1335,0.11,0.0943,0.0943,0.0943,0.0943,0.0943,0.0943,0.0943,0.0943,0.11,0.1335,0.1335,0.1335,0.1335,0.157,0.1727,0.2041,0.2433,0.2353,0.2275,0.2431,0.2511,0.2442,0.2232,0.2552,0.2801,0.2835,0.3482,0.4127,0.4776,0.55,0.6096,0.6658,0.7065,0.7311,0.7392,0.7472,0.7596,0.7496,0.7496,0.7411,0.7323,0.7411,0.7496,0.7496,0.7496,0.7496,0.0,0.0,0.0,0.0,0.0,-0.1407,0.0,0.0,0.0,0.0,0.0,0.0,0.0,0.0,0.0,0.0,0.0,0.0,0.0,-0.1636,0.0,-0.18,-0.181,-0.1767,-0.1833,-0.1824,-0.1937,-0.2181,-0.2435,-0.2654,-0.2689,-0.2691,-0.2747,-0.28,-0.2965,-0.313,-0.3188,-0.3188,-0.3188,-0.3188,-0.2588,-0.2279,-0.2296,-0.1447,-0.0871,-0.0386,0.0516,0.0722,0.0539,0.0809,0.0944,0.1079,0.0607,0.0607,0.0879,0.0966,0.0974,0.0978,0.1076,0.11,0.1121,0.1126,0.1147,0.1171,0.1256,0.1021,0.0707,0.055,0.0471,0.0471,0.0471,0.0471,0.0471,0.0471,0.0786,0.11,0.1178,0.1178,0.1178,0.1178,0.1178,0.1414,0.2119,0.1961,0.1883,0.2198,0.2276,0.2118,0.1803,0.1803,0.1803,0.1803,0.2194,0.2741,0.3212,0.4302,0.5118,0.545,0.6288,0.6767,0.673,0.7052,0.7107,0.7051,0.7085,0.7085,0.7054,0.7112,0.7139,0.7139,0.7139,0.7139,0.0,0.0,0.0,0.0,-0.1419,-0.1507,0.0,0.0,-0.2021,-0.1536,0.0,0.0,0.0,0.0,0.0,0.0,0.0,0.0,-0.1328,-0.1428,-0.1604,-0.1849,-0.1754,-0.176,-0.2027,-0.1978,-0.1994,-0.2174,-0.2274,-0.2467,-0.2683,-0.2691,-0.28,-0.3019,-0.3074,-0.3244,-0.3527,-0.3527,-0.3527,-0.3527,-0.3485,-0.3431,-0.3411,-0.3313,-0.2076,-0.0064,0.0065,0.0263,0.0472,0.0202,0.0539,0.1012,0.0337,0.0067,0.0135,0.0473,0.0542,0.0544,0.0558,0.0564,0.0568,0.0654,0.067,0.0764,0.1171,0.1257,0.1021,0.0314,0.0079,0.0079,0.0079,0.0079,0.0079,0.0079,0.0079,0.0236,0.0628,0.0707,0.0707,0.0707,0.0707,0.0864,0.1335,0.1414,0.1414,0.1414,0.1414,0.1414,0.1335,0.1335,0.1335,0.1335,0.1414,0.1805,0.251,0.2744,0.3214,0.4001,0.4885,0.5433,0.5448,0.6315,0.6732,0.6749,0.6881,0.6888,0.6753,0.7014,0.7139,0.7139,0.7139,0.7139,0.0,0.0,0.0,0.0,0.0,0.0,-0.1939,0.0,-0.2182,0.0,0.0,0.0,0.0,0.0,0.0,0.0,-0.1742,0.0,0.0,0.0,-0.1442,0.0,0.0,0.0,-0.1892,-0.2019,-0.2095,-0.2153,-0.2511,-0.2773,-0.2868,-0.3044,-0.3182,-0.3411,-0.3413,-0.3471,-0.3585,-0.3585,-0.3585,-0.3585,-0.3585,-0.361,-0.3602,-0.3605,-0.2813,-0.1403,-0.1161,-0.0566,0.0197,0.0066,0.0199,0.0404,0.0135,-0.0,-0.0,0.0135,0.0202,0.0203,0.0205,0.0208,0.0211,0.0217,0.0222,0.0303,0.046,0.0544,0.0471,0.0079,-0.0,-0.0,-0.0,-0.0,-0.0,-0.0,-0.0,0.0079,0.0236,0.0236,0.0314,0.055,0.0628,0.0629,0.0864,0.11,0.1335,0.1335,0.1335,0.1335,0.1335,0.1335,0.1335,0.1335,0.1335,0.1414,0.1805,0.2354,0.2902,0.3292,0.4902,0.5839,0.5749,0.6293,0.661,0.6698,0.6763,0.6766,0.6702,0.6824,0.6885,0.6888,0.7061,0.7139,-0.204,0.0,0.0,0.0,0.0,0.0,0.0,0.0,0.0,0.0,0.0,0.0,0.0,0.0,0.0,0.0,0.0,-0.1405,0.0,-0.1184,0.0,0.0,0.0,0.0,0.0,-0.2052,-0.2183,-0.2221,-0.2654,-0.2984,-0.3116,-0.3292,-0.3458,-0.358,-0.3585,-0.3585,-0.3585,-0.3585,-0.3585,-0.3585,-0.3585,-0.3585,-0.3585,-0.3585,-0.3305,-0.2698,-0.2409,-0.1819,-0.0955,-0.0257,-0.0,-0.0,-0.0,-0.0,-0.0,-0.0,-0.0,-0.0,-0.0,-0.0,-0.0,-0.0,-0.0,-0.0,-0.0,-0.0,-0.0,-0.0,-0.0,-0.0,-0.0,-0.0,-0.0,-0.0,-0.0,-0.0,-0.0,-0.0,0.0079,0.0393,0.0471,0.0471,0.0471,0.0707,0.0943,0.11,0.11,0.11,0.11,0.11,0.1178,0.1257,0.1335,0.1335,0.1335,0.2042,0.2433,0.2275,0.4233,0.5611,0.6099,0.6258,0.6308,0.6413,0.6453,0.6453,0.6417,0.6496,0.6513,0.648,0.6813,0.693,0.0,0.0,0.0,-0.1916,0.0,0.0,0.0,0.0,-0.2184,0.0,0.0,0.0,0.0,0.0,0.0,0.0,0.0,0.0,0.0,0.0,0.0,0.0,0.0,0.0,0.0,-0.2028,-0.2257,0.0,-0.2654,-0.2903,-0.3376,-0.34,-0.3458,-0.358,-0.3585,-0.3585,-0.3585,-0.3585,-0.3585,-0.3585,-0.3585,-0.3585,-0.3585,-0.3585,-0.3594,-0.3587,-0.3538,-0.3548,-0.3288,-0.0954,-0.0,-0.0,-0.0,-0.0,-0.0,-0.0,-0.0,-0.0,-0.0,-0.0,-0.0,-0.0,-0.0,-0.0,-0.0,-0.0,-0.0,-0.0,-0.0,-0.0,-0.0,-0.0,-0.0,-0.0,-0.0,-0.0,-0.0,-0.0,-0.0,-0.0,-0.0,-0.0,-0.0,-0.0,0.0157,0.055,0.0628,0.0628,0.0628,0.0628,0.0786,0.1257,0.1335,0.1335,0.1335,0.1335,0.1178,0.0705,0.2273,0.4001,0.5727,0.5805,0.5727,0.5649,0.5851,0.5854,0.5649,0.599,0.6049,0.5922,0.6305,0.6456,-0.3289,-0.3732,-0.3974,-0.2484,-0.2581,0.0,0.0,0.0,0.0,0.0,-0.2855,0.0,0.0,0.0,0.0,0.0,0.0,0.0,0.0,0.0,0.0,0.0,0.0,0.0,0.0,0.0,0.0,-0.1795,-0.2165,0.0,-0.2649,-0.3034,-0.3335,-0.3458,-0.3542,-0.3585,-0.3585,-0.3585,-0.3585,-0.3585,-0.3585,-0.3585,-0.3585,-0.3585,-0.3607,-0.3589,-0.3591,-0.3603,-0.354,-0.2841,-0.2085,-0.1289,-0.0332,-0.0,-0.0,-0.0,-0.0,-0.0,-0.0,-0.0,-0.0,-0.0,-0.0,-0.0,-0.0,-0.0,-0.0,-0.0,-0.0,-0.0,-0.0,-0.0,-0.0,-0.0,-0.0,-0.0,-0.0,-0.0,-0.0,-0.0,-0.0,-0.0,-0.0,-0.0,0.0079,0.0157,0.0236,0.0236,0.0236,0.0236,0.0393,0.0786,0.0864,0.0864,0.0864,0.11,0.102,0.0235,0.0705,0.1801,0.3521,0.4851,0.5479,0.5479,0.5602,0.568,0.5637,0.5729,0.5747,0.5704,0.5665,0.5863,-0.4116,-0.4501,-0.4754,-0.3321,-0.3426,-0.3618,-0.274,-0.2907,-0.3113,-0.2718,-0.3067,-0.3454,0.0,0.0,0.0,0.0,0.0,0.0,0.0,-0.1559,0.0,0.0,0.0,0.0,0.0,0.0,-0.1736,-0.1556,-0.1909,0.0,0.0,-0.2839,-0.3174,-0.3398,-0.352,-0.3585,-0.3585,-0.3585,-0.3585,-0.3585,-0.3585,-0.3585,-0.3585,-0.3585,-0.3585,-0.3585,-0.3585,-0.3572,-0.3595,-0.3711,-0.3395,-0.2858,-0.2027,-0.1397,-0.0872,-0.0269,-0.0,-0.0,-0.0,-0.0,-0.0,-0.0,-0.0,-0.0,-0.0,-0.0,-0.0,-0.0,-0.0,-0.0,-0.0,-0.0,-0.0,-0.0,-0.0,-0.0,-0.0,-0.0,-0.0,-0.0,-0.0,-0.0,-0.0,-0.0,-0.0,-0.0,-0.0,-0.0,-0.0,-0.0,0.0079,0.0393,0.0393,0.0393,0.0393,0.0629,0.0628,-0.0,-0.0,0.047,0.1565,0.2813,0.4068,0.5251,0.5332,0.541,0.5404,0.5404,0.5404,0.5404,0.5246,0.541]},{"header":{"parameterUnit":"m.s-1","parameterCategory":1,"la1":30.6,"la2":29.2853,"lo1":-89.7004,"lo2":-87.6739,"dy":0.0162,"dx":0.0183,"nx":112,"ny":82,"refTime":"2025-05-20T18:00:00:Z","depth":0,"parameterNumber":3,"parameterNumberName":"V-component_of_WINDS"},"data":[0.0,0.0,0.0,0.0,0.0,0.0,0.0,0.0,0.0,0.0,0.0,0.0,0.0,0.0,0.0,0.0,0.0,0.0,0.0,0.0,0.0,0.0,0.0,0.0,0.0,0.0,0.0,0.0,0.0,0.0,0.0,0.0,0.0,0.0,0.0,0.0,0.0,0.0,0.0,0.0,0.0,0.0,0.0,0.0,0.0,0.0,0.0,0.0,0.0,0.0,0.0,0.0,0.0,0.0,0.0,0.0,0.0,0.0,0.0,0.0,0.0,0.0,0.0,0.0,0.0,0.0,0.0,0.0,0.0,0.0,0.0,0.0,0.0,0.0,0.0,0.0,0.0,0.0,0.0,0.0,0.0,0.0,0.0,0.0,0.0,0.0,0.0,0.0,0.0,0.0,-0.4252,-0.3962,-0.3915,-0.3849,-0.3849,-0.3849,-0.385,-0.3849,0.0,0.0,0.0,0.0,0.0,0.0,0.0,0.0,0.0,0.0,0.0,0.0,0.0,0.0,0.0,0.0,0.0,0.0,0.0,0.0,0.0,0.0,0.0,0.0,0.0,0.0,0.0,0.0,0.0,0.0,0.0,0.0,0.0,0.0,0.0,0.0,0.0,0.0,0.0,0.0,0.0,0.0,0.0,0.0,0.0,0.0,0.0,0.0,0.0,0.0,0.0,0.0,0.0,0.0,0.0,0.0,0.0,0.0,0.0,0.0,0.0,0.0,0.0,0.0,0.0,0.0,0.0,0.0,0.0,0.0,0.0,0.0,0.0,0.0,0.0,0.0,0.0,0.0,0.0,0.0,0.0,0.0,0.0,0.0,0.0,0.0,0.0,0.0,0.0,0.0,0.0,0.0,0.0,0.0,0.0,0.0,0.0,0.0,0.0,0.0,0.0,0.0,0.0,0.0,-0.4612,-0.5039,-0.5027,-0.5018,-0.5018,-0.5018,-0.4915,-0.464,0.0,0.0,0.0,0.0,0.0,0.0,0.0,0.0,0.0,0.0,0.0,0.0,0.0,0.0,0.0,0.0,0.0,0.0,0.0,0.0,0.0,0.0,0.0,0.0,0.0,0.0,0.0,0.0,0.0,0.0,0.0,0.0,0.0,0.0,0.0,0.0,0.0,0.0,0.0,0.0,0.0,0.0,0.0,0.0,0.0,0.0,0.0,0.0,0.0,0.0,0.0,0.0,0.0,0.0,0.0,0.0,0.0,0.0,0.0,0.0,0.0,0.0,0.0,0.0,0.0,0.0,0.0,0.0,0.0,0.0,0.0,0.0,0.0,0.0,0.0,0.0,0.0,0.0,0.0,0.0,0.0,0.0,0.0,0.0,0.0,0.0,0.0,0.0,0.0,0.0,0.0,0.0,0.0,0.0,0.0,0.0,0.0,0.0,0.0,0.0,0.0,0.0,0.0,-0.4561,-0.4709,-0.5225,-0.5297,-0.5297,-0.5297,-0.5297,-0.5144,-0.4828,-0.3951,0.0,0.0,0.0,0.0,0.0,0.0,0.0,0.0,0.0,0.0,0.0,0.0,0.0,0.0,0.0,0.0,0.0,0.0,0.0,0.0,0.0,0.0,0.0,0.0,0.0,0.0,0.0,0.0,0.0,0.0,0.0,0.0,0.0,0.0,0.0,0.0,0.0,0.0,0.0,0.0,0.0,0.0,0.0,0.0,0.0,0.0,0.0,0.0,0.0,0.0,0.0,0.0,0.0,0.0,0.0,0.0,0.0,0.0,0.0,0.0,0.0,0.0,0.0,0.0,0.0,0.0,0.0,0.0,0.0,0.0,0.0,0.0,0.0,0.0,0.0,0.0,0.0,0.0,0.0,0.0,0.0,0.0,0.0,0.0,0.0,0.0,0.0,0.0,0.0,0.0,0.0,0.0,0.0,0.0,0.0,0.0,0.0,0.0,0.0,0.0,0.0,0.0,-0.5145,-0.504,-0.5467,-0.5407,-0.5297,-0.5297,-0.5221,-0.51,-0.4968,-0.4136,0.0,0.0,0.0,0.0,0.0,0.0,0.0,0.0,0.0,0.0,0.0,0.0,0.0,0.0,0.0,0.0,0.0,0.0,0.0,0.0,0.0,0.0,0.0,0.0,0.0,0.0,0.0,0.0,0.0,0.0,0.0,0.0,0.0,0.0,0.0,0.0,0.0,0.0,0.0,0.0,0.0,0.0,0.0,0.0,0.0,0.0,0.0,0.0,0.0,0.0,0.0,0.0,0.0,0.0,0.0,0.0,0.0,0.0,0.0,0.0,0.0,0.0,0.0,0.0,0.0,0.0,0.0,0.0,0.0,0.0,0.0,0.0,0.0,0.0,0.0,0.0,0.0,0.0,0.0,0.0,0.0,0.0,0.0,0.0,0.0,0.0,0.0,0.0,0.0,0.0,0.0,0.0,0.0,0.0,0.0,0.0,0.0,0.0,0.0,0.0,0.0,0.0,-0.6121,-0.6108,-0.615,-0.5622,-0.5297,-0.5297,-0.5039,-0.5026,-0.5438,-0.4286,0.0,0.0,0.0,0.0,0.0,0.0,0.0,0.0,0.0,0.0,0.0,0.0,0.0,0.0,0.0,0.0,0.0,0.0,0.0,0.0,0.0,0.0,0.0,0.0,0.0,0.0,0.0,0.0,0.0,0.0,0.0,0.0,0.0,0.0,0.0,0.0,0.0,0.0,0.0,0.0,0.0,0.0,0.0,0.0,0.0,0.0,0.0,0.0,0.0,0.0,0.0,0.0,0.0,0.0,0.0,0.0,0.0,0.0,0.0,0.0,0.0,0.0,0.0,0.0,0.0,0.0,0.0,0.0,0.0,0.0,0.0,0.0,0.0,0.0,0.0,0.0,0.0,0.0,0.0,0.0,0.0,0.0,0.0,0.0,0.0,0.0,0.0,0.0,0.0,0.0,0.0,0.0,0.0,0.0,0.0,0.0,0.0,0.0,0.0,0.0,0.0,0.0,-0.6329,-0.6546,0.0,-0.6678,-0.6489,-0.6677,-0.6411,-0.6116,-0.5746,0.0,0.0,0.0,0.0,0.0,0.0,0.0,0.0,0.0,0.0,0.0,0.0,0.0,0.0,0.0,0.0,0.0,0.0,0.0,0.0,0.0,0.0,0.0,0.0,0.0,0.0,0.0,0.0,0.0,0.0,0.0,0.0,0.0,0.0,0.0,0.0,0.0,0.0,0.0,0.0,0.0,0.0,0.0,0.0,0.0,0.0,0.0,0.0,0.0,0.0,0.0,0.0,0.0,0.0,0.0,0.0,0.0,0.0,0.0,0.0,0.0,0.0,0.0,0.0,0.0,0.0,0.0,0.0,0.0,0.0,0.0,0.0,0.0,0.0,0.0,0.0,0.0,0.0,0.0,0.0,0.0,0.0,0.0,0.0,0.0,0.0,0.0,0.0,0.0,0.0,0.0,0.0,0.0,0.0,0.0,0.0,0.0,0.0,0.0,0.0,0.0,0.0,-0.636,-0.6842,-0.7263,0.0,-0.7456,-0.7312,-0.7475,-0.7128,-0.6661,-0.6138,0.0,0.0,0.0,0.0,0.0,0.0,0.0,0.0,0.0,0.0,0.0,0.0,0.0,0.0,0.0,0.0,0.0,0.0,0.0,0.0,0.0,0.0,0.0,0.0,0.0,0.0,0.0,0.0,0.0,0.0,0.0,0.0,0.0,0.0,0.0,0.0,0.0,0.0,0.0,0.0,0.0,0.0,0.0,0.0,0.0,0.0,0.0,0.0,0.0,0.0,0.0,0.0,0.0,0.0,0.0,0.0,0.0,0.0,0.0,0.0,0.0,0.0,0.0,0.0,0.0,0.0,0.0,0.0,0.0,0.0,0.0,0.0,0.0,0.0,0.0,0.0,0.0,0.0,0.0,0.0,0.0,0.0,0.0,0.0,0.0,0.0,0.0,0.0,0.0,0.0,0.0,0.0,0.0,0.0,0.0,0.0,0.0,0.0,0.0,0.0,0.0,0.0,-0.6989,-0.7854,-0.8435,-0.8441,-0.788,-0.7542,-0.7548,-0.6927,-0.6541,0.0,0.0,0.0,0.0,0.0,0.0,0.0,0.0,0.0,0.0,0.0,0.0,0.0,0.0,0.0,0.0,0.0,0.0,0.0,0.0,0.0,0.0,0.0,0.0,0.0,0.0,0.0,0.0,0.0,0.0,0.0,0.0,0.0,0.0,0.0,0.0,0.0,0.0,0.0,0.0,0.0,0.0,0.0,0.0,0.0,0.0,0.0,0.0,0.0,0.0,0.0,0.0,0.0,0.0,0.0,0.0,0.0,0.0,0.0,0.0,0.0,0.0,0.0,0.0,0.0,0.0,0.0,0.0,0.0,0.0,0.0,0.0,0.0,0.0,0.0,0.0,0.0,0.0,0.0,0.0,0.0,0.0,0.0,0.0,0.0,0.0,0.0,0.0,0.0,0.0,0.0,0.0,0.0,0.0,0.0,0.0,0.0,0.0,0.0,0.0,0.0,0.0,0.0,-0.83,-0.9482,-1.0115,-0.9896,-0.9604,-0.9292,-0.9068,-0.8489,-0.7745,-0.6948,0.0,0.0,0.0,0.0,0.0,0.0,0.0,0.0,0.0,0.0,0.0,0.0,0.0,0.0,0.0,0.0,0.0,0.0,0.0,0.0,0.0,0.0,0.0,0.0,0.0,0.0,0.0,0.0,0.0,0.0,0.0,0.0,0.0,0.0,0.0,0.0,0.0,0.0,0.0,0.0,0.0,0.0,0.0,0.0,0.0,0.0,0.0,0.0,0.0,0.0,0.0,0.0,0.0,0.0,0.0,0.0,0.0,0.0,0.0,0.0,0.0,0.0,0.0,0.0,0.0,0.0,0.0,0.0,0.0,0.0,0.0,0.0,0.0,0.0,0.0,0.0,0.0,0.0,0.0,0.0,0.0,0.0,0.0,0.0,0.0,0.0,0.0,0.0,0.0,0.0,0.0,0.0,0.0,0.0,0.0,0.0,0.0,0.0,0.0,0.0,0.0,0.0,-0.9104,-1.0404,-1.1193,-1.113,-1.1043,-1.0782,-1.0473,-0.9955,-0.9163,-0.7874,0.0,0.0,0.0,0.0,0.0,0.0,0.0,0.0,0.0,0.0,0.0,0.0,0.0,0.0,0.0,0.0,0.0,0.0,0.0,0.0,0.0,0.0,0.0,0.0,0.0,0.0,0.0,0.0,0.0,0.0,0.0,0.0,0.0,0.0,0.0,0.0,0.0,0.0,0.0,0.0,0.0,0.0,0.0,0.0,0.0,0.0,0.0,0.0,0.0,0.0,0.0,0.0,0.0,0.0,0.0,0.0,0.0,0.0,0.0,0.0,0.0,0.0,0.0,0.0,0.0,0.0,0.0,0.0,0.0,0.0,0.0,0.0,0.0,0.0,0.0,0.0,0.0,0.0,0.0,0.0,0.0,0.0,0.0,0.0,0.0,0.0,0.0,0.0,0.0,0.0,0.0,0.0,0.0,0.0,0.0,0.0,0.0,0.0,0.0,0.0,0.0,0.0,-0.9624,-1.0897,-1.1793,-1.2139,-1.218,-1.1977,-1.1519,-1.1161,-1.0426,-0.9149,0.0,0.0,0.0,0.0,0.0,0.0,0.0,0.0,0.0,0.0,0.0,0.0,0.0,0.0,0.0,0.0,0.0,0.0,0.0,0.0,0.0,0.0,0.0,0.0,0.0,0.0,0.0,0.0,0.0,0.0,0.0,0.0,0.0,0.0,0.0,0.0,0.0,0.0,0.0,0.0,0.0,0.0,0.0,0.0,0.0,0.0,0.0,0.0,0.0,0.0,0.0,0.0,0.0,0.0,0.0,0.0,0.0,0.0,0.0,0.0,-0.6713,0.0,0.0,0.0,0.0,0.0,0.0,0.0,0.0,0.0,0.0,0.0,0.0,0.0,0.0,0.0,0.0,0.0,0.0,0.0,0.0,0.0,0.0,0.0,0.0,0.0,0.0,0.0,0.0,0.0,0.0,0.0,0.0,0.0,0.0,0.0,0.0,0.0,0.0,0.0,0.0,0.0,-1.0912,-1.2171,-1.2879,-1.2738,-1.2838,-1.2505,-1.1575,-1.1161,-1.0581,-0.9541,-0.872,0.0,0.0,0.0,0.0,0.0,0.0,0.0,0.0,0.0,0.0,0.0,0.0,0.0,0.0,0.0,0.0,0.0,0.0,0.0,0.0,0.0,0.0,0.0,0.0,0.0,0.0,0.0,0.0,0.0,0.0,0.0,0.0,0.0,0.0,0.0,0.0,0.0,0.0,0.0,0.0,0.0,0.0,0.0,0.0,0.0,0.0,0.0,0.0,0.0,0.0,0.0,0.0,0.0,0.0,0.0,0.0,0.0,0.0,0.0,0.0,-0.7766,0.0,0.0,0.0,0.0,0.0,0.0,0.0,0.0,0.0,0.0,0.0,0.0,0.0,0.0,0.0,0.0,0.0,0.0,0.0,0.0,0.0,0.0,0.0,0.0,0.0,0.0,0.0,0.0,0.0,0.0,0.0,0.0,0.0,0.0,0.0,0.0,0.0,0.0,0.0,0.0,-1.184,-1.2782,-1.3414,-1.3655,-1.3717,-1.3491,-1.2745,-1.2312,-1.1739,-1.0872,-0.9921,0.0,0.0,0.0,0.0,0.0,0.0,0.0,0.0,0.0,0.0,0.0,0.0,0.0,0.0,0.0,0.0,0.0,0.0,0.0,0.0,0.0,0.0,0.0,0.0,0.0,0.0,0.0,0.0,0.0,0.0,0.0,0.0,0.0,0.0,0.0,0.0,0.0,0.0,0.0,0.0,0.0,0.0,0.0,0.0,0.0,0.0,0.0,0.0,0.0,0.0,0.0,0.0,0.0,-0.988,-1.0333,-1.1278,-1.1014,-1.1206,-1.1714,-1.0546,-0.9985,-0.9847,-0.9188,0.0,0.0,0.0,0.0,0.0,0.0,0.0,0.0,0.0,0.0,0.0,0.0,0.0,0.0,0.0,0.0,0.0,0.0,0.0,0.0,0.0,0.0,0.0,0.0,-1.4003,-1.3987,-1.2204,0.0,0.0,0.0,0.0,0.0,0.0,0.0,0.0,0.0,0.0,0.0,-1.2531,-1.3148,-1.3681,-1.4433,-1.4515,-1.4341,-1.3919,-1.3516,-1.2975,-1.2223,-1.119,-1.0321,0.0,0.0,0.0,0.0,0.0,0.0,0.0,0.0,0.0,0.0,0.0,0.0,0.0,0.0,0.0,0.0,0.0,0.0,0.0,0.0,0.0,0.0,0.0,0.0,0.0,0.0,0.0,0.0,0.0,0.0,0.0,0.0,-0.3833,-0.403,0.0,0.0,0.0,0.0,0.0,0.0,0.0,0.0,0.0,0.0,0.0,0.0,0.0,-0.9584,-1.0344,-1.0651,-1.1023,-1.1521,-1.1727,-1.2323,-1.3329,-1.3277,-1.3556,-1.4073,-1.3865,0.0,-1.0978,-1.0537,0.0,0.0,0.0,0.0,0.0,0.0,0.0,0.0,0.0,0.0,0.0,0.0,0.0,0.0,0.0,0.0,0.0,0.0,0.0,0.0,0.0,0.0,-1.4902,-1.4902,-1.5263,-1.5499,0.0,-1.3566,-1.1815,-1.0791,-1.0332,0.0,0.0,0.0,0.0,0.0,0.0,0.0,-1.3008,-1.3551,-1.3983,-1.446,-1.4515,-1.4341,-1.3919,-1.3516,-1.3094,-1.2669,-1.1798,-1.1314,-1.1195,-1.0118,0.0,0.0,0.0,0.0,0.0,0.0,0.0,0.0,0.0,0.0,0.0,0.0,0.0,0.0,0.0,0.0,0.0,0.0,0.0,0.0,0.0,0.0,0.0,0.0,0.0,0.0,0.0,0.0,0.0,-0.4207,-0.4582,-0.4894,-0.5063,-0.505,0.0,0.0,0.0,0.0,0.0,0.0,0.0,0.0,0.0,-1.0119,-1.0617,-1.1378,-1.2397,-1.2567,-1.2954,-1.3628,-1.3795,-1.4206,-1.4836,-1.4836,-1.497,-1.5175,-1.5175,-1.461,-1.3679,-1.2532,-1.1965,-1.1657,0.0,0.0,0.0,0.0,-1.1771,-1.2273,-1.2694,-1.291,-1.2966,-1.2914,0.0,0.0,0.0,0.0,0.0,0.0,0.0,-1.4479,0.0,0.0,-1.6428,-1.6697,-1.7134,-1.7366,-1.7114,-1.6059,-1.4747,0.0,-1.2696,-1.203,-1.1266,0.0,0.0,0.0,0.0,-1.2809,-1.4235,-1.4606,-1.4715,-1.4855,-1.4902,-1.4709,-1.4249,-1.3653,-1.3267,-1.3136,-1.2369,-1.1965,-1.1965,-1.1348,-1.079,0.0,0.0,0.0,0.0,0.0,0.0,0.0,0.0,0.0,0.0,0.0,0.0,0.0,0.0,0.0,0.0,0.0,0.0,0.0,0.0,0.0,0.0,0.0,0.0,0.0,0.0,0.0,0.0,-0.5129,-0.559,-0.6186,-0.6444,-0.6447,0.0,0.0,0.0,0.0,0.0,0.0,-0.9516,-1.0116,-1.0941,-1.1961,-1.2398,-1.3125,-1.4224,-1.4232,-1.4683,-1.5594,-1.5594,-1.5982,-1.6609,-1.6478,-1.6534,-1.6769,-1.6637,-1.6637,-1.6637,-1.4579,-1.3867,-1.3905,-1.3178,-1.3002,-1.3143,-1.3446,-1.4019,-1.4686,-1.5054,-1.5359,-1.5532,-1.5157,-1.4811,-1.4516,-1.4345,0.0,0.0,0.0,0.0,-1.6474,-1.6773,-1.7474,-1.8284,-1.8598,-1.8958,-1.9115,-1.8767,-1.8396,-1.7644,0.0,-1.4799,-1.4033,-1.3355,0.0,0.0,0.0,0.0,-1.4042,-1.5246,-1.5431,-1.5455,-1.5371,-1.541,-1.5245,-1.4911,-1.4091,-1.3666,-1.3676,-1.2884,-1.2372,-1.2274,-1.2177,-1.1864,-1.1356,0.0,0.0,0.0,0.0,0.0,0.0,0.0,0.0,0.0,0.0,0.0,0.0,0.0,0.0,0.0,0.0,0.0,0.0,0.0,0.0,0.0,0.0,0.0,0.0,0.0,0.0,0.0,0.0,0.0,-0.8123,-0.808,0.0,0.0,0.0,0.0,-0.9188,-1.0031,-1.0817,-1.14,-1.2085,-1.2924,-1.3947,-1.4622,-1.514,-1.5625,-1.5625,-1.6085,-1.7023,-1.7023,-1.7725,-1.9003,-1.8446,-1.875,-1.9736,-1.9141,-1.9213,-1.9575,-1.6343,-1.5308,-1.5737,-1.5293,-1.5466,-1.5924,-1.5944,-1.5965,-1.6046,-1.6483,-1.6361,-1.6148,-1.6911,-1.7112,-1.7201,-1.784,-1.7746,0.0,0.0,-1.8244,-1.9036,-1.8927,-1.9674,-2.0535,-2.0571,-2.0595,-2.0607,-2.0583,-2.0559,-1.9717,0.0,-1.6055,-1.5524,-1.5034,0.0,-1.4952,-1.4969,-1.5009,-1.5164,-1.5729,-1.5854,-1.5843,-1.5874,-1.5874,-1.5874,-1.5816,-1.5004,-1.4407,-1.416,-1.3289,-1.2618,-1.2323,-1.2412,-1.2243,-1.178,-1.0992,0.0,0.0,0.0,0.0,0.0,0.0,0.0,0.0,0.0,0.0,0.0,0.0,0.0,0.0,0.0,0.0,0.0,0.0,0.0,0.0,0.0,0.0,0.0,0.0,0.0,0.0,0.0,0.0,-0.8933,-0.9241,0.0,-0.9663,-1.015,-1.0751,-1.1507,-1.1902,-1.2743,-1.4123,-1.4303,-1.493,-1.6168,-1.6944,-1.7576,-1.793,-1.8291,-1.8656,-1.8954,-1.8954,-1.9254,-1.9697,-1.9473,-1.9645,-2.0021,-1.9723,-1.9795,-1.9879,-1.8735,-1.8014,-1.7561,-1.6835,-1.6678,-1.689,-1.7226,-1.7513,-1.7843,-1.8301,-1.8354,-1.8219,-1.819,-1.8205,-1.8306,-1.8994,-1.9102,-1.9011,-1.9467,-1.9892,-2.022,-2.0497,-2.084,-2.1245,-2.1536,-2.1608,-2.1608,-2.1608,-2.1343,-2.0863,-1.9841,-1.8677,-1.7643,-1.7049,-1.671,-1.6612,-1.6929,-1.6948,-1.7162,-1.7615,-1.7397,-1.7148,-1.6846,-1.6519,-1.6218,-1.5931,-1.5222,-1.4809,-1.4799,-1.4107,-1.3658,-1.3515,-1.36,-1.3575,-1.3362,-1.2637,-1.161,0.0,0.0,0.0,0.0,0.0,0.0,0.0,0.0,0.0,0.0,0.0,0.0,0.0,0.0,0.0,0.0,0.0,0.0,0.0,0.0,0.0,0.0,0.0,0.0,0.0,0.0,-1.0,-1.0056,-1.0963,-1.16,-1.1469,-1.2324,-1.3123,-1.3846,-1.4064,-1.4823,-1.6249,-1.6296,-1.6818,-1.7982,-1.8662,-1.9192,-1.9485,-1.9788,-2.0083,-2.0298,-2.0298,-2.0452,-2.0751,-2.0597,-2.0679,-2.0969,-2.0824,-2.0824,-2.1032,-2.0814,-2.0388,-1.9765,-1.8864,-1.8565,-1.8802,-1.9093,-1.9396,-1.9779,-2.0346,-2.0512,-2.0526,-2.0432,-2.0444,-2.0506,-2.0915,-2.1099,-2.1172,-2.1608,-2.1909,-2.2161,-2.2445,-2.259,-2.2673,-2.2972,-2.2922,-2.2786,-2.2786,-2.2513,-2.2241,-2.2004,-2.0684,-1.9412,-1.8976,-1.8646,-1.8476,-1.8583,-1.8569,-1.8622,-1.8704,-1.8425,-1.8121,-1.7803,-1.7328,-1.6984,-1.678,-1.5858,-1.5382,-1.5464,-1.4779,-1.4316,-1.4222,-1.4258,-1.4258,-1.4222,-1.3574,-1.2631,-1.1456,0.0,0.0,0.0,0.0,0.0,0.0,0.0,0.0,0.0,0.0,0.0,0.0,0.0,0.0,0.0,0.0,0.0,0.0,0.0,0.0,0.0,0.0,0.0,-1.0371,-1.0497,-1.0965,-1.1559,-1.3268,-1.4327,-1.3919,-1.5321,-1.6236,-1.6094,-1.6537,-1.7115,-1.7795,-1.8138,-1.8614,-1.9322,-1.9859,-2.0103,-2.0103,-2.0124,-2.0411,-2.0849,-2.0849,-2.1368,-2.2263,-2.1732,-2.204,-2.3001,-2.2402,-2.2478,-2.3043,-2.2593,-2.2407,-2.2291,-2.1211,-2.1161,-2.1592,-2.1673,-2.1673,-2.1812,-2.2514,-2.2763,-2.2831,-2.3544,-2.3808,-2.3808,-2.3808,-2.3808,-2.3874,-2.3874,-2.4332,-2.4861,-2.4861,-2.4934,-2.4988,-2.4988,-2.457,-2.4164,-2.4151,-2.4151,-2.3949,-2.328,-2.1885,-2.0782,-2.0782,-2.0725,-2.0541,-1.9878,-1.976,0.0,-1.8912,-1.878,-1.8769,-1.8769,-1.8353,-1.8173,-1.8417,-1.7095,-1.6255,-1.6238,-1.5317,-1.4593,-1.4269,-1.4305,-1.4305,-1.4269,-1.3777,-1.3283,-1.2758,0.0,0.0,0.0,0.0,0.0,0.0,0.0,0.0,0.0,0.0,0.0,0.0,0.0,0.0,0.0,0.0,0.0,0.0,0.0,0.0,0.0,-1.224,-1.2137,-1.1862,-1.2967,-1.3848,-1.395,-1.4796,-1.5548,-1.5804,-1.6119,-1.6821,-1.7981,-1.7737,-1.8345,-2.0186,-2.0429,-2.087,-2.1731,-2.2765,-2.3039,-2.2488,-2.2811,-2.2794,-2.2388,-2.2388,-2.2537,-2.2815,-2.2657,-2.2996,-2.3768,-2.361,-2.3986,-2.4647,-2.4518,-2.446,-2.4295,-2.2181,-2.1441,-2.1695,-2.2587,-2.3259,-2.3753,-2.3554,-2.3478,-2.3544,-2.373,-2.3808,-2.3874,-2.4397,-2.4526,-2.4603,-2.5078,-2.5358,-2.5547,-2.5547,-2.5569,-2.5589,-2.5589,-2.5471,-2.5236,-2.4831,-2.4726,-2.4549,-2.3942,-2.3489,-2.285,-2.1862,-2.1741,-2.168,-2.1486,-2.1425,0.0,-2.1292,-2.1021,-2.0724,-2.0497,-1.9995,-1.9494,-1.8805,-1.8271,-1.7601,-1.6807,-1.6338,-1.5856,-1.539,-1.5367,-1.5367,-1.5379,-1.4529,-1.4132,0.0,0.0,0.0,0.0,0.0,0.0,0.0,0.0,0.0,0.0,0.0,0.0,0.0,0.0,0.0,0.0,0.0,0.0,0.0,0.0,0.0,0.0,-1.4729,-1.4821,-1.5226,-1.5477,-1.58,-1.6128,-1.6928,-1.7559,-1.7864,-1.8268,-1.9114,-2.0336,-2.0322,-2.0893,-2.2195,-2.2525,-2.2903,-2.3497,-2.4417,-2.4704,-2.4214,-2.4495,-2.436,-2.3936,-2.3936,-2.3936,-2.3936,-2.3936,-2.4215,-2.4636,-2.4636,-2.4862,-2.5312,-2.5312,-2.5312,0.0,0.0,0.0,0.0,0.0,-2.4495,-2.4864,-2.4878,-2.489,-2.4957,-2.5224,-2.5357,-2.5423,-2.583,-2.5895,-2.6038,-2.6401,-2.6543,-2.6543,-2.6543,-2.636,-2.6177,-2.6177,-2.5994,-2.5733,-2.5516,-2.5253,-2.499,-2.4708,-2.4445,0.0,-2.3267,-2.304,-2.2859,-2.2543,-2.2592,-2.2518,-2.2335,-2.2128,-2.1933,-2.1753,-2.1104,-2.0415,-1.9745,-1.9038,0.0,0.0,0.0,-1.6667,-1.6152,-1.5912,0.0,0.0,0.0,0.0,0.0,0.0,0.0,0.0,-1.4412,-1.4588,0.0,0.0,0.0,0.0,0.0,0.0,0.0,0.0,0.0,0.0,0.0,0.0,0.0,0.0,0.0,0.0,-1.7816,-1.8533,-1.9294,-1.8114,-1.7438,-1.8162,-1.928,-2.0008,-2.0014,-2.116,-2.2093,-2.2675,-2.343,-2.3863,-2.3802,0.0,0.0,0.0,0.0,-2.5523,-2.5441,-2.5513,-2.5467,-2.5396,-2.5456,-2.548,-2.548,-2.548,-2.5563,-2.5622,-2.5622,-2.5693,-2.5764,-2.5764,-2.5727,-2.5608,-2.5394,-2.5382,-2.5441,-2.5441,-2.5453,-2.5652,-2.6277,0.0,0.0,-2.7323,-2.7523,-2.7523,-2.7523,-2.7523,-2.7523,-2.7523,-2.7523,-2.7523,-2.7523,-2.7157,-2.6778,-2.683,-2.645,-2.6057,-2.6179,-2.5866,-2.5542,-2.5488,-2.5114,-2.4771,-2.4713,-2.4385,-2.3969,-2.3339,-2.3374,-2.3255,-2.264,-2.2774,-2.2834,-2.2774,0.0,0.0,-2.1027,-1.9836,-1.8869,-1.8479,-1.7885,-1.7339,-1.6866,-1.6348,-1.6357,-1.6842,-1.6854,-1.726,-1.8119,-1.8182,-1.8469,-1.8877,-1.6749,-1.6593,0.0,0.0,0.0,0.0,0.0,0.0,0.0,0.0,0.0,0.0,0.0,0.0,0.0,0.0,0.0,-1.8002,-1.8596,-1.9432,-2.084,-2.0876,-2.0618,-2.0329,-2.1311,-2.1999,-2.2103,-2.2627,-2.3246,-2.3875,-2.4142,-2.4462,-2.4975,-2.5652,-2.6046,-2.6046,-2.6705,-2.6769,-2.6208,-2.6644,-2.6572,-2.5985,0.0,0.0,-2.6649,-2.6649,-2.7017,-2.7601,-2.7601,-2.7902,-2.8499,-2.8499,-2.8215,-2.7601,-2.5963,-2.5652,-2.6208,-2.6208,-2.6564,-2.7108,-2.7255,-2.7323,-2.7323,-2.7456,-2.7523,-2.7523,-2.7523,-2.7523,0.0,-2.7523,-2.7523,-2.7523,-2.7523,-2.7445,-2.7366,-2.7552,-2.7473,-2.7314,-2.7043,-2.7344,-2.7298,-2.6337,-2.6104,-2.5857,-2.5314,-2.4811,-2.4447,-2.4319,-2.4305,-2.4363,-2.4292,-2.435,-2.4292,-2.3989,-2.3826,-2.3354,-2.2502,-2.2147,-2.1399,-2.0004,-1.8935,-1.8312,-1.8211,-1.8096,-1.8096,-1.8211,-1.8211,-1.8446,-1.8898,-1.9355,-2.0065,-2.0791,-1.8858,-1.8559,0.0,0.0,0.0,0.0,0.0,0.0,0.0,0.0,0.0,0.0,0.0,-1.6741,-1.7586,0.0,-1.9503,-2.061,-2.102,-2.1693,-2.3149,-2.3657,-2.3598,-2.2652,-2.2834,-2.3386,-2.4381,-2.4693,-2.525,-2.6259,-2.6674,-2.7026,-2.7392,-2.7458,-2.7735,-2.8452,-2.8505,-2.8665,-2.8919,-2.9281,-2.9003,-2.8222,-2.853,-2.8541,-2.8145,-2.8541,-2.8886,-2.9254,-2.9254,-2.9478,-2.9867,-2.9867,-2.968,-2.9305,-2.8686,-2.7832,-2.6973,-2.6973,-2.7175,-2.7523,-2.7908,-2.7973,-2.7973,-2.7973,-2.8222,-2.8454,-2.8091,-2.8208,-2.8519,-2.8519,-2.8519,-2.8519,-2.8519,-2.8519,-2.8519,-2.8776,-2.8776,-2.8807,-2.874,-2.8755,-2.8641,-2.8078,-2.7738,-2.7329,-2.6693,-2.6329,-2.5813,-2.4761,-2.4677,-2.4734,-2.4778,-2.4835,-2.4835,-2.465,-2.4465,-2.3997,-2.325,-2.2713,-2.2018,-2.1223,-2.036,-1.9883,-1.9883,-1.9662,-1.9636,-1.992,-1.9883,-2.0224,-2.0871,-2.1162,-2.1669,-2.2268,-2.1349,-2.113,0.0,0.0,0.0,0.0,0.0,0.0,0.0,0.0,-1.5718,-1.6665,-1.8004,-1.9469,-2.0792,-2.1231,-2.1841,-2.3339,-2.3659,-2.4152,-2.5375,-2.5995,-2.5991,-2.5088,-2.4668,-2.5084,-2.662,-2.6943,-2.7453,-2.8516,-2.9161,-2.9504,-2.9504,-2.914,-2.9366,-3.0481,-3.0104,-3.0422,-3.1519,-3.1646,-3.1369,-3.0829,-3.087,-3.0593,-3.0086,-3.0663,-3.0925,-3.0925,-3.0925,-3.0925,-3.0925,-3.0925,-3.0856,-3.0815,-3.1436,-3.029,-2.8306,-2.8306,-2.8172,-2.8172,-2.8885,-2.9131,-2.9182,-2.9182,-2.9483,-2.9687,-2.9146,-2.924,-2.9566,-2.9566,-2.9566,-2.9566,-2.9566,-2.9566,-2.9628,-2.9813,-2.9875,-2.9936,-3.0225,-3.0029,-2.9799,-2.9784,-2.9375,-2.8832,-2.8196,-2.785,-2.7092,-2.5298,-2.4991,-2.5005,-2.5005,-2.5005,-2.5005,-2.5005,-2.465,-2.4279,-2.3801,-2.2942,-2.2395,-2.2395,-2.1916,-2.1603,-2.1603,-2.1146,-2.1133,-2.159,-2.1603,-2.193,-2.2738,-2.2844,-2.3071,-2.3365,-2.3473,-2.3473,-1.3766,-1.368,-1.3917,-1.504,-1.5312,-1.5996,0.0,0.0,-1.9612,-2.0707,-2.1533,-2.207,-2.2287,-2.3065,-2.3973,-2.4747,-2.529,-2.5887,-2.6625,-2.6992,-2.729,-2.7707,-2.7823,-2.7986,-2.84,-2.887,-2.9205,-2.9344,-2.9462,-2.9504,-2.9504,-2.9961,-3.0361,-3.0481,-3.0979,-3.1316,-3.1519,-3.2002,-3.2269,-3.2202,-3.268,-3.2877,-3.2737,-3.2877,-3.2877,-3.2877,-3.2877,-3.2877,-3.2877,-3.2877,-3.2624,-3.2202,-3.2269,-3.1928,-3.1321,-3.1124,-3.0699,-3.0336,-3.1176,-3.1474,-3.1625,-3.1625,-3.1268,-3.084,-3.0714,-3.033,-2.995,-2.995,-2.995,-2.995,-2.995,-2.995,-3.0011,-3.0104,-3.0165,-3.0225,-3.045,-3.0881,-3.1071,-3.0527,-3.0365,-3.019,-2.9506,-2.8432,-2.7418,-2.6621,-2.6082,-2.5784,-2.5784,-2.5342,-2.5005,-2.5005,-2.4948,-2.4921,-2.4854,-2.4243,-2.3851,-2.3851,-2.3299,-2.2975,-2.2975,-2.2908,-2.2908,-2.2975,-2.2975,-2.3002,-2.3122,-2.3649,-2.3974,-2.4028,-2.4557,-2.453,-1.5694,-1.6283,-1.6953,0.0,-1.8307,-1.9006,-2.0543,-2.1145,-2.1615,-2.2373,-2.3013,-2.3637,-2.4317,-2.4843,-2.5351,0.0,-2.662,-2.7393,-2.8511,-2.8669,-2.9063,-3.0298,-3.0428,-3.027,-2.9777,-2.9929,-3.0269,-3.0644,-3.0644,-3.0804,-3.1243,-3.1123,-3.1613,-3.2811,-3.2731,-3.3064,-3.3849,-3.4047,-3.3949,-3.3518,-3.3708,-3.363,-3.3213,-3.363,-3.3837,-3.3837,-3.3837,-3.363,-3.3437,-3.3837,-3.3965,-3.3935,-3.4332,-3.4105,-3.3456,-3.2117,-3.1556,-3.1514,-3.2269,-3.2523,-3.2557,-3.2557,-3.2662,-3.2581,-3.1816,-3.1645,-3.1664,-3.1293,-3.119,-3.119,-3.119,-3.119,-3.119,-3.1334,-3.1377,-3.1392,-3.1564,-3.1823,-3.1936,-3.1637,-3.1652,-3.1445,-3.0744,-3.0232,-2.9509,-2.8432,-2.7202,-2.639,-2.639,-2.5865,-2.5397,-2.5061,-2.5005,-2.5005,-2.5005,-2.4774,-2.4639,-2.4639,-2.4408,-2.4272,-2.4272,-2.4272,-2.4272,-2.4272,-2.4272,-2.4423,-2.4747,-2.501,-2.5324,-2.5618,-2.5887,-2.5859,-1.7387,0.0,0.0,-2.0038,-2.0804,-2.1592,-2.238,-2.3055,-2.3731,-2.4247,-2.4699,-2.5283,-2.6213,-2.6326,-2.661,-2.7494,-2.8065,-2.8911,-3.0451,-3.0337,-3.07,-3.217,-3.2127,-3.1781,-3.1287,-3.1087,-3.1233,-3.1682,-3.192,-3.2294,-3.2777,-3.2841,-3.3517,-3.4972,-3.4703,-3.5048,-3.6022,-3.5861,-3.5444,-3.4912,-3.4728,-3.4341,-3.3851,-3.4461,-3.4662,-3.4714,-3.4728,-3.4528,-3.4259,-3.4743,-3.5073,-3.5285,-3.5767,-3.5703,-3.51,-3.3557,-3.2919,-3.2954,-3.3621,-3.3901,-3.3963,-3.3963,-3.4181,-3.4212,-3.3261,-3.3049,-3.2993,-3.2505,-3.2231,-3.2094,-3.2094,-3.2094,-3.215,-3.2247,-3.2247,-3.2302,-3.2398,-3.2398,-3.2398,-3.2398,-3.2398,-3.2244,-3.1751,-3.1505,-3.1059,-3.0104,-2.8673,-2.752,-2.6982,-2.6443,-2.5974,-2.5536,-2.5481,-2.5481,-2.5481,-2.5481,-2.5481,-2.5481,-2.5481,-2.5481,-2.5481,-2.5481,-2.5481,-2.5481,-2.5481,-2.5701,-2.6136,-2.6136,-2.6336,-2.6678,-2.6678,-2.6779,0.0,0.0,-2.051,-2.1266,-2.2297,-2.342,-2.461,-2.564,-2.6446,-2.7113,-2.7291,-2.7393,-2.7784,-2.756,-2.7921,-2.9554,-2.9819,-3.0411,-3.1995,-3.179,-3.1834,-3.2823,-3.2447,-3.2357,0.0,-3.2641,-3.2342,-3.2398,-3.3013,-3.3455,-3.347,-3.5269,-3.6279,-3.6327,-3.6916,-3.7279,-3.737,-3.6723,-3.6368,-3.6305,-3.5718,-3.5439,-3.5439,-3.5574,-3.5688,-3.5688,-3.5831,-3.591,-3.591,-3.5973,-3.5973,-3.5973,-3.5973,-3.61,-3.6133,-3.6087,-3.5597,-3.5115,-3.5867,-3.6212,-3.6368,-3.6368,-3.5984,-3.5445,-3.543,-3.4475,-3.3398,-3.3383,-3.2906,-3.2398,-3.2398,-3.2398,-3.2398,-3.2398,-3.2398,-3.2398,-3.2398,-3.2398,-3.2398,-3.2398,-3.2398,-3.2382,-3.2367,-3.1813,-3.1366,-3.1336,-3.0714,-2.9602,-2.773,-2.699,-2.6678,-2.6625,-2.6625,-2.6625,-2.6625,-2.6625,-2.6625,-2.6625,-2.6625,-2.6625,-2.6625,-2.6625,-2.6625,-2.6625,-2.6625,-2.6678,-2.6678,-2.6678,-2.6678,-2.6678,-2.6678,-2.7065,-2.0228,0.0,-2.2925,-2.3873,-2.4713,-2.5624,-2.6663,-2.7171,-2.7459,-2.7685,-2.7399,-2.7112,-2.7228,-2.7508,-2.8047,-2.9076,-3.0008,-3.1051,-3.254,-3.2337,-3.2368,-3.3176,-3.3226,0.0,0.0,0.0,0.0,-3.2933,-3.3591,-3.4242,-3.4642,-3.5764,-3.659,-3.7065,-3.7302,-3.7429,-3.7429,-3.7191,-3.7071,-3.7071,-3.6951,-3.689,-3.689,-3.7055,-3.71,-3.7115,-3.7175,-3.7219,-3.7322,-3.7322,-3.7397,-3.7488,-3.7103,-3.6937,-3.6997,-3.6997,-3.6845,-3.6585,-3.6461,-3.6414,-3.6492,-3.6492,-3.6338,-3.6061,-3.5614,-3.4845,-3.4014,-3.3537,-3.2921,-3.2398,-3.2398,-3.2398,-3.2398,-3.2398,-3.2398,-3.2398,-3.2398,-3.2398,-3.2398,-3.2398,-3.2398,-3.2398,-3.2398,-3.2198,-3.1905,-3.1459,-3.0843,-2.9867,-2.8426,-2.8099,-2.7661,-2.6788,-2.6678,-2.6678,-2.6678,-2.6678,-2.6678,-2.6678,-2.6678,-2.6678,-2.6678,-2.6678,-2.6678,-2.6678,-2.6678,-2.6886,-2.7246,-2.7706,-2.8151,-2.8474,-2.8979,-2.9334,-2.1708,-2.3303,-2.5088,-2.6093,-2.6816,-2.748,-2.8137,-2.8195,-2.8048,-2.7804,-2.727,-2.6873,-2.6934,-2.6842,-2.7317,-2.9221,-3.0026,-3.1114,-3.3216,-3.3038,-3.2983,-3.3855,-3.3862,-3.3889,0.0,0.0,0.0,-3.3527,-3.4457,-3.5176,-3.5584,-3.6765,-3.7601,-3.8067,-3.8084,-3.8084,-3.8084,-3.7838,-3.7663,-3.7472,-3.7589,-3.7648,-3.7706,-3.7806,-3.7847,-3.7863,-3.7921,-3.8035,-3.8133,-3.8133,-3.8206,-3.8278,-3.7838,-3.7738,-3.7738,-3.7738,-3.7738,-3.7679,-3.7282,-3.7163,-3.7163,-3.7163,-3.7163,-3.7024,-3.6378,-3.554,-3.4701,-3.3979,-3.3106,-3.2398,-3.2398,-3.2398,-3.2398,-3.2398,-3.2398,-3.2398,-3.2398,-3.2398,-3.2398,-3.2398,-3.2398,-3.2398,-3.2398,-3.2398,-3.2244,-3.1813,-3.1397,-3.0692,-2.9394,-2.9221,-2.8951,-2.8122,-2.7817,-2.7669,-2.7669,-2.7461,-2.7327,-2.7327,-2.7327,-2.7327,-2.7327,-2.7327,-2.7327,-2.7327,-2.755,-2.7823,-2.8208,-2.8888,-2.9444,-2.9781,-3.0228,-3.0603,-2.3169,-2.5105,-2.6861,-2.7777,-2.8545,-2.9048,-2.9017,-2.8716,-2.8263,-2.7627,-2.7047,-2.6722,0.0,0.0,-2.5989,-2.987,-2.9996,-3.0728,-3.4039,-3.3891,-3.3822,0.0,0.0,0.0,0.0,0.0,0.0,-3.4348,0.0,-3.6263,-3.6312,-3.8196,-3.9272,-3.9272,-3.9272,-3.9272,-3.9272,-3.8662,-3.8108,-3.7706,-3.7806,-3.7937,-3.7937,-3.8076,-3.8117,-3.8117,-3.8318,-3.839,-3.839,-3.839,-3.839,-3.839,-3.8334,-3.8351,-3.8351,-3.8351,-3.8351,-3.8351,-3.839,-3.8334,-3.8278,-3.8278,-3.8278,-3.8181,-3.7637,-3.6495,-3.5347,-3.4752,-3.3573,-3.2492,-3.2492,-3.2437,-3.2453,-3.2492,-3.2437,-3.2453,-3.2492,-3.2492,-3.2492,-3.2492,-3.2492,-3.2492,-3.2492,-3.2492,-3.2492,-3.2492,-3.2492,-3.1975,-3.0643,-3.0474,-3.0458,-3.0428,-2.9843,-2.9458,-2.9458,-2.8873,-2.8504,-2.8504,-2.8504,-2.8504,-2.8504,-2.8504,-2.8504,-2.8504,-2.9135,-2.9458,-2.9458,-3.0151,-3.0474,-3.0474,-3.0505,-3.0911,-2.5062,-2.6849,-2.8369,-2.8363,-2.8907,-2.9391,-2.9122,-2.8607,-2.8097,-2.7615,-2.6606,-2.5738,0.0,0.0,0.0,-2.8855,-3.0096,0.0,-3.3958,-3.4284,0.0,-3.6085,0.0,-3.6588,-3.7352,-3.742,0.0,0.0,-3.7003,-3.7112,-3.7656,-3.8722,-3.9272,-3.9272,-3.9272,-3.9272,-3.9272,-3.9255,-3.9169,-3.9152,-3.9312,-3.9365,-3.9382,-3.9506,-3.9542,-3.9558,-3.9627,-3.9627,-3.9627,-3.9627,-3.9627,-3.9575,-3.9135,-3.8974,-3.8974,-3.8974,-3.8974,-3.9028,-3.947,-3.9065,-3.8278,-3.8278,-3.8278,-3.8278,-3.8124,-3.7086,-3.5975,-3.5812,-3.4734,-3.3578,-3.3578,-3.3303,-3.3093,-3.3527,-3.3319,-3.3108,-3.3527,-3.3578,-3.3578,-3.3578,-3.3578,-3.3578,-3.3578,-3.3578,-3.3578,-3.3578,-3.3578,-3.3002,-3.135,-3.1136,-3.0951,-3.0474,-3.0274,-3.0166,-3.0166,-3.0012,-2.9904,-2.9904,-2.9904,-2.9904,-2.9904,-2.9904,-2.9904,-2.9904,-3.0089,-3.0166,-3.0166,-3.0828,-3.1204,-3.1325,-3.1782,-3.2284,-2.678,-2.8409,-2.9704,-2.9666,-2.9982,-3.0049,-2.91,-2.8347,-2.7582,-2.6539,-2.5579,0.0,-2.4563,-2.486,0.0,0.0,0.0,0.0,-3.4084,-3.5182,-3.5967,0.0,-3.7314,0.0,-3.8259,-3.8294,-3.8413,0.0,-3.8311,-3.8253,-3.8673,-3.9396,-3.9713,-3.959,-3.959,-3.9484,-3.9395,-3.959,-3.9694,-3.9781,-3.9935,-3.9986,-3.9986,-4.0087,-4.007,-4.007,-4.007,-4.007,-4.007,-4.007,-4.007,-4.007,-3.9747,-3.9575,-3.9575,-3.9575,-3.9575,-3.9644,-3.9969,-3.9679,-3.9065,-3.9065,-3.9065,-3.9065,-3.8794,-3.7916,-3.6967,-3.6393,-3.5364,-3.4408,-3.4066,-3.3767,-3.3614,-3.3935,-3.3767,-3.3614,-3.3935,-3.3986,-3.3986,-3.3986,-3.3986,-3.3986,-3.3986,-3.3986,-3.3986,-3.3986,-3.3986,-3.3639,-3.2692,-3.2525,-3.2399,-3.2021,-3.1706,-3.1533,-3.1533,-3.125,-3.1126,-3.1126,-3.1126,-3.1126,-3.1126,-3.1126,-3.1126,-3.1126,-3.1376,-3.1533,-3.1533,-3.2282,-3.2665,-3.2748,-3.3181,-3.3387,-2.8341,-2.9744,-3.076,-3.0998,-3.1114,-3.0656,-2.887,-2.7872,-2.6837,-2.5151,0.0,-2.4039,-2.3811,-2.355,-2.4532,-2.811,0.0,-3.1072,-3.4362,-3.5941,-3.697,-3.7367,-3.8019,-3.85,-3.8706,-3.8723,-3.8963,-3.9564,-3.9615,-3.9568,-3.9457,-4.0041,-4.0269,-4.0037,-4.0037,-3.9969,-3.9729,-3.9969,-4.007,-4.0121,-4.0171,-4.0221,-4.0171,-4.0121,-4.007,-4.007,-4.007,-4.007,-4.007,-4.007,-4.007,-4.007,-4.007,-4.007,-4.007,-4.007,-4.007,-4.007,-4.007,-4.007,-4.007,-4.007,-4.007,-4.002,-3.947,-3.885,-3.8015,-3.6771,-3.5915,-3.5165,-3.4414,-3.4185,-3.4119,-3.4185,-3.4185,-3.4136,-3.4185,-3.4235,-3.4235,-3.4235,-3.4235,-3.4235,-3.4235,-3.4235,-3.4235,-3.4235,-3.4235,-3.4235,-3.4235,-3.4086,-3.3986,-3.3986,-3.3485,-3.3113,-3.3113,-3.2594,-3.2284,-3.2284,-3.2284,-3.2284,-3.2284,-3.2284,-3.2284,-3.2284,-3.2853,-3.3161,-3.3161,-3.3844,-3.4235,-3.4235,-3.4382,-3.4252,-2.947,-3.0494,-3.0966,-3.0496,-3.0608,-3.0248,-2.8168,-2.6964,0.0,0.0,-2.3944,-2.343,-2.3123,-2.3727,-2.5111,-2.7709,0.0,0.0,0.0,0.0,-3.6172,0.0,0.0,0.0,0.0,-4.1024,0.0,0.0,-4.1198,-4.0909,-4.026,-4.0331,-4.0449,-4.0628,-4.0814,-4.092,-4.0984,-4.103,-4.1122,-4.1213,-4.0832,-4.0659,-4.0676,-4.0271,-4.007,-4.007,-4.007,0.0,-4.007,-4.007,-4.007,-4.007,-4.007,-4.007,-4.007,-4.007,-4.007,-4.007,-4.007,-4.007,-4.007,-4.007,-4.007,-4.007,-3.9969,-3.9463,-3.8688,-3.7833,-3.7093,-3.632,-3.5518,-3.4975,-3.4769,-3.5224,-3.4975,-3.4769,-3.5224,-3.5316,-3.5316,-3.5316,-3.5316,-3.5316,-3.5316,-3.5316,-3.5316,-3.5316,-3.5316,-3.5316,-3.5316,-3.4529,-3.3986,-3.3986,-3.3872,-3.3841,-3.3841,-3.3744,-3.3697,-3.3828,-3.3697,-3.3697,-3.3828,-3.3697,-3.3663,-3.3663,-3.3777,-3.3875,-3.4007,-3.4121,-3.4333,-3.4528,-3.4528,-3.4592,-2.9754,-3.0593,-3.0895,-3.0606,-3.0542,-2.995,-2.7553,0.0,0.0,0.0,-2.3333,-2.3135,-2.2971,-2.3717,0.0,0.0,0.0,0.0,0.0,0.0,0.0,0.0,0.0,0.0,0.0,-4.1376,-4.1604,-4.1604,-4.1604,-4.1453,-4.1053,-4.0943,-4.1036,-4.1248,-4.1213,-4.1241,-4.1303,-4.1348,-4.1437,-4.1481,-4.1276,-4.1139,-4.1139,-4.0926,-4.0832,-4.0832,-4.0832,-4.0832,-4.0832,-4.0563,-4.0434,-4.0434,-4.0221,-4.007,-4.0138,-4.0188,-4.0188,-4.0238,-4.0271,-4.0337,-4.0337,-4.0337,-4.0288,-4.0188,-4.0188,-3.9679,-3.895,-3.8265,-3.7471,-3.6661,-3.6004,-3.5605,-3.5498,-3.5756,-3.5605,-3.5498,-3.5739,-3.58,-3.58,-3.58,-3.58,-3.58,-3.58,-3.58,-3.58,-3.58,-3.58,-3.58,-3.58,-3.5345,-3.5005,-3.4864,-3.488,-3.4927,-3.4927,-3.5005,-3.5098,-3.5128,-3.5098,-3.5052,-3.5052,-3.5052,-3.5005,-3.4927,-3.5005,-3.5081,-3.5128,-3.522,-3.5328,-3.5419,-3.5448,-3.5402,-2.9782,-3.0537,-3.0936,-3.0936,-3.0635,-2.9653,-2.716,-2.6047,0.0,0.0,-2.2919,-2.2977,-2.2995,0.0,-2.4244,0.0,0.0,0.0,0.0,0.0,0.0,0.0,0.0,0.0,-4.0489,-4.1007,0.0,-4.1587,-4.1648,-4.1675,-4.1675,-4.1657,-4.1727,-4.1881,-4.1717,-4.1656,-4.1656,-4.1743,-4.1785,-4.1785,-4.17,-4.1656,-4.1674,-4.1525,-4.1481,-4.1481,-4.1481,-4.1481,-4.1481,-4.1094,-4.0926,-4.0943,-4.058,-4.0434,-4.0451,-4.0451,-4.0468,-4.0468,-4.0468,-4.0485,-4.0485,-4.0485,-4.0436,-4.0337,-4.0337,-3.9827,-3.9095,-3.8389,-3.7575,-3.6797,-3.6163,-3.6019,-3.6019,-3.6019,-3.6019,-3.6019,-3.6019,-3.6019,-3.6019,-3.6019,-3.6019,-3.6019,-3.6019,-3.6019,-3.6019,-3.6019,-3.6019,-3.6019,-3.6019,-3.6019,-3.5932,-3.5711,-3.5756,-3.5861,-3.5861,-3.5932,-3.6019,-3.6019,-3.6019,-3.5993,-3.5905,-3.5949,-3.5932,-3.5861,-3.5949,-3.6019,-3.6019,-3.6122,-3.6225,-3.6208,-3.6276,-3.6114,-2.9653,-3.0626,-3.1424,-3.1424,-3.0658,-2.9349,-2.7181,0.0,0.0,-2.3198,-2.2893,-2.2944,-2.2995,-2.3047,0.0,0.0,0.0,0.0,0.0,0.0,0.0,0.0,0.0,0.0,-4.034,-4.0533,0.0,-4.1552,-4.1762,-4.1874,-4.1874,-4.2269,-4.2512,-4.2512,-4.2691,-4.275,-4.275,-4.2768,-4.275,-4.2768,-4.2338,-4.2115,-4.2115,-4.17,-4.1481,-4.1481,-4.1481,-4.1481,0.0,-4.1437,-4.1455,-4.1437,-4.1516,-4.1561,-4.1516,-4.1139,-4.1047,-4.0955,-4.0645,-4.0485,-4.0485,-4.0485,-4.0485,-4.0485,-4.0485,-3.9973,-3.9221,-3.8435,-3.7684,-3.6887,-3.618,-3.6019,-3.6019,-3.6019,-3.6019,-3.6019,-3.6019,-3.6019,-3.6019,-3.6019,-3.6019,-3.6019,-3.6019,-3.6019,-3.6019,-3.6019,-3.6019,-3.6019,-3.6019,-3.6019,-3.5975,-3.5975,-3.5975,-3.5975,-3.5975,-3.5975,-3.6062,-3.6165,-3.6079,-3.6036,-3.6182,-3.6079,-3.5975,-3.5975,-3.5975,-3.6079,-3.6182,-3.6165,-3.6251,-3.6301,-3.6301,-3.6301,-2.9083,-3.0054,-3.0587,-3.0587,-2.9824,-2.8579,-2.6796,0.0,-2.4452,-2.3411,-2.3348,-2.3445,-2.3468,-2.3491,-2.3659,0.0,0.0,0.0,0.0,0.0,0.0,0.0,0.0,0.0,0.0,0.0,-4.1036,-4.1966,-4.1742,-4.1596,-4.1596,-4.2221,-4.2649,-4.2786,-4.2862,-4.2882,-4.2882,-4.2882,-4.2882,-4.2882,-4.2711,-4.2634,-4.2634,-4.244,-4.236,-4.236,-4.236,-4.236,0.0,-4.2098,-4.2032,-4.2015,-4.1828,-4.1743,-4.1743,-4.1682,-4.1639,-4.1568,-4.1016,-4.113,-4.1402,-4.0635,-4.0405,-4.0377,-4.0023,-3.935,-3.866,-3.7995,-3.7195,-3.65,-3.626,-3.6174,-3.6174,-3.6174,-3.6174,-3.6174,-3.6174,-3.6174,-3.6174,-3.6174,-3.6174,-3.6174,-3.6174,-3.6174,-3.6174,-3.6174,-3.6174,-3.6174,-3.6174,-3.6174,-3.6174,-3.6174,-3.6148,-3.6122,-3.6122,-3.6148,-3.6216,-3.6276,-3.6216,-3.6191,-3.6225,-3.6191,-3.6148,-3.6122,-3.6148,-3.6233,-3.6276,-3.6276,-3.6259,-3.6301,-3.6301,-3.6301,-2.8148,-2.9181,-2.985,-2.985,-2.899,-2.784,0.0,-2.5402,-2.4319,-2.3651,-2.3667,-2.3774,-2.371,-2.371,-2.3642,0.0,0.0,0.0,0.0,0.0,0.0,0.0,0.0,0.0,0.0,-3.9491,-4.0927,-4.1618,-4.131,-4.1063,-4.1139,-4.1661,-4.2044,-4.2194,-4.2176,-4.2176,-4.2176,-4.2176,-4.2176,-4.2176,-4.2176,-4.2176,-4.2176,-4.2176,-4.2176,-4.2176,-4.2231,-4.2231,0.0,-4.2026,-4.1931,-4.1893,-4.1626,-4.1529,-4.1546,-4.1797,-4.1743,-4.1493,-4.1109,-4.1234,-4.1332,-4.0435,-4.0193,-4.0092,-3.9417,-3.8807,-3.8243,-3.792,-3.7141,-3.6426,-3.6451,-3.6367,-3.6301,-3.6301,-3.6301,-3.6301,-3.6301,-3.6301,-3.6301,-3.6301,-3.6301,-3.6301,-3.6301,-3.6301,-3.6301,-3.6301,-3.6301,-3.6301,-3.6301,-3.6301,-3.6301,-3.6301,-3.6276,-3.6251,-3.6251,-3.6259,-3.6301,-3.6301,-3.6301,-3.6259,-3.6251,-3.6259,-3.6276,-3.6251,-3.6276,-3.6301,-3.6301,-3.6301,-3.6301,-3.6301,-3.6301,-3.6301,-2.6808,-2.8151,-2.9523,-2.9523,-2.8435,-2.7278,-2.681,-2.5561,-2.4367,-2.3894,-2.3795,-2.3732,-2.3531,-2.3504,-2.3412,-2.3151,0.0,0.0,0.0,0.0,0.0,0.0,0.0,0.0,-3.6853,-3.8956,-4.022,-4.0236,-4.0236,0.0,-4.0492,-4.0528,-4.0528,-4.0528,-4.0528,-4.0528,-4.0528,-4.0528,-4.0528,-4.0528,-4.0528,-4.0528,-4.0528,-4.0528,-4.0528,-4.0528,-4.0671,-4.0706,0.0,-4.081,-4.081,-4.0826,-4.0909,-4.0924,-4.0982,-4.1434,-4.1107,-4.0456,-4.0853,-4.0481,-3.9818,-3.98,-3.98,-3.9658,-3.8839,-3.8394,-3.8174,-3.8513,-3.7792,-3.69,-3.69,-3.6597,-3.6301,-3.6301,-3.6301,-3.6301,-3.6301,-3.6301,-3.6301,-3.6301,-3.6301,-3.6301,-3.6301,-3.6301,-3.6301,-3.6301,-3.6301,-3.6301,-3.6301,-3.6301,-3.6301,-3.6301,-3.6301,-3.6301,-3.6301,-3.6301,-3.6301,-3.6301,-3.6301,-3.6301,-3.6301,-3.6301,-3.6301,-3.6301,-3.6301,-3.6301,-3.6301,-3.6301,-3.6301,-3.6301,-3.6301,-3.6301,-2.6476,-2.7335,-2.778,-2.778,-2.7093,-2.6258,-2.5564,-2.4374,-2.3515,-2.3926,-2.3676,-2.3548,-2.4081,-2.4191,-2.4279,-2.462,-2.4932,0.0,0.0,0.0,0.0,0.0,0.0,0.0,0.0,0.0,-4.0181,-4.0848,-4.0427,-4.0166,-4.0198,-3.9538,-3.954,-4.0474,-4.051,-4.051,-4.051,-4.051,-4.051,-4.051,-4.051,-4.0564,-4.0652,-4.0652,-4.0669,-4.0704,-4.0739,-4.0792,-4.0773,-4.0823,-4.0891,-4.0891,-4.0976,-4.1027,-4.1046,-4.1183,-4.1095,-4.0821,-4.0409,-4.0431,-4.0542,-3.968,-3.9428,-3.9409,-3.9103,-3.8722,-3.8368,-3.7968,-3.7573,-3.7321,-3.7321,-3.7208,-3.7132,-3.7132,-3.7132,-3.7132,-3.7132,-3.7132,-3.7132,-3.7132,-3.7132,-3.7132,-3.7132,-3.7132,-3.7132,-3.7132,-3.7132,-3.7132,-3.7132,-3.7132,-3.7132,-3.7132,-3.7132,-3.69,-3.6343,-3.6301,-3.6301,-3.6301,-3.6301,-3.6301,-3.6301,-3.6301,-3.6301,-3.6301,-3.6301,-3.6301,-3.6301,-3.6301,-3.6301,-3.6301,-3.6301,-3.6301,0.0,-2.59,-2.6179,-2.6509,-2.5823,-2.4982,-2.4567,-2.3429,-2.2611,-2.3179,-2.3007,-2.2982,-2.3746,-2.3895,-2.41,-2.4697,-2.4866,0.0,0.0,0.0,0.0,0.0,0.0,0.0,0.0,-3.9398,-3.9767,-4.0283,-3.9896,-3.9637,-3.9637,-3.9001,-3.903,-3.9874,-3.9726,-3.9641,-3.9641,-3.9641,-3.9623,-3.9657,-3.9657,-3.9745,-3.9829,-3.9829,-3.9881,-3.9896,-3.9929,-3.9929,0.0,-4.0028,-4.0061,-4.0093,-4.0162,-4.0194,-4.023,-4.0543,-4.0469,-4.0175,-3.9974,-4.0029,-4.0038,-3.9261,-3.9064,-3.9064,-3.9013,-3.8826,-3.8526,-3.8092,-3.7844,-3.7739,-3.7739,-3.7614,-3.7505,-3.7505,-3.7505,-3.7505,-3.7505,-3.7505,-3.7505,-3.7505,-3.7505,-3.7505,-3.7505,-3.7505,-3.7505,-3.7505,-3.7505,-3.7505,-3.7505,-3.7505,-3.7505,-3.7505,-3.7505,-3.7321,-3.6799,-3.6741,-3.6741,-3.6741,-3.6741,-3.6741,-3.6741,-3.6741,-3.6741,-3.6741,-3.6597,-3.6597,-3.6741,-3.6597,-3.6451,-3.6301,-3.6301,-3.6301,0.0,-2.3858,-2.4621,-2.5416,-2.4545,-2.3533,-2.3721,-2.2667,0.0,-2.1946,-2.1959,-2.2115,-2.2812,-2.2923,-2.3143,-2.3824,-2.4147,0.0,0.0,0.0,0.0,0.0,0.0,0.0,-3.8044,-3.8809,-3.9129,-3.895,-3.895,-3.895,-3.895,-3.8921,-3.8921,-3.8921,-3.8496,-3.8241,-3.8225,-3.8225,-3.8241,-3.8307,-3.8307,-3.8354,-3.8415,-3.8415,-3.8415,0.0,-3.8478,-3.851,-3.851,-3.8658,-3.8707,-3.8707,-3.8707,-3.8707,-3.8799,-3.9533,-3.9331,-3.8817,-3.9551,-3.9331,-3.8707,-3.8707,-3.8707,-3.8707,-3.8707,-3.8707,-3.8707,-3.8707,-3.8433,-3.8135,-3.8135,-3.7879,-3.7578,-3.7578,-3.7578,-3.7578,-3.7578,-3.7578,-3.7578,-3.7578,-3.7578,-3.7578,-3.7578,-3.7578,-3.7578,-3.7578,-3.7578,-3.7578,-3.7578,-3.7578,-3.7578,-3.7578,-3.7578,-3.7578,-3.7578,-3.7542,-3.7505,-3.7505,-3.7505,-3.7505,-3.7505,-3.7505,-3.7505,-3.7505,-3.7132,-3.7132,-3.7505,-3.7114,-3.6759,-3.6343,-3.6343,-3.6343,-2.0137,0.0,-2.2717,-2.2885,-2.2627,-2.2385,0.0,-2.1694,-2.1208,0.0,0.0,0.0,-2.2893,-2.3135,-2.3598,-2.5079,-2.5876,-2.6693,0.0,0.0,0.0,0.0,0.0,-3.907,-3.9208,-3.9414,-3.9502,-3.9432,-3.9451,-3.9451,-3.9451,-3.9229,-3.9183,-3.929,-3.899,-3.87,-3.851,-3.851,-3.8446,-3.8368,-3.8368,-3.8415,-3.8478,-3.8478,-3.8528,-3.8627,-3.8658,-3.8658,-3.8658,-3.8707,-3.8707,-3.8707,-3.8707,-3.8707,-3.8726,-3.8909,-3.8854,-3.8726,-3.8927,-3.8854,-3.8707,-3.8707,-3.8707,-3.8707,-3.8707,-3.8707,-3.8707,-3.8707,-3.8627,-3.8564,-3.8564,-3.8483,-3.8401,-3.8401,-3.8401,-3.8401,-3.8401,-3.8401,-3.8401,-3.8401,-3.8401,-3.8401,-3.8401,-3.8401,-3.8401,-3.8401,-3.8401,-3.8401,-3.8401,-3.8401,-3.8401,-3.8401,-3.8401,-3.8401,-3.8401,-3.7844,-3.7505,-3.7505,-3.7505,-3.7505,-3.7505,-3.7505,-3.7505,-3.7505,-3.7432,-3.7432,-3.7505,-3.7395,-3.7152,-3.6759,-3.6759,-3.6597,-1.8354,-2.0047,-2.1734,-2.2449,-2.2337,-2.2058,-2.2058,0.0,0.0,0.0,0.0,0.0,0.0,0.0,0.0,0.0,-2.617,0.0,0.0,0.0,0.0,0.0,0.0,-3.9602,0.0,-3.9631,-3.9637,-3.9637,-3.9703,-3.9727,-3.9727,-3.9594,-3.9551,-3.9642,-3.9508,-3.9242,-3.8886,-3.8886,-3.8857,-3.8799,-3.8799,-3.8857,-3.898,-3.898,-3.8942,-3.8881,-3.8881,-3.8792,-3.8707,-3.8707,-3.8707,-3.8707,-3.8707,-3.8707,-3.8707,-3.8707,-3.8707,-3.8707,-3.8707,-3.8707,-3.8707,-3.8719,-3.875,-3.875,-3.878,-3.881,-3.878,-3.8738,-3.8707,-3.8707,-3.8707,-3.8707,-3.8707,-3.8707,-3.8707,-3.8707,-3.8707,-3.8707,-3.8707,-3.8707,-3.8707,-3.8707,-3.8707,-3.8707,-3.8707,-3.8707,-3.8707,-3.8707,-3.8707,-3.8707,-3.8707,-3.8707,-3.8707,-3.8707,-3.8707,-3.8285,-3.8068,-3.8068,-3.8068,-3.8068,-3.8068,-3.8068,-3.7948,-3.7774,-3.7948,-3.7879,-3.7505,-3.7685,-3.7578,-3.717,-3.717,-3.7055,-1.7371,-1.907,-2.1045,-2.2305,-2.2361,-2.2062,-2.1932,0.0,0.0,0.0,0.0,0.0,0.0,0.0,0.0,0.0,0.0,0.0,0.0,0.0,0.0,0.0,0.0,0.0,-3.965,-3.9708,-3.9717,-3.9717,-3.9826,-3.9889,-3.9889,-3.9889,-3.9911,-3.9933,-3.9933,-3.9762,-3.9377,-3.9327,-3.9301,-3.9327,-3.9327,-3.9396,-3.9502,-3.9502,-3.9376,-3.9156,-3.9156,0.0,-3.8822,-3.878,-3.875,-3.875,-3.8738,-3.8707,-3.8707,-3.8689,-3.8738,-3.8738,-3.8738,-3.8719,-3.8719,-3.8792,-3.8822,-3.8822,-3.8862,-3.891,-3.8881,-3.875,-3.8719,-3.8719,-3.8719,-3.8719,-3.8738,-3.8738,-3.8738,-3.8689,-3.8707,-3.8707,-3.8689,-3.8707,-3.8707,-3.8707,-3.8707,-3.8707,-3.8707,-3.8689,-3.8738,-3.8738,-3.8738,-3.8719,-3.8738,-3.8738,-3.8707,-3.8707,-3.8707,-3.8707,-3.8707,-3.8707,-3.8707,-3.8707,-3.8707,-3.8707,-3.8546,-3.8219,-3.8515,-3.8368,-3.7685,-3.8034,-3.7982,-3.7614,-3.7614,-3.756,-1.775,-1.9119,-1.9845,-1.9294,-2.0658,-2.1924,-2.1237,0.0,0.0,0.0,0.0,0.0,0.0,0.0,0.0,0.0,0.0,0.0,0.0,0.0,0.0,0.0,0.0,-3.9735,-3.9845,-3.9867,-3.9867,-3.9867,-3.9889,-3.9889,-3.9889,-3.9889,-3.9954,-4.0076,-4.0057,-4.0077,-4.0138,-3.9785,-3.958,-3.9483,-3.9483,-3.9483,-3.9502,-3.9502,-3.9477,-3.9452,0.0,-3.9427,-3.9376,-3.9129,-3.9045,-3.9036,-3.878,-3.8707,-3.8707,-3.8762,-3.8792,-3.8792,-3.8851,-3.8881,-3.8881,-3.8881,-3.8862,-3.8881,-3.891,-3.891,-3.891,-3.8881,-3.8881,-3.8881,-3.8881,-3.8822,-3.8792,-3.8792,-3.8792,-3.8762,-3.8689,-3.875,-3.878,-3.8707,-3.8707,-3.8707,-3.8707,-3.8707,-3.8719,-3.878,-3.8792,-3.8792,-3.8851,-3.8822,-3.8792,-3.8792,-3.8719,-3.8707,-3.8707,-3.8707,-3.8707,-3.8707,-3.8707,-3.8707,-3.8707,-3.8707,-3.8658,-3.8596,-3.8676,-3.8627,-3.8515,-3.8596,-3.8415,-3.808,-3.808,-3.7928,-1.63,-1.7885,-1.91,-1.8663,-2.074,-2.2749,-2.2393,0.0,0.0,0.0,0.0,0.0,0.0,0.0,0.0,0.0,0.0,0.0,0.0,0.0,0.0,0.0,0.0,-3.8483,-3.8544,-3.8607,-3.8667,-3.8667,-3.9145,-3.9203,-3.8727,-3.9603,-3.9927,-3.9528,-3.9967,-4.0234,-4.031,-4.0118,-3.9979,-3.9933,-3.9933,-3.9933,-3.9933,-3.9933,-3.9848,-3.9717,0.0,-3.9628,-3.9483,-3.9364,-3.9338,-3.9313,-3.9216,-3.9119,-3.8989,-3.891,-3.8833,-3.8881,-3.891,-3.891,-3.891,-3.8921,-3.895,-3.895,-3.9007,-3.9007,-3.9007,-3.9007,-3.895,-3.891,-3.891,-3.8881,-3.8833,-3.8833,-3.8833,-3.8851,-3.8792,-3.8822,-3.8833,-3.8792,-3.881,-3.881,-3.881,-3.881,-3.8822,-3.8851,-3.8833,-3.8881,-3.891,-3.8862,-3.8833,-3.8833,-3.8822,-3.881,-3.881,-3.881,-3.878,-3.8707,-3.8707,-3.8707,-3.8707,-3.8707,-3.8707,-3.8707,-3.8707,-3.8738,-3.8732,-3.8732,-3.8683,-3.8585,-3.8585,-3.8504,-1.5472,-1.7094,-1.8789,-1.9178,0.0,-2.3357,-2.3766,0.0,0.0,0.0,0.0,0.0,0.0,0.0,0.0,0.0,0.0,0.0,0.0,0.0,-3.6215,-3.6216,-3.6956,-3.745,-3.747,-3.7566,-3.7623,-3.7623,-3.8288,-3.84,-3.7731,-3.8973,-3.9411,-3.8742,-3.9373,-3.9736,-3.9736,-3.9752,-3.9925,-4.031,-4.031,-4.031,-4.031,-4.031,-4.0196,-4.0019,-4.0019,-3.9895,-3.9698,-3.9641,-3.9618,-3.9618,-3.9599,-3.95,-3.9357,-3.9129,-3.9036,-3.9017,-3.8979,-3.895,-3.895,-3.9007,-3.9007,-3.9036,-3.9073,-3.9101,-3.9101,-3.9101,-3.9036,-3.895,-3.895,-3.8921,-3.8921,-3.8921,-3.8921,-3.8939,-3.8892,-3.8892,-3.8939,-3.8892,-3.891,-3.891,-3.891,-3.891,-3.891,-3.8939,-3.8921,-3.8921,-3.895,-3.8921,-3.8921,-3.8921,-3.891,-3.891,-3.891,-3.891,-3.8851,-3.875,-3.875,-3.875,-3.875,-3.875,-3.875,-3.875,-3.875,-3.878,-3.8822,-3.8822,-3.8851,-3.8921,-3.8921,-3.8921,-1.6819,-1.7956,-1.9073,-2.0634,0.0,0.0,-2.4523,0.0,0.0,0.0,0.0,0.0,0.0,0.0,0.0,0.0,0.0,0.0,0.0,0.0,-3.6216,-3.6292,-3.7053,-3.7604,-3.7658,-3.7675,-3.7693,-3.7693,-3.7769,-3.7769,-3.7693,-3.7881,-3.7953,-3.7895,-3.8005,-3.8079,-3.8079,-3.806,-3.881,-4.0307,-4.0362,-4.0398,-4.0398,-4.0398,-4.0379,-4.0362,-4.0362,-4.0344,-4.0326,-4.0081,-3.9963,-3.9943,-3.9709,-3.9622,-3.966,-3.9433,-3.9401,-3.9427,-3.9165,-3.9073,-3.9073,-3.9101,-3.9101,-3.9101,-3.9101,-3.9101,-3.9101,-3.9101,-3.9101,-3.9073,-3.9073,-3.9036,-3.8979,-3.8979,-3.8979,-3.8997,-3.8892,-3.895,-3.8979,-3.8892,-3.891,-3.891,-3.891,-3.891,-3.8939,-3.8979,-3.8979,-3.9007,-3.9073,-3.9036,-3.8979,-3.8979,-3.8939,-3.891,-3.891,-3.891,-3.891,-3.8881,-3.8881,-3.8881,-3.8881,-3.8881,-3.8881,-3.8881,-3.8881,-3.8881,-3.8892,-3.8892,-3.8939,-3.8979,-3.8979,-3.9036,-1.5803,-1.7365,-1.9107,-2.024,0.0,0.0,0.0,0.0,0.0,0.0,0.0,0.0,0.0,0.0,0.0,0.0,0.0,0.0,-3.5028,-3.5429,-3.5656,-3.5684,-3.5971,-3.6179,-3.6211,-3.6208,-3.6208,-3.6208,-3.6706,-3.6782,-3.6246,-3.7258,-3.7603,-3.7083,-3.76,-3.7904,-3.7904,-3.7901,-3.8207,-3.8805,-3.8824,-3.8862,-3.8862,-3.8862,-3.8862,-3.8882,-3.938,-3.9591,-3.9629,-4.0095,-4.0325,-4.0288,-4.0062,-4.0002,-3.9982,-3.975,-3.966,-3.9683,-3.9566,-3.9464,-3.935,-3.935,-3.9245,-3.9101,-3.9101,-3.9101,-3.9101,-3.9101,-3.9101,-3.9101,-3.9101,-3.9073,-3.9045,-3.9045,-3.9045,-3.9064,-3.9017,-3.9045,-3.9045,-3.9017,-3.9017,-3.9017,-3.9017,-3.9017,-3.9017,-3.9045,-3.9045,-3.9073,-3.9101,-3.9073,-3.9045,-3.9045,-3.9045,-3.9017,-3.9017,-3.9017,-3.9017,-3.9017,-3.895,-3.891,-3.891,-3.891,-3.891,-3.891,-3.891,-3.8939,-3.895,-3.895,-3.9007,-3.9045,-3.9045,-3.9073,-1.5516,-1.7168,-1.9094,0.0,0.0,0.0,0.0,0.0,0.0,0.0,0.0,0.0,0.0,0.0,0.0,0.0,0.0,0.0,-3.512,-3.5308,-3.5304,-3.53,-3.5315,-3.5315,-3.5315,-3.5315,-3.5315,-3.5315,-3.5852,-3.5929,-3.5335,-3.6447,-3.6846,-3.6232,-3.6823,-3.7149,-3.7149,-3.7137,-3.7132,-3.7132,-3.7156,-3.7448,-3.7916,-3.7916,-3.7916,-3.7955,-3.8511,-3.8741,-3.8815,-3.9461,-3.9865,-4.0134,-4.0262,-4.0304,-4.025,-4.0003,-3.9922,-3.9903,-3.9819,-3.9705,-3.9585,-3.9585,-3.9464,-3.9313,-3.9245,-3.9219,-3.9192,-3.9129,-3.9101,-3.9101,-3.9101,-3.9101,-3.9101,-3.9101,-3.9101,-3.9101,-3.9101,-3.9101,-3.9101,-3.9101,-3.9101,-3.9101,-3.9101,-3.9101,-3.9101,-3.9101,-3.9101,-3.9101,-3.9101,-3.9101,-3.9101,-3.9101,-3.9101,-3.9101,-3.9101,-3.9101,-3.9101,-3.9101,-3.9017,-3.895,-3.895,-3.895,-3.895,-3.895,-3.895,-3.8979,-3.9036,-3.9036,-3.9064,-3.9101,-3.9101,-3.9101,-1.6407,-1.7629,0.0,0.0,0.0,0.0,0.0,0.0,0.0,0.0,0.0,0.0,0.0,0.0,0.0,0.0,-3.2804,-3.3379,-3.5047,-3.5296,-3.5296,-3.5296,-3.5296,-3.5296,-3.5296,-3.5296,-3.5296,-3.5296,-3.5296,-3.5296,-3.5296,-3.5364,-3.5412,-3.5412,-3.546,-3.5507,-3.5507,-3.5509,-3.5515,-3.5496,-3.556,-3.6421,-3.7988,-3.7988,-3.7988,-3.7988,-3.7988,-3.7988,-3.7988,-3.8007,-3.8507,-3.9373,-4.0162,-4.0489,-4.0473,-4.0286,-4.0214,-4.0158,-3.9901,-3.9819,-3.9797,-3.9797,-3.9797,-3.9754,-3.9561,-3.9502,-3.9433,-3.9183,-3.9101,-3.9101,-3.9101,-3.9101,-3.9101,-3.9101,-3.9101,-3.9101,-3.9101,-3.9101,-3.9101,-3.9101,-3.9101,-3.9101,-3.9101,-3.9101,-3.9101,-3.9101,-3.9101,-3.9101,-3.9101,-3.9101,-3.9101,-3.9101,-3.9101,-3.9101,-3.9101,-3.9101,-3.9101,-3.9101,-3.9101,-3.9101,-3.9101,-3.9101,-3.9101,-3.9101,-3.9101,-3.9101,-3.9101,-3.9101,-3.9101,-3.9101,-3.9101,-3.9101,-1.6474,0.0,0.0,0.0,0.0,0.0,0.0,0.0,0.0,0.0,0.0,0.0,0.0,0.0,0.0,-3.1774,-3.1947,-3.2535,-3.4227,-3.4457,-3.4702,-3.5353,-3.5443,-3.5463,-3.5509,-3.5509,-3.5509,-3.5509,-3.5509,-3.5509,-3.5509,-3.5522,-3.5554,-3.5554,-3.5554,-3.5566,-3.5566,-3.5579,-3.556,-3.556,-3.5591,-3.5861,-3.6318,-3.6254,-3.624,-3.6279,-3.6848,-3.7084,-3.7142,-3.7757,-3.8142,-3.8469,-3.9315,-3.9662,-3.9719,-4.023,-4.0406,-4.0425,-4.0372,-4.023,-4.0082,-4.0157,-4.0024,-3.9819,-3.9618,-3.9537,-3.9477,-3.9354,-3.9229,-3.9183,-3.9183,-3.9229,-3.9275,-3.9129,-3.9101,-3.9101,-3.9101,-3.9101,-3.9101,-3.9101,-3.9101,-3.9101,-3.9101,-3.9101,-3.9101,-3.9101,-3.9101,-3.9101,-3.9101,-3.9101,-3.9101,-3.9101,-3.9101,-3.9101,-3.9101,-3.9101,-3.9101,-3.9101,-3.9101,-3.9101,-3.9101,-3.9101,-3.9101,-3.9101,-3.9101,-3.9101,-3.9101,-3.9101,-3.9101,-3.9101,-3.9101,-3.9129,-1.7762,0.0,0.0,0.0,0.0,0.0,0.0,0.0,0.0,0.0,0.0,0.0,0.0,0.0,0.0,-3.1501,-3.1655,-3.2141,-3.3486,-3.3692,-3.3916,-3.4481,-3.4513,-3.4526,-3.4569,-3.4878,-3.4936,-3.4588,-3.5206,-3.5437,-3.5109,-3.5399,-3.5591,-3.5591,-3.5591,-3.5591,-3.5591,-3.5604,-3.5596,-3.5596,-3.5628,-3.5639,-3.5628,-3.5572,-3.5547,-3.5566,-3.6042,-3.626,-3.6337,-3.7165,-3.753,-3.7607,-3.8474,-3.8821,-3.8917,-3.9764,-4.0053,-4.0111,-4.0487,-4.0485,-4.0367,-4.0399,-4.0317,-4.0138,-3.9945,-3.9861,-3.9772,-3.9532,-3.9408,-3.9357,-3.929,-3.9346,-3.9346,-3.9183,-3.9175,-3.9202,-3.9202,-3.9202,-3.9202,-3.9156,-3.9183,-3.9202,-3.9101,-3.9129,-3.9129,-3.9101,-3.9101,-3.9101,-3.9101,-3.9101,-3.9101,-3.9101,-3.9101,-3.9101,-3.9101,-3.9101,-3.9101,-3.9101,-3.9101,-3.9101,-3.9101,-3.9101,-3.9101,-3.9101,-3.9101,-3.9101,-3.9101,-3.9129,-3.9129,-3.9129,-3.9202,-3.9229,0.0,0.0,0.0,0.0,0.0,0.0,0.0,0.0,0.0,0.0,0.0,0.0,0.0,0.0,-3.066,-3.146,-3.1648,-3.1978,-3.2776,-3.2932,-3.3015,-3.3087,-3.3041,-3.3006,-3.3006,-3.374,-3.3855,-3.3064,-3.4484,-3.5025,-3.4222,-3.4948,-3.5372,-3.5372,-3.5372,-3.5372,-3.5372,-3.5388,-3.5419,-3.5496,-3.5568,-3.5637,-3.5695,-3.5628,-3.5604,-3.5591,-3.5591,-3.5591,-3.5649,-3.6402,-3.6678,-3.6775,-3.7642,-3.797,-3.8086,-3.8954,-3.9282,-3.9378,-4.0125,-4.0428,-4.0486,-4.0409,-4.0486,-4.0574,-4.0271,-4.026,-4.0211,-3.9778,-3.9645,-3.9595,-3.9464,-3.9425,-3.9425,-3.9256,-3.9328,-3.9391,-3.9391,-3.9391,-3.9373,-3.9256,-3.9301,-3.9346,-3.9175,-3.9183,-3.9183,-3.9129,-3.9101,-3.9101,-3.9101,-3.9101,-3.9101,-3.9101,-3.9101,-3.9101,-3.9101,-3.9101,-3.9101,-3.9101,-3.9101,-3.9129,-3.9129,-3.9129,-3.9101,-3.9101,-3.9129,-3.9129,-3.9129,-3.9183,-3.921,-3.921,-3.9328,-3.9418,0.0,0.0,0.0,0.0,0.0,0.0,0.0,0.0,0.0,0.0,0.0,0.0,0.0,-3.0488,-3.0546,-3.0739,-3.0816,-3.1144,-3.1946,-3.2077,-3.2324,-3.3012,-3.3087,-3.3079,-3.3081,-3.3246,-3.3285,-3.3091,-3.3439,-3.3555,-3.3381,-3.3536,-3.3633,-3.3633,-3.3634,-3.3644,-3.3644,-3.3694,-3.4052,-3.4749,-3.4749,-3.5088,-3.5708,-3.5635,-3.5596,-3.5591,-3.5591,-3.5591,-3.5611,-3.5784,-3.5861,-3.5939,-3.6755,-3.7083,-3.718,-3.8047,-3.8375,-3.8408,-3.8627,-3.9123,-3.9548,-3.8916,-3.9612,-4.0505,-3.9681,-3.9832,-4.0283,-4.012,-4.0042,-3.9941,-3.9762,-3.9758,-3.9712,-3.9483,-3.9418,-3.9391,-3.9391,-3.9391,-3.9391,-3.9373,-3.9373,-3.9391,-3.9346,-3.9346,-3.9301,-3.9202,-3.9183,-3.9156,-3.9101,-3.9101,-3.9101,-3.9101,-3.9101,-3.9101,-3.9101,-3.9101,-3.9129,-3.9183,-3.9183,-3.9229,-3.9346,-3.9229,-3.9183,-3.9183,-3.9275,-3.9346,-3.9346,-3.9346,-3.9346,-3.9373,-3.9391,-3.9418,0.0,0.0,0.0,0.0,0.0,0.0,0.0,0.0,0.0,0.0,0.0,0.0,0.0,-3.0499,-3.0499,-3.0546,-3.0598,-3.0791,-3.1207,-3.1266,-3.1437,-3.1903,-3.1932,-3.1893,-3.1903,-3.229,-3.2348,-3.1928,-3.2677,-3.2967,-3.2546,-3.2918,-3.3142,-3.3142,-3.3161,-3.3141,-3.3141,-3.3179,-3.344,-3.3877,-3.3877,-3.4099,-3.4526,-3.5301,-3.5646,-3.5643,-3.5643,-3.5651,-3.5639,-3.5639,-3.5639,-3.5697,-3.6122,-3.6265,-3.6381,-3.7211,-3.752,-3.759,-3.8047,-3.8465,-3.8755,-3.8342,-3.8786,-3.9419,-3.8871,-3.9273,-3.9884,-3.9758,-4.0015,-4.0251,-4.0041,-4.002,-4.0,-3.987,-3.9661,-3.9495,-3.9495,-3.9495,-3.9495,-3.9444,-3.9469,-3.9495,-3.9418,-3.9391,-3.9391,-3.9301,-3.9301,-3.9275,-3.9248,-3.9229,-3.9229,-3.9229,-3.9229,-3.9229,-3.9229,-3.9229,-3.9275,-3.9301,-3.9301,-3.9346,-3.9391,-3.9354,-3.9328,-3.9301,-3.9373,-3.9391,-3.9391,-3.9444,-3.9444,-3.9444,-3.9495,-3.9502,0.0,0.0,0.0,0.0,0.0,0.0,0.0,0.0,0.0,0.0,0.0,0.0,-3.0307,-3.0423,-3.0528,-3.0614,-3.0662,-3.0723,-3.0714,-3.0717,-3.0726,-3.0719,-3.0651,-3.0623,-3.0621,-3.1263,-3.1374,-3.0672,-3.1942,-3.2438,-3.1702,-3.2369,-3.2762,-3.2762,-3.2762,-3.2762,-3.2762,-3.277,-3.2848,-3.2984,-3.3158,-3.3216,-3.3255,-3.4651,-3.535,-3.5505,-3.564,-3.5697,-3.5706,-3.5706,-3.5706,-3.5706,-3.5706,-3.5706,-3.5773,-3.645,-3.6682,-3.6798,-3.7514,-3.7881,-3.7967,-3.7812,-3.7967,-3.8179,-3.8025,-3.8586,-3.9257,-3.9273,-3.9783,-4.0331,-4.0266,-4.0251,-4.0251,-4.0214,-3.9956,-3.9703,-3.9674,-3.965,-3.9626,-3.9546,-3.9571,-3.9552,-3.9451,-3.9425,-3.9444,-3.9418,-3.9418,-3.9418,-3.9391,-3.9391,-3.9391,-3.9391,-3.9391,-3.9391,-3.9391,-3.9391,-3.9418,-3.9418,-3.9418,-3.9418,-3.9425,-3.9495,-3.9495,-3.9444,-3.9425,-3.9425,-3.9425,-3.9495,-3.952,-3.952,-3.9552,-3.9602,0.0,0.0,0.0,0.0,0.0,0.0,0.0,0.0,0.0,0.0,0.0,0.0,-2.9535,-3.0124,-3.0608,-3.0685,-3.0737,-3.0798,-3.0789,-3.0788,-3.0786,-3.0799,-3.0721,-3.0684,-3.0696,-3.0743,-3.075,-3.0691,-3.0843,-3.0901,-3.0773,-3.0881,-3.095,-3.095,-3.0995,-3.1022,-3.1022,-3.1025,-3.1402,-3.2171,-3.2936,-3.3285,-3.3285,-3.3518,-3.3999,-3.471,-3.5408,-3.5699,-3.5699,-3.5699,-3.5699,-3.5699,-3.5699,-3.5699,-3.5718,-3.5815,-3.5854,-3.5892,-3.5989,-3.6531,-3.7033,-3.6278,-3.7022,-3.8063,-3.7309,-3.7677,-3.8528,-3.925,-3.9528,-3.9754,-4.0312,-4.0457,-4.0425,-4.0251,-4.0158,-4.008,-3.9892,-3.9848,-3.9823,-3.9626,-3.9577,-3.9577,-3.9596,-3.9577,-3.9552,-3.9495,-3.9495,-3.9469,-3.9418,-3.9391,-3.9391,-3.9391,-3.9391,-3.9391,-3.9391,-3.9391,-3.9418,-3.9469,-3.9495,-3.952,-3.9552,-3.9577,-3.9577,-3.9577,-3.9577,-3.9577,-3.9577,-3.9577,-3.9596,-3.9596,-3.9596,-3.9602,0.0,0.0,0.0,0.0,0.0,0.0,0.0,0.0,0.0,0.0,0.0,-2.8104,-2.8579,-2.8968,-2.9382,-2.993,-3.0041,-3.0255,-3.0781,-3.0817,-3.0793,-3.0793,-3.0742,-3.07,-3.07,-3.0661,-3.0664,-3.07,-3.0665,-3.0664,-3.0659,-3.0664,-3.0661,-3.0661,-3.0676,-3.0695,-3.0695,-3.071,-3.0898,-3.1281,-3.165,-3.1858,-3.1909,-3.2396,-3.3043,-3.3826,-3.466,-3.502,-3.5059,-3.5514,-3.5708,-3.5708,-3.5708,-3.5708,-3.5708,-3.5708,-3.5708,-3.5708,-3.5708,-3.5951,-3.6212,-3.5824,-3.6202,-3.6734,-3.6346,-3.6831,-3.7605,-3.7992,-3.8438,-3.8903,-3.9192,-3.9264,-3.9251,-3.9166,-3.9133,-3.9206,-3.9495,-3.9833,-4.0,-3.9823,-3.9679,-3.9602,-3.9602,-3.9602,-3.9596,-3.9571,-3.9571,-3.9546,-3.952,-3.9502,-3.9502,-3.9502,-3.9502,-3.9502,-3.9502,-3.9502,-3.9502,-3.9571,-3.9571,-3.9571,-3.9602,-3.9602,-3.9602,-3.9602,-3.9602,-3.9602,-3.9602,-3.9602,-3.9602,-3.9602,-3.9602,-3.9607,0.0,0.0,0.0,0.0,0.0,0.0,0.0,0.0,0.0,0.0,0.0,-2.6772,-2.7386,-2.7842,-2.8369,-2.9074,-2.9194,-2.9433,-3.0142,-3.0193,-3.0155,-3.0155,-3.0105,-3.0155,-3.0396,-3.0407,-3.0498,-3.0706,-3.0701,-3.0697,-3.0701,-3.0697,-3.0704,-3.0704,-3.0717,-3.0737,-3.0737,-3.0737,-3.073,-3.0734,-3.0734,-3.0745,-3.0818,-3.1461,-3.2077,-3.2652,-3.3965,-3.4512,-3.4554,-3.5397,-3.5727,-3.5727,-3.5727,-3.5727,-3.5727,-3.5727,-3.5727,-3.5727,-3.5727,-3.5718,-3.5737,-3.5737,-3.5708,-3.5708,-3.5708,-3.6154,-3.6706,-3.6939,-3.7472,-3.8015,-3.8248,-3.8306,-3.8306,-3.8306,-3.8306,-3.8487,-3.9135,-3.9756,-4.0158,-4.0,-3.9848,-3.9754,-3.9754,-3.9703,-3.9679,-3.9679,-3.9626,-3.9602,-3.9602,-3.9602,-3.9602,-3.9607,-3.9631,-3.9631,-3.9656,-3.9674,-3.9674,-3.9674,-3.9674,-3.9674,-3.9674,-3.9674,-3.9674,-3.9679,-3.9674,-3.965,-3.9602,-3.9626,-3.9631,-3.9631,-3.9674,-3.9684,0.0,0.0,0.0,0.0,0.0,0.0,0.0,0.0,0.0,0.0,-2.5728,-2.5789,-2.5828,-2.7129,-2.8238,-2.8333,-2.8366,-2.8383,-2.844,-2.8422,-2.8422,-2.8422,-2.8378,-2.8672,-2.958,-2.9607,-2.991,-3.0722,-3.0749,-3.0701,-3.0701,-3.0695,-3.0697,-3.0697,-3.0764,-3.0799,-3.0799,-3.0799,-3.0799,-3.0799,-3.0799,-3.0799,-3.0799,-3.0857,-3.0896,-3.1067,-3.3531,-3.4567,-3.4575,-3.5441,-3.5791,-3.5791,-3.5791,-3.5791,-3.5791,-3.5791,-3.5791,-3.5791,-3.5791,-3.5801,-3.5803,-3.5803,-3.5747,-3.5708,-3.5708,-3.5728,-3.5941,-3.6765,-3.7036,-3.7249,-3.8093,-3.8306,-3.8306,-3.8306,-3.8306,-3.8476,-3.9069,-3.9736,-4.0212,-4.0196,-4.0177,-4.0177,-4.0177,-4.0,-3.9892,-3.9892,-3.9727,-3.9602,-3.9602,-3.9602,-3.9607,-3.9693,-3.9693,-3.9758,-3.9867,-3.9889,-3.9889,-3.9889,-3.9889,-3.9889,-3.9889,-3.9889,-3.9889,-3.9892,-3.9889,-3.9796,-3.9602,-3.9665,-3.9693,-3.9693,-3.9845,-3.9889,0.0,0.0,0.0,0.0,0.0,0.0,0.0,0.0,0.0,0.0,-2.5317,-2.5705,-2.5703,-2.6184,-2.6794,-2.737,-2.7466,-2.7659,-2.8225,-2.8303,-2.8303,-2.8303,-2.8288,-2.8405,-2.8728,-2.8708,-2.8808,-2.9101,-2.9111,-2.9093,-2.911,-2.9094,-2.9102,-2.9102,-2.9659,-3.0234,-3.0779,-3.0799,-3.0808,-3.0806,-3.0806,-3.0794,-3.0804,-3.0804,-3.0798,-3.0884,-3.2352,-3.3273,-3.379,-3.4666,-3.5353,-3.5857,-3.5857,-3.5842,-3.5799,-3.5799,-3.5799,-3.5799,-3.5799,-3.581,-3.5801,-3.5801,-3.5782,-3.5754,-3.5754,-3.5754,-3.5832,-3.6142,-3.6239,-3.6298,-3.6608,-3.6705,-3.6705,-3.6705,-3.7113,-3.7579,-3.776,-3.8311,-3.8796,-3.88,-3.9147,-3.9427,-3.9427,-3.9812,-4.0082,-4.0041,-3.9979,-3.9892,-3.98,-3.9796,-3.98,-3.9826,-3.9826,-3.9867,-3.9889,-3.9889,-3.9889,-3.9889,-3.9889,-3.9889,-3.9889,-3.9889,-3.9911,-3.9911,-3.9911,-3.9867,-3.9796,-3.9823,-3.9826,-3.9826,-3.9889,-3.9951,-1.1947,0.0,0.0,0.0,0.0,0.0,0.0,0.0,0.0,0.0,-2.51,-2.5703,-2.5701,-2.5701,-2.5898,-2.6466,-2.6564,-2.6778,-2.7347,-2.7422,-2.7422,-2.7422,-2.7437,-2.753,-2.7842,-2.7815,-2.7922,-2.8217,-2.8203,0.0,-2.82,-2.8192,-2.8205,-2.8223,-2.8798,-2.9526,-3.0396,-3.0396,-3.0521,-3.0807,-3.0807,-3.0791,-3.0801,-3.0801,-3.0796,-3.0827,-3.1409,-3.2136,-3.2966,-3.3818,-3.4684,-3.547,-3.547,-3.5626,-3.5838,-3.5838,-3.5838,-3.5838,-3.5838,-3.5838,-3.5838,-3.5838,-3.5838,-3.5838,-3.5838,-3.5838,-3.5838,-3.5838,-3.5838,-3.5838,-3.5838,-3.583,-3.5842,-3.5842,-3.6254,-3.6645,-3.6608,-3.7403,-3.8098,-3.8105,-3.8472,-3.8864,-3.9153,-3.9588,-3.9967,-4.0189,-4.0175,-4.0082,-3.9979,-3.9977,-3.9956,-3.9973,-3.9973,-3.9994,-4.0036,-4.0036,-4.0036,-4.0036,-4.0036,-4.0036,-4.0036,-4.0036,-4.0036,-4.0036,-4.0036,-4.0036,-4.0036,-3.9994,-3.9973,-3.9973,-4.0015,-4.0077,0.0,0.0,0.0,0.0,0.0,0.0,0.0,0.0,0.0,-2.4104,-2.4998,-2.562,-2.5659,-2.5673,-2.569,-2.5698,-2.5698,-2.5701,-2.5705,-2.5703,-2.5698,-2.5698,-2.5693,-2.6022,-2.6877,-2.6955,-2.7306,-2.8168,-2.8153,-2.8122,-2.8122,-2.8125,-2.8163,-2.8261,-2.826,-2.8687,-2.9554,-2.9554,-2.9964,-3.0762,-3.0762,-3.0782,-3.0801,-3.0801,-3.0801,-3.0801,-3.0801,-3.1269,-3.2129,-3.2927,-3.3779,-3.4559,-3.4559,-3.5109,-3.585,-3.585,-3.5889,-3.5908,-3.5908,-3.5908,-3.5908,-3.5908,-3.5908,-3.5908,-3.5908,-3.5908,-3.5908,-3.5908,-3.5908,-3.5908,-3.5908,-3.5905,-3.5905,-3.5905,-3.585,-3.5799,-3.5799,-3.7083,-3.822,-3.8239,-3.8248,-3.8519,-3.9372,-3.9386,-3.9546,-4.0318,-4.0277,-4.0132,-4.0082,-4.0062,-4.0081,-4.0098,-4.0117,-4.0157,-4.0291,-4.031,-4.031,-4.031,-4.031,-4.031,-4.031,-4.031,-4.031,-4.031,-4.031,-4.031,-4.031,-4.0157,-4.0117,-4.0117,-4.0234,-4.031,-1.1452,0.0,0.0,0.0,0.0,0.0,0.0,0.0,0.0,-2.1286,-2.2767,-2.4013,-2.4631,-2.5272,-2.5697,-2.5701,-2.5707,-2.5693,-2.5696,-2.5693,-2.5693,-2.5693,-2.5704,-2.5795,-2.6048,-2.6061,-2.6158,0.0,-2.6406,-2.639,-2.6395,-2.639,-2.6693,-2.7343,-2.7363,-2.7773,-2.8652,-2.8651,-2.9097,-2.9936,-2.9927,-3.0235,-3.0801,-3.0801,-3.0801,-3.0801,-3.0801,-3.0933,-3.1237,-3.2076,-3.2947,-3.373,-3.373,-3.4228,-3.4968,-3.4968,-3.5363,-3.5908,-3.5908,-3.5908,-3.5908,-3.5908,-3.5908,-3.5908,-3.5908,-3.5908,-3.5908,-3.5908,-3.5908,-3.5908,-3.5908,-3.5903,-3.5897,-3.5897,-3.5891,-3.5866,-3.5866,-3.6249,-3.6559,-3.6509,-3.7005,-3.751,-3.7762,-3.8278,-3.8683,-3.8829,-3.8781,-3.8929,-3.945,-3.9432,-3.9614,-4.0247,-4.0272,-4.0253,-4.031,-4.031,-4.031,-4.031,-4.031,-4.031,-4.031,-4.031,-4.031,-4.031,-4.031,-4.031,-4.031,-4.0253,-4.0234,-4.0234,-4.0272,-4.031,0.0,0.0,0.0,0.0,0.0,0.0,-1.6128,-1.7261,0.0,0.0,-2.1616,-2.2818,-2.3692,-2.4271,-2.4732,-2.5102,-2.5168,-2.5272,-2.5651,-2.5707,-2.5704,-2.5704,-2.5694,-2.5707,-2.5707,-2.5703,-2.5703,-2.5707,-2.5703,-2.5703,-2.5707,-2.5697,-2.593,-2.6436,-2.6433,-2.6823,-2.7709,-2.7713,-2.8144,-2.9023,-2.9411,-2.9853,-3.0302,-3.0648,-3.0801,-3.0801,-3.0841,-3.0841,-3.0841,-3.1387,-3.2104,-3.2856,-3.2856,-3.3376,-3.4144,-3.4515,-3.4963,-3.5455,-3.5825,-3.5942,-3.5942,-3.5942,-3.5942,-3.5942,-3.5942,-3.5942,-3.5942,-3.5942,-3.5942,-3.5942,-3.5942,-3.5914,-3.5904,-3.5904,-3.5899,-3.5908,-3.5908,-3.5908,-3.5897,-3.5857,-3.6246,-3.6713,-3.705,-3.7525,-3.7944,-3.8249,-3.8277,-3.8421,-3.8798,-3.8762,-3.8901,-3.9394,-3.9369,-3.9289,-3.9293,-3.9257,-3.9374,-3.9737,-3.9756,-3.9909,-4.0272,-4.0291,-4.0309,-4.0346,-4.0346,-4.0346,-4.0346,-4.0309,-4.0309,-4.0346,-4.0346,-4.0346,0.0,0.0,0.0,0.0,0.0,0.0,-1.7103,-1.7708,-1.8295,0.0,0.0,-2.1623,-2.2505,-2.2828,-2.3205,-2.3984,-2.4277,-2.4693,-2.5587,-2.5697,-2.5691,-2.5691,-2.5703,-2.5699,-2.5699,-2.5699,-2.5699,-2.5699,-2.5699,-2.5699,-2.5699,-2.5699,-2.5691,-2.5693,-2.5639,-2.5974,-2.6759,-2.6761,-2.719,-2.8071,-2.8906,-2.9393,-2.9608,-3.0323,-3.0706,-3.0801,-3.088,-3.088,-3.0823,-3.088,-3.1328,-3.1973,-3.1973,-3.25,-3.3358,-3.4139,-3.4471,-3.4686,-3.5545,-3.5857,-3.5876,-3.5971,-3.5991,-3.5991,-3.5991,-3.5991,-3.5991,-3.5991,-3.5991,-3.5991,-3.5991,-3.5962,-3.5912,-3.5912,-3.5914,-3.5919,-3.5919,-3.5919,-3.5908,-3.5898,-3.5891,-3.6125,-3.6833,-3.6966,-3.7233,-3.8019,-3.8127,-3.8119,-3.8083,-3.8074,-3.8073,-3.8114,-3.7997,-3.7921,-3.7905,-3.7795,-3.8053,-3.8838,-3.8972,-3.9353,-4.0116,-4.025,-4.0325,-4.0398,-4.0398,-4.0415,-4.0415,-4.0342,-4.0325,-4.0398,-4.0398,-4.0398,0.0,0.0,0.0,0.0,0.0,0.0,-1.5219,-1.5905,-1.6989,0.0,-1.8108,-1.8935,-1.9798,-2.1104,-2.2114,-2.227,-2.3478,-2.4705,-2.559,-2.5703,-2.5703,-2.5703,-2.5699,-2.5699,-2.5699,-2.5699,-2.5699,-2.5699,-2.5699,-2.5699,-2.5699,-2.5699,-2.5675,-2.5628,-2.56,-2.5673,-2.5853,-2.5842,-2.6287,-2.7168,-2.7335,-2.8154,-2.9529,-2.9686,-3.0175,-3.088,-3.0899,-3.0884,-3.0871,-3.0884,-3.0997,-3.1133,-3.1133,-3.1621,-3.2363,-3.2539,-3.3046,-3.3788,-3.4647,-3.4959,-3.5076,-3.5779,-3.5991,-3.5991,-3.5991,-3.5991,-3.5991,-3.5991,-3.5991,-3.5991,-3.5991,-3.5991,-3.5988,-3.5988,-3.5985,-3.5981,-3.5981,-3.5981,-3.5958,-3.5919,-3.5899,-3.5942,-3.6105,-3.6131,-3.6189,-3.6359,-3.6397,-3.6631,-3.7306,-3.7296,-3.7489,-3.8199,-3.8141,-3.804,-3.8001,-3.7959,-3.7978,-3.8118,-3.8714,-3.9172,-3.9325,-4.0015,-4.0398,-4.0398,-4.0398,-4.0432,-4.0485,-4.0415,-4.0398,-4.0398,-4.0398,-4.0398,0.0,0.0,0.0,-1.7944,0.0,0.0,0.0,-1.6648,-1.7009,-1.8248,-1.7839,-1.7762,-1.9444,0.0,-2.0651,-2.108,-2.2243,-2.3263,-2.3692,-2.4881,-2.5699,-2.5699,-2.5699,-2.5699,-2.5699,-2.5699,-2.5695,-2.5648,-2.5654,-2.5644,-2.5644,-2.5644,-2.5639,-2.5604,-2.5574,-2.5556,-2.5557,-2.5543,-2.5774,-2.6207,-2.6688,-2.7362,-2.8215,-2.8642,-2.9355,-3.0193,-3.0242,-3.0495,-3.0894,-3.0903,-3.0899,-3.0899,-3.0905,-3.1157,-3.1543,-3.1953,-3.2383,-3.2871,-3.3749,-3.4334,-3.4761,-3.521,-3.5639,-3.5991,-3.5991,-3.5999,-3.6003,-3.6003,-3.6003,-3.6003,-3.6003,-3.6003,-3.6003,-3.6003,-3.5999,-3.5991,-3.5991,-3.5991,-3.5991,-3.5962,-3.5955,-3.5938,-3.5914,-3.5899,-3.5904,-3.5894,-3.5908,-3.605,-3.6494,-3.6493,-3.6612,-3.706,-3.7004,-3.6938,-3.6899,-3.6798,-3.6922,-3.7281,-3.7663,-3.8054,-3.8476,-3.9355,-4.0008,-4.0444,-4.0444,-4.0479,-4.0495,-4.0479,-4.0444,-4.0444,-4.0444,-4.0444,0.0,0.0,0.0,0.0,0.0,-1.8932,0.0,0.0,0.0,0.0,0.0,0.0,0.0,0.0,0.0,0.0,0.0,0.0,0.0,-2.34,0.0,-2.4955,-2.5091,-2.527,-2.5422,-2.5286,-2.5317,-2.5571,-2.5293,-2.5251,-2.5582,-2.5601,-2.5595,-2.557,-2.5531,-2.5492,-2.5505,-2.5505,-2.5505,-2.5505,-2.6279,-2.6719,-2.6914,-2.7618,-2.8522,-2.9509,-2.9566,-3.0089,-3.0894,-3.0907,-3.0903,-3.0899,-3.0892,-3.0892,-3.0984,-3.1626,-3.188,-3.1997,-3.2853,-3.3615,-3.4239,-3.4396,-3.504,-3.5782,-3.5955,-3.6001,-3.6009,-3.5992,-3.5993,-3.5993,-3.5993,-3.5993,-3.5993,-3.5993,-3.6007,-3.5999,-3.5996,-3.5996,-3.5996,-3.5996,-3.5996,-3.5988,-3.5934,-3.5923,-3.5927,-3.5929,-3.5924,-3.5914,-3.5912,-3.5912,-3.5912,-3.5912,-3.587,-3.5833,-3.5813,-3.5679,-3.5847,-3.647,-3.6593,-3.6964,-3.7685,-3.852,-3.9304,-3.9988,-4.0181,-4.0181,-4.0008,-4.0335,-4.0489,-4.0489,-4.0489,-4.0489,0.0,0.0,0.0,0.0,-2.0948,-2.1549,0.0,0.0,-1.9642,-1.8491,0.0,0.0,0.0,0.0,0.0,0.0,0.0,0.0,-1.9603,-2.1084,-2.2247,-2.2247,-2.2921,-2.3685,-2.4389,-2.3805,-2.3999,-2.5493,-2.4171,-2.3975,-2.5523,-2.5601,-2.557,-2.5506,-2.5499,-2.5498,-2.5499,-2.5499,-2.5499,-2.5499,-2.5604,-2.6064,-2.6815,-2.6985,-2.7931,-2.9492,-2.957,-3.0096,-3.0895,-3.0898,-3.0894,-3.0901,-3.0897,-3.0898,-3.0918,-3.0992,-3.105,-3.1148,-3.1968,-3.2319,-3.2515,-3.3294,-3.4134,-3.4992,-3.5762,-3.5994,-3.6001,-3.5995,-3.5996,-3.5996,-3.5996,-3.5996,-3.5996,-3.5996,-3.5996,-3.5995,-3.5991,-3.6009,-3.6009,-3.6009,-3.6009,-3.6005,-3.5991,-3.5988,-3.5988,-3.5988,-3.5988,-3.5988,-3.5991,-3.5991,-3.5991,-3.5991,-3.5988,-3.5951,-3.5889,-3.5872,-3.5833,-3.5812,-3.6491,-3.6907,-3.7003,-3.7737,-3.818,-3.8277,-3.9027,-3.9065,-3.8296,-3.9777,-4.0489,-4.0489,-4.0489,-4.0489,0.0,0.0,0.0,0.0,0.0,0.0,-1.9258,0.0,-1.9153,0.0,0.0,0.0,0.0,0.0,0.0,0.0,-1.8512,0.0,0.0,0.0,-1.94,0.0,0.0,0.0,-2.2773,-2.2507,-2.2795,-2.4005,-2.2929,-2.2997,-2.4697,-2.4794,-2.5013,-2.5476,-2.5495,-2.5507,-2.5511,-2.5511,-2.5511,-2.5511,-2.5511,-2.5685,-2.6041,-2.606,-2.6767,-2.7933,-2.8003,-2.8803,-3.0097,-3.0098,-3.0409,-3.0896,-3.0898,-3.0898,-3.0898,-3.0898,-3.0898,-3.0956,-3.1288,-3.1738,-3.2304,-3.3124,-3.3984,-3.4764,-3.5134,-3.5601,-3.5993,-3.5996,-3.5996,-3.5996,-3.5996,-3.5996,-3.5996,-3.5996,-3.5996,-3.5996,-3.5995,-3.5995,-3.5995,-3.5992,-3.5991,-3.601,-3.6005,-3.5999,-3.5991,-3.5991,-3.5991,-3.5991,-3.5991,-3.5991,-3.5991,-3.5991,-3.5991,-3.5988,-3.5951,-3.5919,-3.5879,-3.5826,-3.6016,-3.635,-3.6819,-3.7107,-3.7488,-3.7988,-3.8354,-3.8373,-3.8007,-3.87,-3.9046,-3.9065,-4.0046,-4.0489,-2.3917,0.0,0.0,0.0,0.0,0.0,0.0,0.0,0.0,0.0,0.0,0.0,0.0,0.0,0.0,0.0,0.0,-1.7365,0.0,-1.5933,0.0,0.0,0.0,0.0,0.0,-2.0837,-2.1216,-2.2547,-2.1615,-2.1927,-2.4076,-2.4191,-2.4602,-2.5472,-2.5511,-2.5511,-2.5511,-2.5511,-2.5511,-2.5511,-2.5511,-2.5511,-2.5511,-2.5511,-2.5982,-2.6798,-2.6865,-2.7753,-2.9164,-2.9393,-2.9902,-3.0547,-3.0801,-3.0898,-3.0898,-3.0898,-3.0898,-3.0898,-3.0898,-3.1309,-3.1973,-3.2793,-3.3496,-3.4101,-3.4551,-3.5137,-3.5684,-3.5937,-3.5996,-3.5996,-3.5996,-3.5996,-3.5996,-3.5996,-3.5996,-3.5996,-3.5996,-3.5996,-3.5996,-3.5994,-3.5993,-3.5993,-3.5993,-3.6009,-3.6003,-3.5999,-3.5999,-3.5999,-3.5999,-3.5999,-3.5996,-3.5994,-3.5991,-3.5991,-3.5991,-3.5958,-3.5914,-3.5904,-3.5766,-3.5932,-3.6446,-3.6419,-3.6708,-3.7324,-3.7555,-3.7555,-3.7343,-3.7805,-3.7901,-3.7709,-3.9138,-3.9811,0.0,0.0,0.0,-2.136,0.0,0.0,0.0,0.0,-2.0352,0.0,0.0,0.0,0.0,0.0,0.0,0.0,0.0,0.0,0.0,0.0,0.0,0.0,0.0,0.0,0.0,-1.8522,-1.9066,0.0,-2.0158,-2.0656,-2.4022,-2.4196,-2.4602,-2.5472,-2.5511,-2.5511,-2.5511,-2.5511,-2.5511,-2.5511,-2.5511,-2.5511,-2.5511,-2.5511,-2.5983,-2.6792,-2.6877,-2.7408,-2.8306,-2.9144,-2.9512,-2.9648,-3.0547,-3.0898,-3.0898,-3.0898,-3.0898,-3.0898,-3.0898,-3.0918,-3.1074,-3.1953,-3.2266,-3.2578,-3.4219,-3.4726,-3.4922,-3.5762,-3.5996,-3.5996,-3.5996,-3.5996,-3.5996,-3.5996,-3.5996,-3.5996,-3.5996,-3.5996,-3.5996,-3.5996,-3.5996,-3.5996,-3.5996,-3.5996,-3.5996,-3.5992,-3.5991,-3.5991,-3.5991,-3.5991,-3.6007,-3.5994,-3.5991,-3.5991,-3.5991,-3.5991,-3.5977,-3.5891,-3.5885,-3.5812,-3.5656,-3.5644,-3.5656,-3.5669,-3.6428,-3.6447,-3.5669,-3.7295,-3.7662,-3.6871,-3.7679,-3.807,-2.5413,-2.5352,-2.4741,-2.2677,-2.1407,0.0,0.0,0.0,0.0,0.0,-2.0643,0.0,0.0,0.0,0.0,0.0,0.0,0.0,0.0,0.0,0.0,0.0,0.0,0.0,0.0,0.0,0.0,-1.9076,-1.8644,0.0,-2.2383,-2.3043,-2.3732,-2.4602,-2.5201,-2.5511,-2.5511,-2.5511,-2.5511,-2.5511,-2.5511,-2.5511,-2.5511,-2.5511,-2.5666,-2.5944,-2.5964,-2.6475,-2.735,-2.8217,-2.8909,-2.9523,-3.0467,-3.082,-3.084,-3.0879,-3.0898,-3.0898,-3.0898,-3.0898,-3.0957,-3.123,-3.1738,-3.2402,-3.3516,-3.4238,-3.4883,-3.5742,-3.5996,-3.5996,-3.5996,-3.5996,-3.5996,-3.5996,-3.5996,-3.5996,-3.5996,-3.5996,-3.5996,-3.5996,-3.5996,-3.5996,-3.5996,-3.5996,-3.5996,-3.5996,-3.5995,-3.5995,-3.5995,-3.5995,-3.5994,-3.6007,-3.6005,-3.6005,-3.6005,-3.5999,-3.5962,-3.5898,-3.5891,-3.5853,-3.5745,-3.5648,-3.5596,-3.5596,-3.5874,-3.5861,-3.5591,-3.617,-3.6286,-3.6016,-3.6279,-3.7019,-2.5272,-2.5207,-2.4743,-2.326,-2.1941,-2.0781,-1.9811,-1.9748,-1.9934,-1.9972,-2.083,-2.1502,0.0,0.0,0.0,0.0,0.0,0.0,0.0,-1.3425,0.0,0.0,0.0,0.0,0.0,0.0,-1.6177,-1.7352,-1.7435,0.0,0.0,-2.232,-2.332,-2.4176,-2.5047,-2.5511,-2.5511,-2.5511,-2.5511,-2.5511,-2.5511,-2.5511,-2.5511,-2.5511,-2.5511,-2.5511,-2.5511,-2.5828,-2.6417,-2.7268,-2.8155,-2.902,-2.9931,-3.0476,-3.0749,-3.0858,-3.0898,-3.0898,-3.0898,-3.0898,-3.0898,-3.0898,-3.1289,-3.1953,-3.3066,-3.3789,-3.4473,-3.5664,-3.5996,-3.5996,-3.5996,-3.5996,-3.5996,-3.5996,-3.5996,-3.5996,-3.5996,-3.5996,-3.5996,-3.5996,-3.5996,-3.5996,-3.5996,-3.5996,-3.5996,-3.5996,-3.5996,-3.5996,-3.5996,-3.5996,-3.5996,-3.5994,-3.5994,-3.5994,-3.5994,-3.601,-3.5971,-3.5937,-3.5937,-3.5915,-3.5845,-3.5749,-3.5706,-3.567,-3.5678,-3.5666,-3.5628,-3.5628,-3.5628,-3.5628,-3.5631,-3.6199]}]]